GFSSW_250_spd_000.txt.gz
Wind_Speed
36 34 38 38 38 38 37 38 39 42 44 47 48 48 45 43 42 44 47 50 57 67 71 76 88 95 101 100 92 91 90 90 79 82 82 87 89 87 88 89 87 86 89 91 92
33 34 32 34 33 35 36 37 36 37 40 42 43 42 41 41 40 44 47 50 51 55 62 70 75 85 96 99 99 93 94 91 87 92 83 87 89 90 88 86 86 89 92 94 98
32 29 26 28 29 30 30 30 31 32 35 38 38 38 37 40 43 44 47 51 52 50 55 60 69 74 90 88 96 98 92 86 90 91 95 93 91 89 88 90 90 90 92 95 92
27 24 24 23 23 22 24 27 27 27 28 31 33 35 37 40 41 43 44 46 50 53 56 57 61 67 71 84 94 93 98 94 92 90 88 87 88 86 85 82 81 83 82 85 84
22 22 22 22 20 20 22 24 25 25 24 26 28 32 35 37 37 39 40 41 48 51 54 54 55 59 62 68 77 82 88 88 88 88 86 82 83 81 79 76 80 79 80 78 68
18 21 21 20 19 21 22 24 24 22 23 23 26 28 31 33 33 35 37 39 42 46 47 48 49 53 57 62 67 71 77 82 82 81 81 79 76 74 71 71 65 64 69 66 74
21 22 21 20 21 21 21 22 21 19 19 20 20 22 25 27 29 31 32 34 37 40 42 43 44 46 50 55 60 65 70 71 74 77 71 67 67 68 67 68 64 60 62 62 52
22 21 21 20 21 21 20 20 19 18 18 19 19 19 22 23 25 26 28 30 32 35 37 39 41 42 44 48 52 54 57 58 59 61 68 71 76 62 61 55 50 41 40 40 39
19 22 23 22 21 21 20 20 20 20 21 21 20 19 19 21 22 24 25 28 29 31 34 34 33 34 36 38 40 44 46 50 52 55 55 54 50 47 44 39 35 31 30 32 24
21 24 26 26 25 24 25 26 24 22 21 22 21 19 21 20 21 21 22 24 25 26 27 28 29 31 33 36 34 36 41 44 47 44 43 39 34 32 31 29 26 23 26 24 26
29 30 31 29 28 29 27 28 28 28 28 20 21 24 19 18 18 18 19 19 20 21 23 24 25 27 27 28 31 35 38 37 36 35 32 28 25 23 23 24 24 24 25 28 26
33 32 31 31 30 30 30 27 26 25 24 23 19 20 18 19 17 16 15 14 16 18 19 20 23 24 24 25 26 25 23 23 23 24 23 22 20 24 23 23 24 26 29 31 30
35 34 32 31 31 31 29 29 24 23 22 21 20 16 15 12 10 11 10 10 8 8 10 12 14 16 17 18 19 20 21 21 22 24 23 23 25 24 23 24 26 30 34 34 35
34 34 33 32 31 29 27 26 21 18 18 17 17 15 14 12 11 8 7 5 6 7 8 10 12 14 17 19 19 20 20 21 23 23 21 26 28 22 28 29 30 35 38 38 37
34 34 33 31 27 27 21 19 18 18 19 18 18 17 16 12 9 8 8 8 7 6 8 11 14 16 18 19 18 21 20 22 22 24 25 28 33 19 28 28 35 37 37 39 39
34 34 31 30 30 23 22 20 21 21 22 20 17 14 12 9 7 4 2 1 1 3 5 8 11 14 16 20 22 22 23 23 24 26 30 32 36 24 30 27 32 38 36 37 37
34 32 30 29 23 25 25 24 23 21 20 17 15 12 9 8 5 3 2 2 2 3 4 4 6 7 9 13 17 21 23 24 28 30 33 35 39 22 34 36 27 33 35 41 42
33 33 28 25 27 26 26 24 21 18 15 13 11 9 7 5 3 3 4 2 1 0 1 2 4 5 7 7 8 10 13 17 20 25 27 33 38 26 32 38 34 36 37 39 44
34 32 27 27 25 27 25 22 18 16 15 14 12 10 8 6 5 7 4 3 3 5 7 7 8 8 10 9 9 8 9 11 15 18 22 27 27 24 32 37 39 39 41 42 44
37 31 29 28 26 27 24 22 19 17 15 14 10 8 6 6 8 6 6 4 4 3 2 3 5 7 8 10 13 15 17 19 21 23 25 26 28 25 28 30 33 42 44 46 45
35 30 29 28 26 26 24 22 17 18 16 14 10 9 8 7 7 6 5 3 1 1 2 4 7 9 12 13 15 17 20 23 24 27 29 32 37 36 36 37 39 41 43 45 50
33 32 29 29 28 28 23 19 16 19 18 14 11 9 9 9 7 7 5 4 3 4 5 7 9 10 13 15 16 17 18 23 26 29 32 37 41 40 41 43 42 44 49 53 54
34 32 30 30 31 29 23 21 18 19 18 14 11 10 10 9 9 7 7 7 8 9 11 13 16 17 18 21 25 26 29 30 35 36 37 38 43 44 45 45 46 47 50 51 56
37 33 30 31 31 31 27 24 23 20 16 14 13 13 14 13 11 11 11 11 12 14 16 19 21 22 23 24 25 28 31 33 34 40 44 38 42 48 47 46 50 52 51 55 60
36 34 33 34 33 33 30 26 24 23 20 16 15 16 18 17 16 16 16 15 15 18 20 22 25 26 27 29 32 34 35 36 40 42 42 45 44 43 46 49 51 53 54 57 62
37 37 38 38 34 33 32 30 28 25 23 20 19 20 22 22 22 21 21 19 19 20 23 26 28 32 33 34 36 38 40 42 45 47 45 46 48 49 51 52 51 57 61 64 69
38 40 39 38 37 33 33 32 31 29 26 24 23 23 26 26 25 25 24 24 25 26 28 31 34 37 40 42 42 43 44 47 50 50 49 50 50 51 51 52 56 61 66 71 74

GFSSW_250_spd_003.txt.gz
Wind_Speed
35 33 38 40 42 44 40 39 36 37 40 42 46 49 50 48 42 38 38 40 42 46 51 56 63 66 74 86 92 93 88 84 85 84 82 80 75 77 77 74 72 76 87 91 91
32 34 36 38 39 39 36 33 33 34 37 39 40 42 43 42 38 35 36 37 40 41 44 50 54 63 68 80 92 86 88 90 87 86 86 89 78 77 73 75 74 82 85 89 90
31 32 34 36 35 31 29 28 28 29 30 32 32 33 33 31 33 34 36 38 38 42 44 45 49 57 64 70 74 86 89 91 91 86 82 85 86 81 76 80 81 83 86 87 87
31 31 32 31 27 25 24 25 26 26 26 24 25 26 25 30 32 36 38 39 40 43 46 45 46 54 61 66 71 74 80 84 86 86 86 87 85 86 88 85 85 85 88 89 84
31 30 27 25 21 20 19 21 22 22 21 20 22 24 26 28 31 33 34 37 39 40 42 46 47 51 54 58 62 67 73 78 77 79 76 82 86 90 92 86 84 85 87 84 81
28 25 22 20 17 18 19 18 19 20 19 18 18 21 24 27 29 29 31 31 33 36 38 43 48 47 50 53 56 66 70 72 73 77 82 83 83 85 86 87 85 83 81 78 76
24 21 19 18 18 18 17 18 17 17 17 18 19 21 22 24 24 25 26 27 31 33 37 41 43 48 49 52 56 60 66 68 68 74 82 81 80 80 79 76 78 76 71 72 68
18 17 18 18 17 17 16 17 17 16 16 16 17 17 18 19 21 23 23 25 27 30 32 36 40 44 47 50 48 52 56 63 67 68 69 70 71 70 69 71 73 75 76 75 78
15 18 19 18 18 17 17 17 18 16 16 16 17 17 16 18 19 20 22 24 25 26 28 31 32 34 38 41 42 43 47 49 52 56 57 59 63 62 61 61 61 61 58 56 56
16 20 21 20 21 20 18 17 16 16 15 15 16 14 17 17 17 18 20 20 21 23 24 25 27 29 31 36 39 39 41 42 48 48 48 48 48 50 49 49 48 50 46 44 38
18 21 25 23 21 18 17 18 21 24 24 20 17 20 14 13 14 15 15 15 16 18 21 23 27 30 31 31 32 34 35 33 35 33 34 36 36 42 39 39 42 41 42 40 34
23 24 25 25 26 27 26 24 21 20 22 21 14 18 14 14 14 14 13 12 11 14 16 17 17 18 18 21 23 24 26 26 28 30 31 34 33 38 37 35 35 37 38 36 36
27 28 29 30 31 30 29 27 22 23 23 24 18 17 15 13 13 12 12 11 13 13 13 14 16 20 23 24 24 24 25 24 28 28 28 32 29 28 32 33 32 34 35 33 32
30 29 28 29 28 28 29 29 24 22 20 19 18 18 17 16 14 14 13 13 13 11 10 11 12 13 14 12 14 15 17 20 23 24 26 30 24 27 29 32 28 35 33 35 34
31 29 30 30 30 29 28 30 25 22 22 22 20 19 19 16 15 14 11 8 6 5 4 5 8 10 11 11 16 16 17 20 23 26 28 32 26 26 25 23 30 40 31 36 33
32 32 32 32 31 29 26 25 25 23 23 21 21 20 17 15 13 12 10 8 7 5 6 9 10 13 14 15 18 21 21 20 22 24 28 31 32 28 21 23 26 34 40 45 43
34 33 32 32 30 26 25 23 23 23 24 22 20 18 14 12 10 8 6 5 5 4 5 5 5 5 5 6 9 12 16 20 23 25 24 29 30 28 27 29 29 31 31 34 36
35 34 33 30 27 25 25 24 23 22 20 17 16 14 12 11 8 6 7 6 5 4 6 8 8 6 3 2 1 4 6 7 12 17 21 22 22 23 26 26 27 29 31 33 39
36 33 29 27 27 27 26 24 22 20 18 18 16 12 9 7 6 8 8 8 8 10 11 11 10 8 7 7 7 8 9 11 14 18 22 18 21 21 25 27 29 32 35 38 39
35 32 29 28 30 28 27 25 22 20 18 15 12 10 8 6 9 9 9 9 9 10 9 6 5 4 4 7 9 11 13 15 18 22 28 27 26 31 30 33 35 37 40 43 43
36 35 30 30 30 30 28 24 20 19 17 15 13 11 10 10 10 10 9 8 7 7 5 3 2 2 4 7 9 12 16 15 17 20 24 32 28 31 36 38 39 41 45 49 50
37 36 30 29 27 29 27 23 20 19 17 14 13 13 12 11 11 10 9 7 5 4 4 4 5 8 10 10 13 16 17 18 21 25 29 33 35 34 37 38 41 45 48 51 53
38 37 31 29 27 28 26 24 20 18 17 14 14 13 12 12 10 9 8 8 7 7 7 7 10 14 17 19 19 19 23 28 31 32 30 36 40 40 44 44 44 44 47 51 55
38 35 29 29 29 29 28 26 21 18 17 17 16 13 12 11 10 10 10 10 10 11 11 12 15 17 19 21 23 24 27 27 29 33 40 39 43 45 45 48 46 48 50 53 54
39 37 34 32 32 34 31 27 24 20 18 18 15 14 14 13 14 14 13 12 13 15 15 17 19 20 22 25 28 30 33 34 35 37 40 45 46 51 50 47 48 52 54 55 54
40 36 33 32 29 32 32 29 25 24 22 20 16 15 16 18 21 20 17 16 17 18 19 22 24 25 28 31 34 36 38 40 42 44 48 48 50 51 55 53 53 56 58 59 59
40 41 37 36 31 33 35 33 29 28 22 21 21 21 24 23 20 22 21 20 20 23 24 26 28 31 35 38 40 42 46 48 50 50 50 51 52 55 56 56 56 57 59 62 66

GFSSW_250_spd_006.txt.gz
Wind_Speed
39 38 39 39 37 39 41 39 36 34 36 37 38 38 39 39 42 40 38 35 34 36 40 43 50 60 66 69 70 76 82 94 81 82 83 85 87 84 84 85 87 92 86 83 82
34 35 35 34 36 39 38 34 33 32 33 35 34 35 35 38 41 40 38 35 35 35 38 40 47 53 60 60 68 73 73 80 83 92 89 85 88 86 84 84 87 89 86 86 87
32 33 32 34 33 34 32 31 31 28 29 30 30 31 34 36 41 45 43 37 34 34 39 42 46 46 51 59 62 66 76 74 77 79 82 79 79 80 81 82 81 79 83 85 80
33 32 32 31 30 29 28 27 24 24 25 25 24 26 30 34 38 40 38 36 36 35 41 46 46 46 45 50 56 62 67 73 80 75 82 83 83 89 83 83 85 84 78 80 83
32 33 30 30 27 24 23 19 17 17 19 20 21 24 29 31 31 30 29 35 37 37 39 42 43 43 40 42 46 55 62 66 69 70 79 78 77 82 83 84 89 86 81 79 74
30 31 29 25 21 19 14 14 15 16 16 19 22 23 23 23 23 26 27 32 33 33 32 36 40 43 42 38 43 55 55 60 63 69 72 71 73 77 81 73 74 76 76 79 82
29 30 24 20 17 14 13 14 13 15 17 19 20 21 23 25 27 30 31 31 32 35 35 37 38 38 43 44 48 50 50 55 63 65 66 71 77 76 78 74 72 72 72 74 74
25 22 17 15 15 15 15 15 15 16 16 17 18 19 21 23 24 26 26 26 28 29 32 35 38 41 43 44 44 43 46 47 50 56 61 67 70 70 68 70 75 80 80 78 74
20 16 14 15 16 16 15 16 16 16 17 18 19 20 22 21 21 22 23 24 26 27 29 30 32 35 35 35 39 43 44 45 47 49 54 58 66 70 69 68 66 65 66 66 68
18 15 17 16 16 17 17 18 18 19 20 19 18 20 20 21 19 20 21 23 23 24 25 26 26 30 33 35 37 39 42 47 47 46 47 49 53 53 52 54 55 54 53 48 46
13 18 18 17 19 19 18 19 19 21 23 23 20 19 19 20 19 18 18 20 20 23 24 24 26 28 29 28 31 33 38 42 42 45 43 42 46 43 43 43 40 39 41 40 40
15 20 21 23 22 22 20 18 18 19 21 22 22 23 21 19 17 17 18 18 19 18 19 19 20 23 25 25 27 29 32 34 31 33 32 30 35 33 32 34 35 35 38 40 41
18 23 27 27 24 22 24 24 23 23 22 24 21 20 19 17 15 14 13 14 15 13 13 15 15 16 17 20 21 19 25 29 27 32 29 30 33 34 33 30 31 36 40 43 43
24 27 26 26 27 28 27 24 22 21 18 19 18 18 16 17 17 15 13 12 12 13 14 15 15 15 18 21 21 23 26 26 27 26 26 25 22 23 22 27 31 35 37 38 39
27 27 28 30 29 28 28 27 23 21 17 19 18 21 19 20 18 19 17 16 15 14 13 13 14 14 19 21 17 17 17 19 21 23 26 24 20 21 25 29 29 33 39 41 41
29 30 31 29 28 28 27 27 24 22 21 22 23 22 21 20 20 19 17 15 15 15 14 13 12 13 14 14 15 17 18 21 23 25 25 22 20 20 28 30 32 36 38 37 40
31 31 31 30 31 30 28 27 26 23 24 24 23 23 20 19 18 16 14 11 10 8 7 8 8 7 8 9 11 14 16 17 18 22 17 17 15 15 18 21 22 24 26 28 30
33 32 31 32 31 30 29 28 26 24 25 24 22 20 19 17 15 12 10 9 8 6 8 8 9 7 6 4 3 3 3 4 5 7 7 11 15 18 18 19 17 22 26 32 34
34 33 34 34 31 29 27 26 25 25 25 23 20 16 15 12 10 9 9 10 10 12 15 15 13 11 8 5 2 3 4 7 10 11 13 15 18 19 22 24 26 29 33 35 37
36 37 37 33 30 28 28 26 26 25 21 19 17 15 13 10 10 13 12 13 16 17 14 11 8 5 4 3 4 6 7 10 12 14 14 15 18 21 24 27 29 31 35 38 39
39 38 36 32 31 29 26 25 24 21 20 18 16 13 10 11 14 13 14 14 14 11 9 7 5 2 1 4 8 9 11 15 19 22 25 24 25 26 27 31 35 36 39 42 42
40 38 36 34 32 29 27 24 23 21 20 18 15 13 13 13 13 14 14 13 12 10 9 8 7 6 6 8 12 15 17 19 21 24 29 28 30 34 36 38 41 43 44 45 46
42 39 37 35 34 31 28 25 22 20 20 17 15 15 14 14 15 14 12 11 10 11 11 10 10 10 11 12 13 16 20 23 26 27 31 35 34 38 40 42 45 47 48 48 49
40 38 35 33 33 31 31 26 22 21 20 17 16 16 15 15 14 13 12 12 12 11 11 12 13 13 14 15 17 21 24 28 30 34 36 39 45 44 45 47 48 52 54 56 58
42 39 38 36 33 33 31 27 24 21 20 17 16 16 16 17 15 14 14 14 14 13 14 15 16 16 18 20 22 26 29 30 34 36 39 44 47 49 51 53 54 55 56 57 58
43 40 39 36 29 29 29 28 26 22 18 17 17 19 19 21 19 17 16 15 15 15 18 18 19 20 22 23 27 31 35 35 38 43 46 50 56 55 55 55 56 58 59 59 60
45 42 40 34 31 29 29 30 29 25 22 21 22 20 19 18 17 18 19 19 20 20 21 22 23 25 26 29 33 35 36 39 43 49 52 57 59 58 55 57 60 60 61 60 59

GFSSW_250_spd_009.txt.gz
Wind_Speed
59 46 40 40 41 41 35 35 38 38 37 37 39 37 36 38 40 44 44 43 43 41 40 42 46 52 53 55 57 60 63 68 71 75 74 80 80 72 76 83 82 84 80 81 86
55 44 38 36 39 35 35 35 37 36 35 34 32 35 36 38 40 42 41 40 39 37 35 40 44 46 50 49 52 54 57 62 68 70 73 76 76 78 78 75 75 79 81 79 79
51 39 34 38 37 33 31 35 32 31 30 29 33 35 35 37 39 40 41 39 36 33 32 38 38 40 42 44 50 54 56 58 61 70 75 77 82 77 78 81 77 80 86 85 85
47 36 35 36 35 32 30 31 30 28 26 30 31 32 33 35 37 38 39 37 37 34 35 33 36 37 38 39 43 50 53 61 64 65 75 78 82 75 76 80 81 78 75 79 81
40 34 35 36 34 31 30 27 26 21 19 23 26 30 32 30 32 33 36 36 35 36 33 32 31 36 36 31 32 40 49 56 62 68 70 71 76 78 85 82 83 76 84 68 77
34 33 34 36 35 28 24 22 17 15 16 19 24 28 29 30 30 31 30 31 34 32 30 29 28 32 33 32 34 40 42 48 56 61 65 70 72 70 72 73 68 71 77 62 70
33 32 33 35 30 23 20 17 14 15 17 21 22 23 23 25 26 28 30 29 27 30 32 33 30 31 33 36 43 37 37 41 47 52 56 61 66 65 72 75 72 68 68 67 71
29 30 34 30 23 19 16 14 14 14 17 19 21 22 23 26 28 29 28 28 30 31 33 31 30 30 31 36 39 36 35 35 38 42 47 50 55 60 64 69 70 70 72 74 78
28 30 28 22 17 15 15 15 16 17 18 19 20 22 25 26 27 27 26 27 25 25 25 27 28 29 30 31 35 38 37 38 38 41 42 44 45 49 57 64 67 68 69 69 72
32 24 20 16 13 14 15 18 19 19 18 18 19 20 21 23 24 24 26 28 28 28 28 30 29 31 34 35 35 36 38 40 42 40 38 41 41 42 43 45 47 51 54 56 57
27 16 16 14 13 17 19 21 21 21 20 20 20 21 21 22 24 25 24 24 24 25 24 25 26 26 26 28 34 36 37 37 37 35 38 41 41 41 42 44 44 45 45 45 43
19 14 15 16 19 21 20 21 21 22 22 22 21 22 22 22 22 23 24 24 23 25 24 25 24 25 25 26 30 32 31 30 27 28 32 35 36 34 34 35 35 37 39 42 43
16 14 20 21 21 20 19 19 21 21 20 20 20 20 22 22 19 20 20 21 21 19 20 24 24 24 22 23 24 25 24 24 23 24 27 26 27 26 29 33 37 38 38 40 41
15 16 24 22 23 24 23 22 20 18 19 19 18 18 18 19 19 16 15 15 16 18 20 19 17 17 16 18 21 22 23 22 21 21 21 22 25 25 28 31 33 34 33 34 35
17 20 22 25 25 25 24 24 23 22 18 18 15 20 18 16 17 17 17 19 17 17 18 17 18 14 16 18 18 21 21 22 20 18 16 16 16 19 22 25 29 33 36 38 40
22 25 27 28 27 27 25 24 24 22 20 18 15 18 18 17 17 18 16 15 16 15 14 16 16 15 15 15 17 18 17 18 18 18 13 14 13 17 20 25 29 32 35 37 39
27 29 29 29 28 26 25 25 24 21 18 18 18 18 18 17 18 17 18 17 17 17 16 15 14 14 14 14 15 15 14 12 9 5 7 8 10 11 13 15 19 23 27 29 32
33 33 32 30 28 26 25 24 24 22 22 21 20 22 23 21 20 18 19 19 17 15 14 14 14 14 12 9 7 4 2 2 2 2 4 5 8 11 13 17 20 23 26 30 33
34 36 33 30 29 28 27 24 24 24 23 25 26 24 21 17 16 14 13 13 12 12 12 11 12 11 10 10 7 4 2 1 3 5 8 12 15 17 18 22 25 27 29 31 35
38 36 34 33 32 31 29 25 23 22 26 27 22 19 18 16 13 13 13 12 14 16 17 16 14 11 9 6 3 1 4 6 8 11 14 16 18 21 24 26 28 31 33 36 39
38 36 36 36 35 33 28 25 23 27 26 23 20 19 17 12 12 13 12 16 19 17 15 13 11 8 4 1 2 5 8 10 13 15 18 20 21 23 25 30 33 36 39 41 43
38 37 39 38 35 32 28 27 28 26 23 21 20 17 13 12 14 14 15 17 17 15 14 10 7 5 4 4 6 8 10 13 16 17 19 22 24 27 29 34 38 42 45 47 49
40 41 41 37 34 32 30 29 27 24 23 22 19 14 14 15 15 16 17 16 15 14 11 9 8 8 9 10 11 11 13 16 20 22 24 26 31 35 38 42 47 50 52 53 54
43 42 41 37 34 32 30 27 24 23 23 21 17 16 16 14 15 17 16 16 14 11 11 11 12 13 13 13 14 16 18 22 26 28 28 32 36 41 45 49 53 56 57 55 55
42 43 42 34 35 34 30 27 24 24 23 21 18 18 18 16 17 18 18 18 15 13 14 15 16 16 17 18 18 20 23 27 28 27 32 37 43 47 51 53 55 56 57 56 56
44 45 42 41 39 35 32 28 25 24 23 22 20 20 20 18 16 16 15 13 13 14 16 18 19 20 22 23 24 26 28 30 29 31 37 43 46 51 54 56 58 59 57 57 56
45 44 43 39 37 35 34 31 28 25 25 24 22 21 19 17 17 16 15 17 19 19 20 22 23 23 26 25 26 31 34 31 33 39 43 48 51 57 57 56 60 62 62 60 59

GFSSW_250_spd_012.txt.gz
Wind_Speed
73 76 76 70 63 51 42 40 36 34 37 36 37 39 41 43 44 44 42 43 44 43 43 45 46 47 45 47 49 51 52 54 58 61 66 64 69 67 76 79 75 69 69 70 76
77 74 72 68 57 44 41 35 34 36 37 36 39 39 40 41 43 42 42 42 42 43 43 42 41 40 40 40 43 45 47 51 51 54 60 61 68 68 59 69 75 81 76 76 77
74 72 74 62 53 41 38 36 35 36 34 33 36 36 37 40 40 39 39 38 40 42 40 38 35 32 34 38 40 42 43 46 47 51 55 58 65 66 73 67 71 73 76 80 79
71 75 66 56 49 39 38 36 35 33 30 33 32 33 34 36 36 36 36 35 36 36 35 32 30 33 35 34 37 37 40 42 46 49 49 56 59 63 60 61 65 72 70 70 64
70 68 65 52 42 38 37 35 32 29 29 29 29 32 34 34 33 35 33 32 33 33 30 26 25 26 29 31 31 32 37 42 42 46 48 47 53 56 65 67 65 61 65 72 68
64 58 56 44 37 37 37 33 29 25 25 24 26 26 26 28 31 31 30 30 32 31 28 26 21 20 21 28 31 29 30 33 43 45 47 49 51 50 58 67 69 69 72 76 75
65 57 48 39 35 38 36 29 24 22 19 18 19 18 20 24 27 27 27 27 28 30 27 26 24 25 24 28 32 31 28 28 30 35 42 48 49 54 53 58 66 68 74 76 76
61 49 40 35 39 37 31 25 20 16 14 14 15 17 22 25 25 26 26 28 29 27 29 28 28 26 27 30 31 31 27 28 26 26 30 37 43 46 51 55 54 61 64 67 61
57 46 34 34 38 30 23 17 14 11 11 14 16 19 20 23 26 27 28 28 29 29 25 27 27 27 28 30 25 22 27 27 28 29 30 30 32 37 41 47 49 48 52 59 65
48 37 34 33 30 21 15 12 12 12 12 13 16 18 17 19 20 24 27 28 27 23 23 24 25 26 25 26 25 24 26 30 32 34 34 34 36 35 36 39 41 44 46 48 52
43 32 34 30 20 15 13 13 14 16 15 15 17 18 20 20 18 17 18 19 20 23 24 24 25 26 27 29 27 26 27 29 33 35 35 37 37 38 40 42 43 45 46 46 48
35 29 35 23 14 12 11 15 19 17 18 18 17 18 20 22 22 21 21 22 22 25 24 24 25 27 27 28 28 27 24 26 30 32 32 32 36 37 37 37 38 38 38 37 36
30 27 32 18 14 13 14 18 17 16 16 16 16 17 18 19 20 20 21 21 23 23 23 22 22 22 23 23 22 19 22 26 28 26 24 24 26 27 29 30 31 30 31 33 34
26 27 25 16 13 15 18 17 16 17 16 14 15 15 17 17 17 16 16 17 19 20 19 18 21 22 22 21 20 17 17 18 18 19 19 19 20 23 26 29 28 27 27 27 30
25 26 17 17 16 17 17 17 18 17 17 17 16 17 18 18 18 18 17 17 16 14 15 16 17 19 19 16 16 17 17 13 10 11 13 14 15 18 21 24 24 25 28 30 31
25 23 16 19 19 20 21 22 21 20 19 18 13 16 16 15 15 15 15 15 17 15 14 16 18 16 14 12 12 10 9 8 8 9 12 17 19 23 22 23 24 25 24 23 25
29 23 21 22 23 22 22 22 21 21 19 16 16 18 18 17 15 13 12 13 13 14 16 16 14 16 15 11 9 7 7 9 9 12 16 19 21 21 18 18 19 21 24 26 28
31 24 28 26 26 24 23 22 23 21 20 17 17 16 13 12 12 13 13 14 15 15 12 10 12 13 11 9 8 8 7 8 7 6 5 5 8 11 15 19 22 25 28 29 32
33 31 30 29 27 25 24 25 24 21 20 17 17 17 17 16 16 15 14 13 12 12 13 15 14 11 10 8 10 11 8 6 6 6 6 7 9 13 16 20 23 27 30 34 38
36 38 34 32 29 27 26 25 23 20 19 20 20 18 18 16 15 14 14 15 16 15 14 13 14 15 15 13 10 7 4 3 3 6 10 12 15 18 22 25 27 29 32 36 40
42 40 36 32 31 30 28 24 22 21 22 24 21 19 18 15 13 13 14 13 13 14 15 16 16 15 12 8 4 3 3 4 6 9 12 14 15 17 20 23 28 33 39 43 47
46 40 38 35 33 33 30 27 25 25 26 25 21 20 17 13 11 13 13 14 16 17 17 15 12 10 8 5 4 6 6 8 10 12 15 18 17 21 25 30 35 40 44 46 49
47 40 39 36 37 35 32 31 28 28 28 25 23 20 18 15 15 14 15 17 19 18 16 14 12 8 6 7 9 11 11 12 15 18 20 20 23 26 29 36 40 46 49 51 51
50 42 39 41 40 37 35 32 31 30 27 25 23 21 18 15 16 17 18 17 17 16 14 12 9 8 9 11 13 15 16 17 20 22 25 24 27 30 36 41 44 49 48 51 54
46 41 40 42 39 38 34 33 31 28 26 27 24 21 18 16 17 19 20 19 17 15 14 12 12 12 13 16 17 19 22 24 26 28 30 29 32 35 41 46 51 55 56 56 55
44 43 43 47 43 40 36 34 31 27 26 27 23 21 19 18 16 15 15 15 14 14 14 15 17 17 17 18 20 23 28 28 30 34 34 33 38 42 46 48 54 60 61 61 61
47 47 48 47 41 37 37 35 30 28 27 26 24 20 19 19 18 16 15 14 16 18 19 20 19 20 22 23 23 29 31 32 34 38 36 38 44 48 50 56 60 65 65 67 69

GFSSW_250_spd_015.txt.gz
Wind_Speed
82 81 76 76 76 72 69 62 53 44 39 36 35 35 34 36 40 44 41 44 45 44 43 44 41 42 41 40 38 38 43 48 49 50 53 56 61 66 71 70 68 66 69 45 49
80 81 79 76 78 73 66 61 52 42 38 39 39 36 36 36 38 37 40 39 40 40 40 42 40 39 38 38 38 39 40 44 45 45 48 52 58 63 66 62 63 54 69 67 63
82 84 78 81 74 74 65 57 45 41 40 39 41 35 35 33 30 31 35 34 37 40 40 41 39 37 34 33 31 34 34 37 39 41 42 44 48 50 56 59 61 65 50 68 63
87 86 80 72 76 69 59 50 41 40 38 38 36 33 30 29 29 29 32 36 38 39 37 35 35 31 30 29 29 27 28 33 33 33 39 43 44 46 44 50 57 56 50 51 54
85 87 82 74 71 66 62 44 39 40 37 34 31 30 27 26 25 25 27 32 34 34 31 31 30 28 26 25 26 28 28 33 33 32 35 37 37 39 43 40 48 56 55 56 61
88 85 85 76 73 65 49 39 42 37 33 29 28 25 24 23 24 24 27 30 32 30 30 29 27 23 22 27 30 29 28 28 31 31 33 35 38 39 37 34 41 48 54 60 61
90 85 83 73 72 58 42 41 38 35 28 26 22 18 19 18 21 25 29 30 30 29 28 27 24 24 22 23 25 28 26 24 21 23 26 31 33 33 36 37 35 36 42 51 53
89 81 78 71 62 53 41 39 32 28 22 17 13 13 10 13 17 20 25 27 26 27 30 30 29 25 22 19 21 23 26 24 21 21 19 20 24 29 32 39 41 44 46 46 47
84 73 74 71 59 46 38 34 26 18 14 12 11 9 8 12 16 19 23 25 26 27 28 31 28 22 24 22 20 21 23 24 23 23 23 25 24 25 26 28 33 38 42 45 45
76 70 70 62 60 38 32 27 18 14 11 10 11 11 11 13 17 19 21 23 26 30 32 29 26 26 26 22 18 19 22 22 26 29 28 27 27 28 30 30 32 35 36 37 38
71 67 67 58 47 30 24 19 15 13 10 11 11 13 14 14 15 18 19 20 23 23 25 24 23 25 22 22 22 22 24 25 27 28 29 30 30 32 34 35 36 35 35 38 41
65 63 62 55 33 23 19 15 15 11 13 11 11 13 14 16 19 17 16 15 17 22 23 22 23 25 25 24 24 24 24 24 26 27 27 29 31 32 33 35 37 38 38 37 37
58 55 55 41 28 18 16 13 12 14 13 11 11 12 14 16 18 18 20 21 21 20 20 21 22 22 22 22 21 23 23 23 22 22 22 24 26 27 28 30 30 28 28 29 30
52 47 45 31 22 16 14 13 14 14 11 11 11 12 14 15 16 16 18 18 19 18 17 19 21 22 21 19 20 21 19 18 19 20 20 20 21 21 21 22 21 21 21 22 21
46 43 37 25 17 17 14 13 15 13 12 11 11 11 13 15 16 16 15 14 15 16 19 19 18 18 19 19 18 18 18 16 14 12 15 16 19 22 23 22 19 18 19 18 20
39 38 31 19 14 17 16 17 15 14 14 15 14 13 14 15 16 17 18 18 18 18 18 18 16 14 15 16 18 17 12 12 15 17 19 17 17 19 16 16 16 15 16 18 22
32 35 27 16 18 19 17 18 17 17 16 17 16 17 17 17 16 15 16 15 16 16 15 15 14 16 17 18 18 14 16 15 12 11 13 15 16 16 13 9 10 14 18 21 26
31 32 21 16 20 20 20 18 19 20 20 18 18 18 18 19 18 16 16 17 16 16 16 15 14 12 12 13 12 11 10 8 7 5 4 2 3 5 7 10 12 16 20 24 26
31 32 23 18 23 22 22 21 22 23 22 20 20 18 18 18 18 15 14 13 14 14 14 15 14 12 11 11 11 10 11 10 9 5 2 4 6 8 11 13 16 19 21 24 27
35 36 26 25 27 26 23 22 24 23 21 18 18 16 16 14 12 11 10 11 11 11 11 10 10 10 12 15 16 15 13 9 7 7 7 8 10 11 13 14 16 20 24 29 34
37 37 27 31 31 28 25 25 25 23 21 19 19 17 16 15 13 12 11 11 10 10 10 11 13 16 19 18 15 11 9 7 7 7 7 8 12 14 16 19 22 24 29 34 39
38 40 30 34 32 30 28 28 27 23 22 22 20 19 17 14 12 11 11 11 11 12 15 19 20 19 17 13 10 8 6 7 8 8 10 12 15 19 20 22 25 29 33 37 40
41 44 35 38 34 33 33 31 27 25 23 24 22 20 17 15 13 12 13 13 15 18 21 20 19 16 12 8 7 7 8 10 12 14 15 18 21 22 25 26 30 33 37 39 46
47 45 37 42 41 37 37 32 29 26 27 27 24 21 20 18 15 16 15 15 18 18 17 16 15 11 9 8 8 9 11 14 16 18 21 22 27 27 29 31 35 40 42 45 51
50 42 42 42 40 39 40 34 31 30 31 30 25 23 22 18 17 17 16 17 17 16 16 15 13 12 11 12 11 13 15 19 21 25 27 28 32 30 33 36 41 45 45 51 56
52 43 47 50 46 44 40 36 34 34 34 30 28 26 22 20 20 18 18 18 17 17 15 14 15 16 15 14 16 19 22 25 27 30 30 31 37 35 35 39 46 48 53 58 61
51 51 52 51 47 43 42 39 38 38 35 32 29 27 24 23 21 19 18 19 18 18 19 19 21 19 18 19 19 24 30 30 32 33 34 36 39 36 39 45 51 55 59 64 65

GFSSW_250_spd_018.txt.gz
Wind_Speed
69 63 63 71 77 79 78 74 72 68 70 65 44 35 34 35 33 36 38 43 45 48 49 47 48 48 45 41 39 40 40 38 41 44 46 49 50 52 57 58 57 61 64 62 58
72 67 66 70 80 80 86 78 72 70 71 61 38 35 35 34 35 32 36 36 39 44 43 42 43 43 41 38 38 37 37 37 41 43 45 47 50 51 53 56 58 59 60 61 56
74 69 67 71 80 84 90 74 75 72 67 50 36 34 36 33 29 30 29 31 36 40 42 43 41 40 37 36 35 34 33 35 37 38 39 42 44 45 49 49 51 56 55 52 59
72 70 70 77 78 85 91 77 74 70 64 47 37 35 33 26 26 24 26 27 32 33 37 38 40 37 35 32 31 29 30 32 34 35 35 38 36 40 43 44 44 48 50 55 52
69 70 72 76 80 88 93 78 73 69 59 47 38 31 28 23 22 23 22 27 29 31 33 33 35 32 30 25 25 26 27 27 28 31 30 28 29 32 32 37 37 34 40 48 51
68 68 72 77 83 89 90 80 73 64 58 43 34 28 24 22 20 20 22 25 28 31 28 28 27 24 22 25 27 27 27 25 23 27 27 24 24 26 30 30 28 27 33 38 43
66 69 71 80 82 88 86 78 71 61 49 35 30 23 19 17 17 17 22 22 24 26 25 22 22 26 30 27 27 26 27 27 23 21 23 24 26 27 25 28 35 32 28 30 42
65 72 74 81 84 88 84 76 64 57 40 31 23 18 13 12 11 16 21 22 23 23 24 27 32 33 30 27 25 26 27 26 25 21 18 19 20 24 28 30 30 32 35 33 29
64 68 74 79 84 87 80 70 61 50 32 23 20 14 9 7 9 15 21 23 24 24 25 30 34 32 28 27 26 27 27 28 27 24 23 20 21 24 24 25 26 27 28 33 37
67 69 74 77 81 86 75 63 55 38 24 19 15 9 6 6 10 15 19 22 25 27 30 34 34 31 29 26 24 22 21 26 28 28 27 25 24 24 23 25 26 27 28 31 33
68 71 74 76 77 83 77 62 49 28 20 16 11 10 7 8 11 13 17 20 23 27 33 34 33 31 28 26 24 23 23 25 27 27 28 28 27 26 26 26 28 30 31 32 35
72 71 77 79 79 79 71 55 39 24 18 13 10 10 10 10 11 12 19 20 24 27 32 33 33 29 25 26 27 25 24 22 22 23 25 25 28 29 29 30 31 31 32 33 35
72 75 80 80 79 79 64 49 30 20 15 12 11 9 11 12 16 18 18 18 19 24 27 30 28 26 24 27 27 25 22 22 24 24 25 26 28 29 28 27 26 27 29 31 31
75 76 78 81 78 77 55 41 25 18 14 13 11 10 12 13 15 18 21 23 25 23 24 24 23 23 24 26 25 25 25 24 24 24 22 23 24 24 23 23 23 23 22 21 20
77 83 76 77 78 73 50 34 23 19 16 15 12 11 12 15 17 20 20 21 21 22 23 22 21 21 22 24 25 25 24 21 18 17 21 23 22 22 20 17 15 13 16 18 17
81 83 82 80 78 66 45 30 20 18 18 16 14 13 15 17 19 20 21 22 22 22 21 19 19 21 23 23 22 21 20 19 20 21 22 20 19 18 14 13 14 14 12 9 10
84 85 82 82 73 57 45 23 20 19 17 16 15 15 14 15 16 19 21 22 21 21 20 20 19 20 19 19 19 18 17 19 19 18 16 16 16 13 10 8 5 6 9 12 16
84 87 82 74 65 48 36 20 19 17 17 16 17 18 18 18 17 16 16 17 18 19 20 21 21 19 17 16 16 18 19 18 17 16 13 9 6 3 2 4 6 9 13 16 17
91 88 73 64 54 39 29 20 18 19 18 18 17 17 17 17 18 18 18 18 18 18 18 19 18 16 16 19 21 20 18 17 15 13 10 7 5 5 6 8 11 13 14 16 18
87 77 60 52 48 36 25 22 23 23 20 19 19 17 16 16 15 16 17 15 15 14 14 17 18 19 21 20 18 15 13 14 12 9 7 6 6 8 11 13 15 15 17 20 25
73 53 52 45 41 34 26 25 27 24 20 21 21 21 20 18 18 17 16 15 15 14 13 14 16 16 17 15 15 16 15 12 10 9 9 8 10 12 14 17 19 22 23 26 29
61 52 52 47 36 35 29 28 28 24 24 26 23 20 18 18 17 16 15 14 13 14 14 16 17 18 20 20 20 17 13 11 10 11 12 13 14 15 16 20 24 28 29 31 33
55 51 50 44 38 38 32 31 29 26 27 27 23 20 20 19 16 14 14 14 13 14 18 19 22 24 22 19 15 13 14 14 14 16 17 19 20 20 24 26 28 32 35 36 40
58 55 49 41 41 41 35 33 32 30 28 27 24 23 23 21 18 16 15 14 14 18 21 22 23 21 18 17 16 14 15 16 16 17 20 23 25 26 30 32 34 36 37 40 43
57 55 47 43 43 44 37 37 34 31 29 28 25 25 24 21 18 16 14 15 20 22 23 23 22 20 18 16 15 16 16 18 20 21 25 28 31 28 30 36 39 39 39 42 47
62 55 45 49 49 48 39 39 35 34 32 29 27 28 25 21 19 18 18 18 22 22 22 23 22 21 21 20 18 17 20 22 24 26 30 31 37 36 36 38 40 42 42 46 53
65 55 48 55 52 49 42 42 37 37 34 31 30 30 26 24 23 23 22 22 24 24 24 24 24 25 25 21 20 23 26 26 29 31 33 35 38 40 42 43 44 44 45 53 58

GFSSW_250_spd_021.txt.gz
Wind_Speed
63 67 71 72 77 76 69 69 74 79 69 72 67 65 52 37 34 35 32 35 35 37 45 51 54 49 44 44 43 42 42 42 42 37 27 47 53 54 51 57 62 58 55 59 64
62 68 69 73 78 76 68 70 79 82 79 76 69 63 51 40 36 37 35 34 35 35 39 45 50 50 42 38 35 37 36 37 37 34 26 46 46 45 46 52 55 56 55 55 51
61 65 67 74 77 74 69 73 79 81 82 77 71 62 54 43 37 37 33 31 33 32 34 40 46 46 45 38 35 35 38 33 39 38 45 43 39 40 41 39 50 50 50 49 46
64 64 65 74 76 78 73 73 82 80 81 80 71 57 49 41 35 30 27 25 26 27 27 35 43 43 39 38 35 33 30 29 32 36 30 29 30 31 30 19 43 36 44 46 47
64 62 63 73 76 77 74 74 78 83 83 79 64 55 43 36 31 26 24 21 22 25 25 31 37 40 37 35 29 28 23 24 27 30 34 29 28 27 32 40 44 34 38 34 39
66 64 65 74 79 78 76 74 79 81 84 76 64 54 40 31 28 21 19 17 18 20 23 24 30 33 32 24 26 24 28 28 28 25 26 27 26 25 29 34 43 41 30 29 29
65 65 69 75 78 78 77 76 79 81 80 73 59 47 35 27 23 17 16 16 19 22 25 26 26 24 26 27 28 27 29 30 25 24 20 22 26 23 24 24 28 31 31 24 26
67 69 67 76 79 74 73 75 80 79 80 66 51 41 32 25 21 15 14 18 20 25 26 27 30 31 29 31 31 30 32 31 27 23 22 23 28 29 29 31 28 27 27 31 30
67 69 69 74 78 73 72 73 79 77 71 58 47 35 28 22 18 11 13 18 19 24 28 29 29 30 33 32 30 30 31 30 28 27 22 23 23 26 27 26 26 29 28 31 33
69 70 72 74 76 75 72 73 76 77 63 52 42 30 25 18 13 5 13 20 21 25 26 28 28 34 33 32 33 30 27 25 28 29 29 27 28 24 25 27 27 29 30 30 34
71 73 72 75 74 75 73 72 73 75 66 50 38 25 22 15 9 4 13 20 26 26 25 25 32 37 35 32 28 27 26 25 25 27 31 29 27 26 24 27 28 26 28 30 33
72 73 72 78 72 76 71 72 73 73 70 48 33 22 20 14 8 6 12 19 25 27 28 31 34 34 31 30 29 25 25 24 25 27 29 31 31 31 29 29 28 28 30 32 33
72 73 74 76 73 75 71 72 74 73 63 43 29 21 19 13 10 9 13 18 23 27 31 35 34 33 31 29 26 25 26 25 24 23 23 25 26 27 29 31 31 31 34 34 35
74 76 70 74 71 71 72 69 74 72 60 45 28 21 19 13 12 14 15 15 20 26 31 36 34 33 31 27 25 26 27 25 23 22 24 26 26 29 30 30 30 29 28 29 30
76 77 69 71 72 69 72 72 75 72 61 42 27 22 19 15 13 16 19 23 23 24 29 32 32 31 30 27 25 28 27 26 25 24 29 26 26 26 24 21 24 25 26 27 27
77 72 69 70 70 68 69 75 74 70 60 41 26 22 20 16 17 16 17 21 24 25 26 30 28 26 25 25 26 27 27 29 29 27 26 23 22 22 19 17 23 24 23 20 16
73 73 73 70 71 70 71 74 73 72 53 38 26 23 20 17 17 19 20 20 23 25 25 24 25 24 25 26 27 28 28 26 25 24 19 19 20 16 16 21 25 21 18 17 16
78 76 76 75 72 68 67 71 71 69 48 32 24 22 22 19 19 21 24 24 25 26 26 25 25 27 26 25 25 25 23 22 20 19 17 16 18 14 17 17 15 15 15 13 13
83 82 79 77 72 69 67 70 68 67 43 28 24 23 22 20 19 19 19 20 22 24 27 26 26 25 23 23 22 21 20 19 18 16 15 14 13 12 12 13 12 12 13 14 14
88 87 85 77 72 69 66 71 68 56 37 26 24 22 21 20 19 19 19 19 19 19 20 23 22 21 22 22 21 19 18 17 17 16 15 15 15 14 12 10 12 15 17 19 21
92 87 82 76 72 69 66 70 72 45 36 26 25 21 21 18 17 18 17 18 18 19 20 20 22 23 22 20 18 19 20 19 17 17 18 17 14 11 11 14 18 20 23 26 29
93 89 80 77 73 73 69 71 64 42 34 29 26 22 21 21 22 21 20 20 21 22 21 22 22 22 22 22 21 21 21 19 17 17 15 14 13 15 17 18 20 23 27 31 34
93 89 85 80 79 77 75 78 52 42 35 32 25 24 24 25 24 23 22 22 21 21 21 21 23 22 22 22 23 22 20 20 19 19 17 19 18 22 24 26 28 30 34 36 38
100 92 87 85 79 74 75 68 50 42 36 32 28 28 28 27 25 23 22 21 20 19 20 23 24 24 24 23 23 22 22 21 21 20 20 24 24 26 27 30 31 34 37 40 44
96 88 91 81 72 68 61 54 49 41 37 33 31 31 28 26 26 24 22 21 20 21 22 24 25 27 25 25 23 22 22 24 24 23 25 27 28 29 29 33 37 39 42 46 48
85 85 81 73 65 57 56 50 46 43 40 36 35 32 29 29 28 24 22 20 20 22 23 26 27 27 27 25 24 24 27 26 26 27 28 29 32 32 36 37 41 42 45 47 49
82 81 74 60 48 58 56 51 46 43 41 38 35 32 32 33 29 27 24 21 23 26 27 27 27 28 28 27 27 28 28 27 29 31 31 32 36 39 41 43 44 45 46 49 51

GFSSW_250_spd_024.txt.gz
Wind_Speed
52 53 56 62 63 67 66 69 72 74 76 77 71 76 72 63 50 44 36 33 37 34 35 35 40 41 49 47 53 52 44 46 47 35 31 23 17 43 42 54 53 48 39 55 56
53 52 56 60 62 66 66 71 73 76 81 79 77 80 73 56 46 40 32 32 33 34 34 33 35 40 44 49 49 44 42 40 34 25 26 28 49 52 43 46 36 38 56 56 56
54 54 58 59 61 65 67 72 74 75 78 79 75 80 74 52 43 34 29 27 25 28 28 30 34 39 43 45 41 40 35 30 31 30 37 45 47 47 42 44 42 8 38 51 52
53 56 59 59 61 64 66 73 74 75 79 79 76 78 72 53 41 37 28 23 19 18 21 28 30 36 40 38 37 35 29 32 31 36 46 43 38 45 36 35 39 57 50 37 40
57 58 61 60 61 65 67 72 74 75 78 75 77 74 71 51 44 34 25 21 15 15 17 24 26 34 38 38 37 32 29 28 30 46 42 37 29 36 35 29 28 22 31 29 21
58 58 62 62 61 64 67 72 75 76 73 72 73 73 68 48 41 33 26 19 14 15 20 22 26 32 37 36 31 27 27 27 26 29 29 34 31 28 20 23 33 32 31 26 28
63 64 65 61 60 64 67 72 73 77 73 73 71 70 63 46 38 33 27 19 14 15 18 18 25 34 34 32 28 27 32 30 30 28 26 32 35 35 33 26 32 40 45 44 38
67 65 64 60 60 65 67 72 74 77 72 75 65 65 59 41 35 33 27 16 14 16 14 18 25 31 33 33 27 31 29 34 31 30 28 25 27 32 26 25 26 31 47 51 47
66 62 62 61 61 64 67 69 71 74 67 71 63 60 49 37 31 31 25 13 13 14 15 22 25 28 30 30 30 32 35 36 33 32 30 31 23 23 25 25 28 28 29 30 32
61 63 63 62 63 64 68 67 70 73 68 71 66 62 41 34 30 28 22 10 11 12 16 22 25 29 31 29 35 36 35 32 31 29 31 25 22 22 24 31 31 28 29 31 32
62 64 64 64 61 65 69 69 70 73 69 70 64 63 41 33 28 25 19 8 10 12 18 22 27 30 30 33 37 35 29 26 28 29 31 29 25 19 23 25 28 31 31 32 32
64 65 63 64 63 66 69 69 70 72 70 69 62 57 39 31 25 23 18 10 11 18 23 26 29 31 33 32 28 26 23 20 23 24 22 22 26 28 25 27 27 28 30 32 32
66 64 64 64 65 68 70 68 68 63 66 67 62 56 37 29 23 21 20 12 16 17 21 23 24 25 27 26 26 25 22 22 23 23 22 23 28 33 32 31 33 33 33 34 34
69 66 66 64 68 69 70 66 67 65 67 66 62 57 37 27 22 19 20 12 13 19 25 25 24 30 30 28 26 22 22 22 21 22 20 23 26 27 26 27 27 30 32 35 38
68 70 71 69 74 69 67 64 63 64 65 62 61 56 36 25 19 17 19 16 14 15 19 22 27 30 30 26 25 24 23 23 22 21 22 29 26 25 26 26 20 26 29 31 35
72 73 72 73 72 68 66 60 61 63 63 62 57 55 40 23 18 15 18 18 17 16 15 20 27 28 25 25 23 24 22 23 24 23 25 29 24 26 25 13 11 34 36 32 31
76 76 75 75 71 68 63 57 59 63 62 63 56 54 40 26 19 15 17 21 20 20 19 20 26 28 26 24 26 27 24 24 25 28 29 27 28 24 16 12 22 42 50 36 27
81 80 77 72 71 68 61 56 58 65 64 61 54 50 39 29 22 18 19 20 21 20 22 23 26 26 28 30 31 28 26 27 26 30 22 20 24 20 21 27 34 45 36 28 24
83 81 81 79 75 68 63 57 63 62 63 61 51 52 36 30 23 23 21 22 25 28 23 26 27 30 31 31 30 27 29 29 26 23 21 23 21 21 22 23 25 30 23 24 26
81 83 83 80 75 67 61 57 62 63 61 59 48 50 34 30 20 22 21 21 25 27 31 33 26 33 29 31 31 28 27 26 24 24 23 19 24 19 21 21 22 23 24 24 23
86 78 84 80 76 68 56 59 62 63 60 57 51 55 34 29 21 21 21 21 22 23 27 26 23 27 28 27 25 24 25 24 23 21 19 21 20 20 20 22 23 23 22 23 25
83 79 81 78 74 77 61 64 62 62 61 57 54 56 37 30 24 23 22 21 23 24 25 22 22 25 25 27 28 27 25 23 21 19 22 22 21 21 23 22 21 23 24 28 31
85 85 85 80 73 74 64 66 63 64 61 60 61 57 39 34 26 24 23 24 25 26 27 28 28 27 28 30 27 23 22 22 22 24 24 23 20 22 21 21 24 28 32 33 36
95 91 91 83 76 72 69 67 65 62 63 60 61 58 39 38 27 27 27 26 26 27 27 26 27 30 30 27 24 25 25 25 26 24 20 23 20 23 25 26 29 33 37 37 39
108 97 93 86 79 75 70 69 67 64 66 64 63 43 40 40 30 30 30 29 27 27 27 28 30 30 30 28 27 26 26 26 25 22 24 23 25 28 28 30 34 37 38 45 47
106 99 95 91 84 78 75 71 71 72 69 65 57 42 43 40 34 32 30 29 26 26 26 27 29 29 30 28 27 27 27 27 26 23 25 28 29 32 33 36 40 41 42 44 48
103 99 95 90 83 80 74 74 71 74 70 68 51 44 45 39 36 35 32 29 25 25 26 28 28 28 29 29 27 29 29 26 26 27 28 30 34 38 39 38 43 46 46 48 52

GFSSW_250_spd_027.txt.gz
Wind_Speed
50 54 56 56 58 59 63 64 63 67 65 68 72 75 78 78 69 58 46 40 31 30 32 35 34 34 34 35 37 32 32 41 47 43 26 32 30 31 25 24 36 20 9 21 31
50 55 56 58 60 61 63 62 64 65 65 69 71 77 79 74 67 55 46 36 28 24 25 25 26 29 34 38 39 39 43 44 36 27 30 32 28 24 18 24 35 5 12 18 36
51 55 57 60 59 63 60 61 64 64 65 69 72 73 75 75 68 53 43 36 28 22 20 19 21 26 33 37 37 44 43 35 23 28 29 36 38 39 35 26 23 31 42 32 38
55 56 60 58 62 63 63 63 63 64 66 68 69 70 76 70 63 51 42 36 30 21 15 15 20 25 33 39 41 40 37 31 27 34 48 42 48 45 39 34 27 48 43 36 33
56 59 59 63 64 64 64 61 59 62 64 67 67 67 74 68 56 45 40 35 28 19 13 13 20 22 32 42 41 43 35 31 33 53 49 47 43 44 41 39 34 45 47 38 40
56 57 59 63 63 64 63 60 59 62 64 67 69 70 75 65 54 43 40 34 25 15 12 9 15 20 31 39 37 32 30 31 41 48 45 40 39 44 52 45 37 31 56 49 46
55 56 57 63 63 62 64 58 59 61 62 66 68 71 71 59 46 40 38 34 24 11 9 10 13 18 28 36 29 25 32 31 35 43 44 44 37 19 21 31 27 37 53 55 38
58 58 64 63 65 61 62 58 58 60 62 66 67 67 74 58 45 37 35 34 22 8 6 8 15 25 32 36 35 35 33 31 32 43 47 42 44 30 24 15 21 25 42 53 56
56 59 63 66 65 59 60 58 57 57 62 65 65 66 70 59 46 37 33 32 18 6 7 8 18 31 34 31 33 32 35 36 36 34 38 42 29 30 28 34 31 33 37 47 46
60 62 65 64 62 59 60 57 57 58 61 62 66 64 65 59 43 34 31 30 15 7 7 8 18 31 29 31 32 35 42 39 37 33 30 25 27 29 34 29 25 28 28 32 35
64 69 63 62 60 61 59 58 55 58 58 62 63 61 61 60 43 35 30 28 19 11 6 11 17 27 31 35 33 35 36 34 34 30 26 30 31 28 25 20 24 26 28 30 35
68 68 66 64 61 59 57 57 57 56 58 62 59 57 60 60 41 33 27 24 19 13 10 12 22 26 31 31 29 35 30 29 29 30 29 28 32 25 24 20 26 28 28 32 32
67 67 68 64 60 57 59 58 56 55 58 59 56 53 56 60 43 34 25 20 18 10 11 12 15 22 23 26 25 27 26 22 21 23 24 28 26 27 30 34 26 26 27 30 33
65 65 67 59 61 61 57 60 56 56 55 59 53 52 53 58 44 33 24 18 14 11 15 14 15 18 21 20 18 20 19 21 21 21 25 25 25 27 31 32 30 30 31 31 33
69 71 67 62 65 61 63 56 55 56 56 54 51 48 49 52 44 33 28 17 13 11 11 16 16 17 17 18 20 21 20 21 21 23 26 25 23 25 27 29 24 28 31 26 16
74 75 68 67 66 62 63 59 57 55 59 51 47 45 49 48 42 28 25 18 14 15 15 12 16 19 21 23 23 23 22 22 22 22 24 27 23 23 26 24 27 29 33 29 21
77 77 73 71 73 64 66 60 54 57 57 51 47 45 43 44 42 31 23 24 14 17 18 15 14 19 20 23 23 22 25 22 22 24 30 25 27 25 25 22 18 26 33 28 24
81 79 79 77 75 71 67 64 53 60 61 51 48 43 42 40 43 42 24 22 21 16 19 18 15 17 23 24 24 29 27 24 25 27 29 30 28 26 27 25 25 30 29 28 34
85 83 81 81 77 73 68 59 57 66 55 50 48 42 38 40 41 48 32 22 22 21 19 26 23 24 26 26 29 29 27 27 28 30 26 25 30 17 24 26 25 31 28 32 30
90 85 84 85 77 77 67 53 58 61 53 53 49 40 41 40 38 47 34 26 18 19 20 26 31 29 28 26 28 27 29 28 26 26 28 27 24 22 27 21 22 29 33 35 37
94 86 88 89 81 75 62 60 64 62 57 55 55 46 44 43 38 40 30 27 20 18 21 27 32 35 28 27 33 33 31 29 26 26 27 25 24 27 27 23 18 22 24 27 30
96 87 92 90 84 76 67 65 68 60 55 55 57 52 46 44 40 33 26 25 23 19 22 23 24 26 25 25 26 30 27 25 23 23 26 27 26 27 22 21 21 20 26 29 31
97 97 96 94 85 71 67 68 69 59 56 55 55 53 50 50 42 35 29 27 25 22 24 25 26 25 23 26 23 24 24 24 25 27 28 27 25 23 22 22 24 28 29 30 31
95 101 101 93 79 71 68 66 68 61 52 54 56 50 50 51 46 41 31 28 27 25 25 27 28 28 28 28 25 28 26 28 28 31 27 30 20 25 23 23 26 31 33 34 32
97 92 85 82 71 66 68 65 67 54 54 56 56 53 51 51 43 35 30 31 30 25 24 27 29 28 29 30 28 28 28 30 30 33 27 27 26 25 24 26 31 33 37 39 43
93 89 86 84 82 72 68 61 62 56 57 58 57 58 55 50 47 44 30 35 32 27 28 28 28 28 29 29 28 30 32 33 33 30 27 27 26 28 27 32 35 37 36 37 42
93 98 93 88 81 77 65 69 62 59 60 62 61 59 56 55 48 49 34 35 33 31 28 28 29 29 31 32 32 35 34 32 31 27 28 28 27 31 35 34 36 40 44 47 49

GFSSW_250_spd_030.txt.gz
Wind_Speed
53 57 55 50 47 47 52 57 58 61 65 65 59 62 68 71 72 77 81 63 52 48 38 31 27 27 30 26 28 32 35 46 34 29 26 32 38 41 44 42 43 46 31 26 25
54 58 56 49 47 48 55 58 57 62 65 62 60 62 67 71 73 79 76 60 50 45 36 25 24 25 25 22 32 35 36 32 29 21 19 29 32 37 41 37 37 29 31 22 28
55 59 56 52 49 51 56 59 59 62 64 63 59 60 66 70 71 79 72 57 48 43 34 22 22 23 24 23 39 41 41 30 22 18 26 27 31 32 36 34 36 40 34 26 29
56 59 63 56 54 54 52 58 59 60 61 60 60 60 65 68 71 77 68 53 47 40 30 20 18 23 26 26 45 44 36 31 23 19 29 34 40 33 32 32 36 29 37 27 31
56 55 62 57 53 53 54 56 58 60 61 61 59 62 66 66 69 71 62 50 45 36 23 17 16 18 17 18 38 39 39 30 22 27 33 40 38 36 30 31 42 39 36 35 29
57 58 56 59 54 54 49 51 56 60 61 59 58 61 64 66 66 70 59 47 41 30 18 15 11 14 17 24 37 39 35 33 23 31 39 37 43 42 34 41 42 44 40 40 38
59 57 56 54 54 53 51 55 55 58 61 57 57 59 64 65 63 67 56 45 37 26 18 13 10 10 16 35 32 33 24 24 27 33 37 39 44 40 34 49 45 36 45 46 45
63 58 58 60 57 52 51 53 55 57 56 55 56 58 62 62 61 64 53 41 35 26 21 13 8 9 19 36 31 30 29 29 38 39 36 44 42 39 32 49 44 36 33 49 42
63 58 54 57 52 47 50 51 55 58 56 53 54 56 60 60 58 62 50 38 33 27 23 14 12 10 18 36 31 32 30 32 40 41 40 39 35 31 24 29 37 44 40 44 45
62 62 62 54 52 51 52 54 57 60 54 51 51 54 56 58 56 57 48 38 34 27 23 16 9 12 22 33 28 28 34 36 37 41 42 43 37 33 29 28 28 31 38 41 48
62 64 61 59 57 56 56 55 59 56 53 49 49 52 54 56 52 53 45 34 30 24 21 19 8 18 24 29 29 29 28 32 33 36 43 41 37 30 28 30 32 35 37 40 44
60 59 59 60 58 59 57 54 57 54 50 50 48 49 53 52 49 52 45 34 26 22 19 18 12 16 21 20 22 26 27 30 35 30 34 39 34 32 29 31 32 33 33 31 33
58 58 62 61 60 58 55 54 54 52 49 49 49 49 52 49 47 45 44 32 23 19 18 15 13 10 18 20 21 22 26 28 28 28 30 30 28 33 34 31 30 29 29 34 35
62 63 65 63 62 61 60 55 54 51 50 48 49 49 49 46 45 39 42 34 22 17 14 14 13 8 12 18 22 25 25 32 31 29 32 32 31 30 32 30 31 33 31 29 29
69 68 68 67 68 65 58 56 54 51 47 50 48 47 49 43 44 39 39 31 21 17 13 10 11 15 13 18 23 24 24 26 27 25 26 26 28 24 25 28 31 36 37 37 37
74 73 72 70 72 65 62 60 58 51 51 53 51 49 50 48 40 37 39 37 22 17 16 12 10 10 14 17 19 23 24 23 24 27 25 23 27 28 27 27 31 33 32 33 36
77 76 75 72 74 68 67 61 58 51 54 53 50 49 48 45 36 35 37 40 25 20 18 15 9 9 13 16 17 19 22 21 23 27 26 24 25 27 29 29 32 33 27 30 32
88 83 80 77 75 71 70 65 55 54 59 54 47 48 49 42 34 35 35 35 33 24 21 20 13 12 11 16 17 23 22 25 26 26 25 26 25 27 30 31 33 31 27 24 26
96 87 82 85 76 74 71 61 55 58 63 54 47 47 46 42 36 37 37 35 31 24 24 23 23 15 18 18 23 23 28 27 26 29 29 26 25 27 29 30 29 28 24 23 23
95 88 87 90 80 80 74 58 55 64 65 55 49 48 48 43 38 40 39 34 34 30 22 23 24 23 20 22 23 25 28 28 28 30 31 26 26 27 28 27 24 29 26 25 26
96 92 89 94 84 83 67 58 57 67 65 57 51 50 48 45 38 31 38 36 38 34 24 23 21 22 22 21 25 28 29 28 30 33 33 30 28 27 25 24 22 25 25 23 23
100 96 92 93 88 80 70 64 65 71 67 61 56 53 50 43 34 36 35 37 35 33 26 23 23 20 19 21 26 31 34 31 33 32 32 31 26 25 26 21 21 22 24 24 25
108 104 97 98 88 78 72 69 70 75 65 58 58 58 46 43 42 36 34 35 33 27 27 24 29 20 18 19 19 22 22 22 25 26 28 29 26 22 26 21 20 23 23 25 29
116 112 103 103 84 83 78 76 73 74 66 59 59 57 51 46 45 38 37 38 31 28 25 24 28 24 21 19 19 22 22 24 23 28 30 30 29 24 26 19 22 26 27 28 29
117 111 99 94 83 83 79 74 71 73 65 60 60 54 52 44 45 38 37 37 37 33 25 24 28 26 25 23 21 24 29 29 29 31 31 28 31 25 22 22 23 29 30 30 32
115 106 99 93 95 91 86 74 76 76 67 58 60 56 52 49 41 36 39 41 38 37 27 24 28 27 26 25 23 26 30 27 28 29 30 32 30 27 20 26 31 32 32 33 35
105 104 100 99 99 92 82 77 74 75 66 63 59 55 50 48 42 46 48 46 42 39 29 26 30 28 28 26 25 28 31 29 32 31 30 31 27 28 29 31 31 33 37 40 42

GFSSW_250_spd_033.txt.gz
Wind_Speed
61 60 58 56 53 51 56 58 54 53 54 59 61 63 65 69 73 73 79 81 78 69 60 54 48 38 29 28 23 26 31 28 25 24 23 27 30 35 41 48 51 47 43 37 34
62 60 60 59 56 52 55 58 56 53 54 61 60 63 65 68 73 72 79 81 77 64 59 53 45 33 26 26 23 25 30 25 22 19 21 27 31 34 40 46 47 46 36 30 33
62 61 59 55 55 54 53 54 57 55 60 58 60 61 64 68 72 72 79 79 76 63 58 49 37 26 22 21 20 27 26 19 20 19 21 24 32 35 40 42 42 46 42 34 31
61 62 59 57 55 54 51 53 54 57 56 58 57 63 61 67 70 70 77 77 75 61 54 43 27 22 16 13 15 23 26 17 23 19 21 26 30 36 34 37 40 36 34 36 38
57 59 61 60 56 54 52 51 53 56 53 57 61 61 59 68 69 67 74 74 73 57 48 36 27 19 15 18 15 26 27 22 22 18 19 25 28 31 34 31 37 38 38 33 33
59 61 59 59 56 55 55 48 51 55 57 57 59 58 61 66 66 65 71 73 68 51 44 31 26 17 11 14 15 30 33 27 20 23 22 26 28 24 29 36 39 45 39 29 33
61 58 58 55 57 56 56 50 52 57 51 50 52 54 62 65 61 64 69 69 64 48 43 28 27 15 10 12 16 30 32 25 27 27 20 23 30 33 39 40 36 42 46 44 35
64 61 61 62 58 56 54 52 50 50 46 46 51 54 61 62 59 62 66 65 62 46 42 28 26 18 10 11 20 33 31 31 32 22 22 31 38 40 38 36 35 40 49 53 43
66 65 62 61 59 58 56 55 53 47 49 47 51 54 56 56 55 60 64 63 60 42 40 25 28 20 10 11 25 30 26 28 33 25 25 32 36 43 40 41 40 43 54 45 49
60 60 58 57 57 58 55 53 54 54 48 50 51 51 51 51 53 57 61 60 60 38 36 23 24 22 7 20 19 17 20 20 23 23 26 31 34 40 44 31 39 40 34 48 43
59 61 56 54 52 54 55 53 52 50 48 49 51 53 49 49 49 54 56 57 58 39 35 24 24 21 7 22 21 19 22 23 25 28 31 35 32 31 36 38 27 38 34 33 38
62 61 57 54 52 52 51 51 49 50 49 45 47 48 47 45 47 51 56 58 54 39 33 24 21 20 6 9 22 18 19 22 25 29 28 34 35 34 35 31 40 40 38 36 36
62 56 58 57 53 52 51 50 51 52 46 41 47 45 43 41 46 49 55 57 52 41 27 23 15 17 9 7 12 16 20 24 27 27 31 31 36 39 34 32 31 34 38 38 40
63 60 54 53 54 55 51 51 52 51 46 45 43 43 41 43 47 48 51 50 51 42 25 20 12 12 11 10 16 15 19 19 24 30 30 25 29 29 30 27 31 32 33 36 38
73 65 60 55 57 57 55 56 55 53 45 47 44 45 43 44 45 44 47 45 49 41 25 17 12 8 14 11 12 13 21 21 22 32 32 30 29 29 27 30 31 35 33 32 35
82 76 66 62 63 60 59 60 57 54 48 48 47 45 45 43 44 41 45 40 43 43 29 19 11 8 10 9 14 14 18 21 23 29 28 27 27 29 33 30 29 32 37 38 39
88 81 77 70 66 64 65 65 60 54 52 52 49 46 44 45 43 42 43 41 41 44 35 20 14 11 9 10 12 17 20 23 24 27 25 24 24 23 28 31 28 29 33 36 36
92 87 81 79 72 68 68 66 58 51 55 54 54 47 47 45 42 41 43 44 39 37 40 23 16 15 16 11 13 16 20 26 26 23 22 23 26 23 27 29 33 33 33 35 38
100 93 87 84 82 79 74 68 57 59 61 55 55 45 49 48 44 43 42 45 35 35 37 29 19 15 19 19 16 18 21 26 28 27 24 24 26 28 28 29 31 30 31 34 35
105 102 92 94 90 86 75 65 62 63 63 57 51 45 49 47 46 43 42 42 32 30 34 31 23 18 19 24 21 17 20 23 27 25 23 25 28 32 31 31 29 28 31 29 27
111 110 102 103 98 93 77 69 67 73 69 62 54 45 49 46 48 46 47 41 32 30 29 31 22 21 19 22 22 20 20 21 23 28 26 27 29 32 30 30 32 29 27 26 27
109 109 103 109 104 90 80 73 73 78 73 65 56 49 50 50 49 46 49 43 34 29 30 30 27 21 18 18 22 26 26 26 28 28 30 32 31 30 28 29 28 23 24 26 27
112 106 106 113 109 90 84 80 77 78 72 68 60 49 50 49 48 48 47 45 40 30 28 29 30 25 19 18 21 22 24 24 27 30 27 23 28 20 22 26 23 24 29 28 26
116 115 106 113 96 90 86 80 76 79 74 68 63 54 52 53 48 50 50 47 43 35 27 28 29 27 23 19 18 23 24 23 22 23 21 22 20 18 21 25 26 28 29 31 29
117 115 104 96 87 82 79 79 80 80 69 64 60 54 54 55 50 52 51 48 41 35 31 30 31 27 25 21 21 23 26 25 23 23 21 23 21 26 22 25 30 32 33 33 28
112 107 102 93 93 87 84 76 76 79 71 64 60 59 60 57 54 54 53 50 43 37 38 35 31 29 25 22 23 26 27 27 20 21 23 22 24 25 24 28 32 34 34 30 30
97 105 102 95 94 89 78 78 78 83 76 68 66 62 61 54 54 55 52 48 44 39 36 35 34 30 28 22 21 26 30 24 23 23 25 26 29 28 29 29 33 32 31 32 35

GFSSW_250_spd_036.txt.gz
Wind_Speed
64 64 62 62 62 60 62 61 59 60 58 56 56 59 66 65 67 71 78 80 84 90 86 75 62 56 46 35 26 23 20 16 17 16 17 23 28 36 37 37 40 38 47 46 44
63 64 64 63 63 64 61 57 56 57 55 53 53 57 65 63 66 71 75 77 84 87 79 72 60 52 41 28 21 20 16 14 15 15 14 21 25 31 36 39 42 42 40 38 44
52 56 55 58 57 55 57 55 55 54 56 52 52 55 61 63 68 71 73 76 82 81 76 69 59 47 38 28 16 11 10 11 13 16 18 17 20 28 32 37 41 40 35 26 22
57 62 51 49 50 52 52 53 54 57 55 52 51 53 60 62 65 69 68 76 81 79 73 63 56 44 37 27 25 7 8 13 12 18 15 12 22 25 30 36 46 45 39 28 25
53 54 49 53 54 47 48 51 53 58 53 55 50 52 57 59 61 66 69 74 77 77 72 61 53 42 34 19 13 7 12 12 13 16 14 23 25 28 32 35 40 44 38 39 31
65 61 61 57 59 56 55 53 53 54 52 53 49 50 48 51 57 64 68 70 74 74 70 61 53 38 26 11 5 11 17 15 16 17 22 26 22 21 25 32 32 36 40 35 32
59 64 69 67 49 55 58 56 57 53 52 51 47 51 49 53 56 63 66 68 69 70 67 60 52 36 23 11 3 11 19 20 19 23 21 19 14 19 23 26 29 36 30 34 32
59 58 52 54 59 58 58 56 57 55 52 51 50 50 53 52 54 61 62 63 66 68 66 58 48 34 26 15 10 17 22 18 17 13 11 13 19 26 28 29 28 31 42 41 39
53 54 53 54 56 55 56 55 53 53 53 49 47 50 49 48 54 57 57 59 62 67 67 54 42 30 23 11 4 19 20 16 18 18 15 14 19 27 29 26 29 29 50 48 41
55 50 54 56 57 57 56 54 53 49 52 48 45 43 44 49 51 53 53 55 60 63 66 51 38 27 19 7 1 6 12 14 20 21 12 17 21 28 27 24 28 30 53 46 41
58 52 47 48 53 53 51 52 47 46 49 44 44 42 44 45 48 50 50 51 57 61 62 50 35 28 19 8 4 3 5 11 8 19 17 19 22 31 32 28 27 28 43 48 39
64 58 56 53 53 53 52 53 47 48 42 40 40 38 39 40 44 46 48 50 55 59 60 50 33 29 18 13 10 8 7 10 12 14 17 18 23 23 30 33 28 27 26 31 28
67 65 62 58 50 52 52 53 51 46 33 44 40 38 38 39 44 44 47 48 51 56 55 47 33 29 18 13 7 12 12 13 15 16 19 20 23 23 24 25 29 40 37 38 36
76 74 66 66 61 54 53 54 53 45 41 43 40 37 40 40 43 43 46 47 48 53 53 48 34 26 21 9 10 10 10 13 14 15 19 21 25 25 28 32 30 26 27 36 36
90 81 71 68 70 64 57 55 50 44 39 44 40 39 39 39 41 42 44 44 45 49 50 49 40 25 22 12 5 11 12 16 16 18 20 22 25 22 27 34 34 33 34 36 37
96 88 81 81 74 71 65 59 53 47 43 47 42 41 38 37 39 42 44 42 43 48 50 50 43 29 23 17 11 10 14 15 21 17 19 19 25 26 24 26 27 27 33 33 36
103 102 98 92 90 78 71 69 61 47 51 47 45 43 40 39 43 42 44 41 43 48 47 50 45 33 23 20 14 12 15 18 20 20 20 23 23 23 24 23 27 32 32 30 31
103 103 105 94 92 81 76 72 62 52 54 50 48 49 47 40 40 41 44 41 41 44 44 48 46 34 21 20 18 14 15 17 20 19 20 22 25 24 23 22 21 22 27 32 33
102 99 95 98 106 100 95 82 66 63 60 58 56 49 44 41 41 40 43 41 37 42 44 46 44 37 24 19 20 16 13 16 20 21 19 20 21 21 22 25 26 25 28 31 35
99 101 94 98 101 95 92 73 71 71 66 60 56 49 45 42 41 39 41 41 40 43 44 44 43 39 29 21 18 17 16 15 19 22 25 25 25 28 24 28 30 30 33 35 36
101 98 94 100 102 96 77 70 70 72 72 64 58 51 47 43 45 42 43 43 41 41 44 40 43 42 34 23 18 17 22 21 17 20 25 28 31 31 32 31 33 34 34 33 35
99 92 97 101 104 88 77 72 72 76 72 68 60 55 51 50 48 48 45 44 41 44 47 42 43 42 39 26 22 19 21 23 27 29 30 29 35 33 34 36 37 37 36 33 30
99 94 101 105 102 83 81 79 80 79 75 70 64 60 57 53 51 52 49 45 41 43 46 44 44 41 41 30 23 18 19 20 24 28 30 30 34 32 36 38 39 33 32 29 28
101 102 104 103 91 89 87 83 80 82 79 72 67 65 62 55 55 52 49 48 45 45 44 45 43 38 37 31 23 19 20 21 20 21 23 27 28 24 25 28 27 28 31 28 30
101 101 96 89 87 85 88 84 82 83 81 78 72 67 64 58 56 54 50 51 48 46 45 44 44 42 40 33 27 22 20 20 22 25 25 30 26 26 27 28 29 32 35 33 33
95 92 92 85 93 93 89 84 82 84 82 77 73 70 64 57 57 58 53 53 49 45 45 43 46 40 39 34 29 22 25 24 24 23 23 29 30 31 30 29 29 31 34 38 37
84 86 86 83 90 94 81 82 81 85 81 77 73 69 62 60 63 60 54 51 49 45 44 45 46 45 41 35 28 25 29 23 20 21 23 27 32 31 30 30 30 32 37 39 40

GFSSW_250_spd_039.txt.gz
Wind_Speed
64 61 61 61 58 58 53 55 55 56 55 57 53 53 54 57 58 56 60 63 68 77 80 82 86 82 65 54 46 32 20 13 14 13 13 17 20 28 35 40 41 40 42 44 45
59 57 56 64 57 57 50 49 46 46 50 52 48 53 51 56 59 59 59 62 67 76 79 81 83 83 65 54 44 26 19 13 7 7 10 15 17 21 29 35 38 39 38 43 37
56 54 53 58 57 50 56 57 49 49 48 49 47 49 50 56 56 59 61 62 67 73 76 80 80 82 64 55 38 18 19 10 8 9 13 13 16 18 26 30 33 37 38 33 38
50 58 57 62 57 60 54 50 47 48 50 48 47 49 54 51 54 59 58 60 67 70 74 74 78 78 62 53 30 13 11 8 10 13 13 11 12 16 21 22 27 31 28 28 32
55 55 54 55 56 55 48 45 48 47 52 53 49 48 54 52 55 55 56 60 63 68 71 72 76 74 60 54 26 9 8 10 11 10 11 10 14 20 24 30 37 39 34 32 31
47 53 56 53 55 55 56 53 49 51 53 53 51 49 53 53 51 53 54 54 58 65 66 70 74 71 58 51 19 12 4 9 6 15 15 17 13 18 25 29 36 39 35 33 32
43 46 48 52 50 51 52 55 61 58 56 55 53 50 50 51 51 51 51 50 57 61 64 68 72 66 58 53 20 12 7 10 13 16 17 21 19 19 19 24 33 33 37 33 27
41 43 47 46 51 52 51 50 52 52 55 53 50 48 50 52 51 47 47 50 52 57 59 63 68 64 53 49 20 9 4 11 7 12 16 15 14 13 15 21 24 28 41 38 29
48 45 44 49 47 50 51 47 43 45 47 49 48 46 53 49 48 42 45 44 48 53 56 60 62 61 50 43 17 3 9 9 11 15 15 11 2 7 16 16 21 30 31 34 36
58 54 52 48 50 47 45 46 45 47 50 50 47 50 49 47 42 37 39 40 46 51 54 57 56 57 45 40 15 7 6 5 5 10 7 5 9 11 17 19 19 21 23 28 32
70 60 57 51 52 51 47 42 43 44 46 46 47 42 40 38 33 33 36 39 45 47 53 53 53 53 43 35 18 9 6 1 2 13 11 7 11 12 17 22 19 21 15 20 38
80 75 64 62 52 55 57 44 42 44 43 44 42 45 36 33 31 31 34 37 42 43 49 49 52 53 48 32 18 8 1 2 3 2 15 11 12 13 17 19 20 21 23 16 22
92 84 81 76 73 65 63 56 49 44 39 44 41 43 40 40 33 31 32 37 38 42 47 46 51 51 47 30 21 7 5 5 6 9 12 15 14 16 14 20 23 19 21 24 22
98 92 90 93 79 68 61 65 56 49 39 41 37 40 36 40 31 31 31 35 37 42 44 43 49 51 47 33 25 12 5 9 13 14 14 11 13 18 19 15 16 21 24 26 30
102 99 92 83 80 74 70 70 62 53 43 43 41 40 36 36 29 31 32 35 36 41 40 40 45 48 46 41 20 22 9 9 12 12 11 12 14 21 21 17 20 26 25 23 22
103 97 92 83 80 78 71 70 66 56 48 44 41 41 39 38 28 32 32 34 37 37 37 38 41 45 45 43 24 17 18 10 11 15 14 15 16 19 19 17 21 27 32 30 30
103 101 94 93 92 88 78 77 67 59 52 51 47 47 46 39 33 33 36 37 35 36 35 36 37 44 43 40 31 20 19 17 12 14 17 19 18 18 21 23 22 25 27 29 30
105 101 94 87 94 94 85 86 77 60 58 55 49 51 46 45 32 37 38 40 35 35 35 35 37 41 42 36 40 24 18 19 18 17 18 20 20 21 22 23 23 24 26 25 27
107 105 95 90 96 93 88 88 74 70 69 61 55 54 48 43 35 42 43 38 34 34 34 35 37 40 42 40 34 27 21 17 17 18 19 20 23 23 25 27 26 26 26 26 24
104 102 96 95 97 97 89 77 76 75 73 67 60 58 58 51 44 48 45 40 33 35 36 36 38 37 40 43 36 35 23 21 19 17 19 21 24 26 23 24 26 28 29 31 30
102 102 94 98 101 99 80 73 77 79 79 73 66 62 63 57 51 49 46 41 36 36 37 38 39 36 38 43 38 36 27 23 20 22 20 22 29 30 29 30 31 33 33 35 35
98 97 95 103 106 91 74 70 82 83 85 81 72 70 66 62 59 51 49 42 40 37 39 39 38 37 38 40 38 36 33 23 23 22 27 27 34 28 31 33 35 38 38 38 38
89 90 101 111 102 85 70 73 83 84 84 85 80 74 69 67 61 57 51 46 42 41 40 41 37 38 36 38 41 36 36 27 26 21 26 31 38 30 31 34 36 37 40 43 42
91 94 105 109 86 80 77 73 81 82 83 84 82 76 71 68 61 62 56 49 45 44 42 41 40 38 37 37 40 36 34 28 28 26 22 26 32 32 31 30 32 36 40 42 40
93 91 97 87 82 76 73 75 81 84 85 84 82 78 70 69 64 59 58 55 48 47 46 41 42 39 38 36 40 37 35 35 29 31 26 27 26 29 26 26 29 31 33 37 35
88 86 86 79 78 82 78 77 78 85 84 82 79 77 73 69 65 63 61 56 53 50 45 41 39 38 37 36 40 37 32 33 27 30 26 23 27 33 30 29 31 33 36 40 41
77 82 76 77 82 81 74 78 79 81 82 82 82 81 75 73 69 66 62 58 54 50 47 43 43 41 38 36 39 40 33 32 29 25 28 24 29 31 30 29 30 30 34 37 40

GFSSW_250_spd_042.txt.gz
Wind_Speed
59 59 56 55 54 58 63 61 60 55 54 52 47 44 45 44 46 47 53 58 62 63 65 70 73 74 72 78 62 52 42 32 25 22 18 18 19 21 26 29 36 41 43 41 40
53 56 57 57 55 54 53 50 54 54 50 49 51 50 47 45 49 50 55 56 59 62 64 69 72 70 72 75 59 44 34 27 22 20 13 12 16 14 19 23 25 31 39 40 40
44 41 46 50 50 53 50 48 47 50 51 50 46 46 47 45 50 53 52 55 58 61 64 66 67 68 73 70 57 48 31 21 19 12 10 14 12 7 15 22 27 28 31 34 32
42 44 44 43 42 44 45 49 53 54 51 48 47 44 42 43 48 49 51 53 57 62 61 63 62 67 72 65 56 47 25 18 12 12 11 14 14 10 13 17 20 25 26 26 28
44 43 46 44 44 42 44 50 47 50 49 48 41 44 46 50 49 47 49 51 55 61 58 56 60 64 69 58 54 43 23 10 5 9 10 6 8 15 21 22 26 29 22 23 23
45 42 40 41 39 44 48 48 46 44 43 46 48 53 54 51 47 47 46 50 54 57 53 52 56 62 64 55 52 37 15 4 2 6 9 9 9 18 23 31 36 33 29 29 25
53 50 43 43 39 40 36 39 43 43 41 44 51 48 49 47 44 46 46 50 52 53 49 49 52 59 62 55 50 31 6 2 4 5 5 10 12 17 22 26 35 33 32 30 28
57 51 48 42 34 31 34 35 38 42 44 44 48 45 37 40 43 45 45 49 47 46 45 45 49 56 57 53 46 32 1 8 6 3 8 11 17 15 15 24 33 33 31 30 28
61 58 47 43 39 36 32 32 38 39 44 44 44 38 38 40 44 44 45 44 40 39 42 43 47 52 54 48 41 34 5 7 5 5 8 7 6 12 13 19 26 33 35 33 23
65 65 56 48 45 41 38 37 38 40 39 39 40 40 40 38 41 39 41 36 32 37 39 40 46 48 52 45 36 31 7 3 5 6 9 5 6 2 9 17 20 28 36 36 34
68 66 58 54 53 56 45 42 37 38 37 36 37 37 38 36 37 40 37 33 28 34 39 39 45 46 48 43 36 29 11 3 4 11 10 5 4 7 8 17 22 24 23 29 38
74 68 66 65 62 58 56 43 43 37 41 38 39 38 36 35 36 34 36 36 28 33 36 38 44 43 45 43 39 24 14 4 2 4 14 10 8 8 7 13 22 28 16 19 18
78 74 72 69 70 64 65 61 51 45 43 47 41 40 38 36 36 36 36 28 26 32 35 35 41 40 42 43 41 24 18 10 5 4 7 10 10 12 8 9 21 28 26 23 22
83 83 80 76 74 74 72 71 65 60 53 53 53 42 32 33 34 35 34 30 23 30 34 34 37 38 39 42 35 26 19 14 10 11 13 15 14 14 14 11 16 24 25 29 21
92 96 92 86 84 84 82 78 71 71 64 55 54 46 45 36 38 35 32 30 22 30 32 33 34 36 37 40 36 37 22 18 13 12 11 12 11 11 15 13 13 18 21 21 22
99 100 99 95 93 95 91 87 82 77 68 60 59 57 51 41 38 37 33 32 21 29 33 33 33 34 37 39 38 32 28 18 17 15 15 14 12 12 14 19 18 17 18 21 23
114 111 110 107 103 102 101 96 93 80 71 60 60 60 59 46 40 41 36 30 25 29 34 31 29 31 35 38 36 32 33 22 17 17 17 20 18 13 13 15 18 18 21 23 26
113 114 112 107 117 112 111 108 98 80 69 64 62 63 58 49 42 43 40 33 33 31 37 31 28 28 33 36 40 35 29 28 20 18 19 23 22 17 18 18 20 22 23 26 29
111 108 108 105 108 118 113 107 86 77 70 64 63 64 61 52 48 45 44 38 37 34 38 34 26 27 31 35 39 38 31 32 26 22 19 21 25 21 22 21 23 24 25 25 24
106 108 103 107 109 111 112 94 82 74 72 72 71 67 64 56 52 48 48 42 40 33 41 37 29 27 30 33 36 38 33 29 31 24 23 22 25 23 22 24 24 26 26 27 28
106 105 101 109 115 117 107 83 84 78 80 75 75 73 73 62 58 47 48 47 44 37 37 37 32 28 30 33 36 38 35 34 29 28 25 25 27 27 25 25 26 26 29 30 30
101 100 98 111 120 108 94 81 80 80 86 82 81 79 71 67 63 56 53 54 49 44 38 39 36 31 30 32 35 37 39 36 29 28 25 28 32 32 28 29 32 33 34 35 37
93 96 102 113 113 98 84 87 84 82 83 81 83 83 76 73 67 59 61 62 51 47 45 48 40 36 31 34 35 37 36 38 34 26 28 25 30 29 27 34 35 35 36 38 40
87 94 101 106 97 91 85 87 85 83 86 84 86 89 80 75 72 68 67 63 58 53 50 51 43 41 34 34 36 35 37 36 36 30 29 27 29 28 29 30 36 38 39 40 39
80 85 87 89 93 85 85 81 83 83 84 83 88 86 83 80 74 69 70 65 63 57 52 54 44 44 39 36 36 35 37 35 34 29 29 33 28 31 27 29 30 32 32 33 32
71 73 76 81 89 85 84 79 81 84 87 81 85 87 84 80 79 75 72 67 65 59 55 54 45 46 42 37 38 36 40 35 34 31 28 31 36 34 33 34 33 32 33 35 36
59 69 71 73 83 82 80 81 81 85 88 84 87 89 83 79 84 79 77 71 64 60 58 54 47 47 43 38 38 39 39 37 38 33 30 26 32 32 34 35 34 33 32 33 37

GFSSW_250_spd_045.txt.gz
Wind_Speed
48 52 59 58 57 58 59 56 55 53 53 55 56 54 56 57 55 49 48 51 51 53 54 55 59 61 67 70 69 68 59 49 32 28 24 23 23 23 23 22 26 26 28 34 34
51 53 50 50 51 52 54 55 52 51 51 47 49 44 43 44 48 46 47 50 49 49 54 56 59 60 66 65 69 65 55 44 28 23 22 16 14 15 16 10 17 23 28 37 36
52 43 40 39 42 41 40 43 44 46 47 46 46 43 47 47 40 44 44 45 49 49 50 52 58 59 62 62 68 62 53 40 27 20 15 9 11 4 5 14 23 24 26 30 28
52 47 46 38 38 39 41 38 39 39 40 36 41 47 45 42 45 39 43 49 46 45 48 51 58 58 55 60 62 56 51 36 18 12 13 12 13 13 23 17 36 33 27 19 24
54 51 48 47 39 38 38 42 41 41 38 44 45 43 40 41 41 42 45 44 39 43 48 53 53 53 52 57 58 48 47 29 15 11 4 3 6 5 15 30 31 20 16 22 22
57 55 53 48 43 41 33 35 36 40 41 42 41 39 36 35 42 43 43 36 40 44 47 49 46 48 49 56 54 43 42 22 10 6 5 6 4 8 12 20 28 28 25 24 24
60 58 52 47 48 43 40 37 39 37 37 39 36 35 34 37 40 40 36 35 40 43 46 47 43 43 48 53 52 39 38 16 7 9 11 27 17 6 13 22 29 33 31 30 25
64 61 57 54 51 48 47 39 38 37 30 33 34 35 34 35 39 34 34 35 38 41 43 41 40 42 47 49 50 37 31 5 8 8 9 26 13 15 16 26 31 33 26 26 22
64 65 59 58 57 52 50 43 38 33 29 27 29 25 34 36 34 34 35 37 37 37 37 36 37 40 45 45 48 35 26 9 5 2 5 6 16 9 9 24 26 27 25 24 21
67 62 61 61 62 57 54 47 43 37 34 27 26 25 29 28 30 32 31 30 34 35 35 33 34 37 43 44 47 33 24 15 6 3 2 5 5 8 10 17 30 27 29 21 24
71 73 69 62 64 66 61 56 50 43 42 33 31 26 26 25 24 28 28 30 31 34 34 29 34 38 40 42 44 36 21 14 11 13 13 7 8 7 6 12 18 28 29 27 19
78 77 78 69 66 70 67 62 56 50 44 43 35 33 30 23 25 30 31 33 34 33 33 28 32 34 38 39 41 34 22 16 10 10 16 15 10 5 3 14 20 21 32 25 28
85 83 83 79 72 70 70 66 62 56 53 50 44 36 31 25 31 32 33 31 32 31 33 27 32 33 37 36 38 36 31 14 14 10 6 10 13 8 7 10 21 23 30 27 29
87 82 81 78 75 63 69 69 65 62 58 55 50 40 37 37 36 35 27 26 27 29 29 26 33 34 37 34 35 38 29 20 12 13 16 15 14 13 11 9 18 25 27 27 25
94 89 82 80 75 78 66 75 70 66 62 65 54 51 44 46 36 42 40 33 30 29 30 27 29 36 37 32 33 36 34 24 14 12 16 14 12 13 12 11 12 22 34 30 31
90 88 88 90 87 85 83 81 81 76 62 59 64 58 53 48 43 47 41 40 33 29 30 26 29 35 37 33 32 34 36 28 22 14 12 14 13 12 13 16 17 15 26 37 36
100 97 96 99 98 98 95 89 90 75 70 71 70 63 58 53 51 46 47 46 43 35 34 27 29 35 38 34 31 33 35 34 28 22 16 13 16 17 21 20 22 24 23 24 32
113 108 107 103 108 104 104 102 96 73 78 77 76 70 62 55 53 47 53 52 47 40 39 33 29 34 38 35 33 31 34 35 35 28 22 18 14 19 25 23 24 23 25 23 24
115 115 112 112 115 112 111 114 85 80 84 80 76 73 68 58 56 54 54 53 52 47 40 39 32 34 38 36 34 31 33 35 33 35 28 23 20 17 20 24 26 27 25 27 29
109 111 112 116 121 126 125 115 92 92 91 85 84 80 77 69 67 57 55 56 50 47 48 43 39 34 38 36 32 30 32 34 37 35 34 26 21 19 20 22 26 29 30 30 31
106 104 107 113 123 134 126 112 99 100 98 94 92 85 86 76 67 70 66 59 54 50 50 47 37 35 32 33 32 32 30 34 38 36 35 28 25 20 20 25 25 29 32 33 33
101 98 104 111 119 121 119 104 104 109 110 106 102 91 84 77 75 71 67 61 54 52 50 50 50 38 38 36 36 33 33 35 36 38 36 31 27 22 18 20 27 29 32 33 36
93 96 99 110 107 105 104 98 99 99 102 100 101 95 87 79 80 69 69 68 61 53 63 53 51 48 41 37 40 35 36 38 36 37 38 35 30 23 20 17 21 27 33 35 36
85 88 94 94 93 96 99 90 95 98 99 98 91 93 88 82 77 73 72 73 67 54 60 58 54 47 42 41 43 35 39 40 34 38 40 36 34 27 23 18 22 24 26 30 33
80 73 75 76 79 81 88 85 89 91 92 93 89 87 85 84 82 81 77 77 71 59 59 55 53 51 48 43 42 39 40 38 37 38 40 39 38 34 26 25 23 23 27 30 34
74 67 66 68 76 78 84 84 85 87 95 92 89 88 87 87 88 90 85 80 75 64 66 65 64 63 55 48 45 45 44 41 36 39 39 40 39 36 32 27 26 24 25 29 33
63 63 66 67 68 73 71 73 77 86 86 92 95 98 93 88 92 92 90 85 80 72 67 68 68 67 55 51 47 40 46 43 37 39 40 40 39 38 36 29 27 27 26 29 33

GFSSW_250_spd_048.txt.gz
Wind_Speed
56 54 48 49 48 48 50 54 57 59 59 55 54 51 49 45 42 42 45 50 46 42 42 43 49 53 52 57 60 62 63 58 53 43 27 13 6 15 19 8 13 4 35 31 42
55 52 49 48 49 49 53 52 50 49 49 50 49 46 45 42 41 41 43 45 41 40 40 49 47 46 51 56 57 58 62 54 53 33 23 18 4 11 6 17 21 26 19 22 37
57 55 51 53 55 54 52 45 41 43 43 42 37 39 39 36 30 37 42 40 39 37 44 43 39 45 49 53 53 57 54 51 43 30 23 17 13 9 17 26 22 24 14 21 25
58 58 56 57 57 56 46 43 38 40 40 35 37 35 30 30 33 43 43 36 36 40 41 36 42 45 48 49 48 55 51 45 34 22 17 16 17 11 28 23 24 34 19 29 27
61 61 57 55 51 53 49 44 45 42 39 36 37 37 30 38 37 36 31 31 35 40 33 39 43 42 44 46 49 54 49 39 30 16 16 16 29 12 13 29 30 30 16 34 32
64 64 61 57 55 54 54 52 43 42 38 39 35 38 34 33 34 31 27 32 38 33 32 37 39 40 39 45 49 52 45 34 23 17 16 15 25 6 21 31 28 25 19 25 29
71 68 66 61 57 54 54 52 47 44 44 34 34 37 37 33 30 27 27 30 32 30 29 32 35 35 37 41 47 48 42 30 19 23 23 16 13 6 13 26 30 31 29 28 34
72 70 71 68 62 58 53 53 48 47 45 38 35 29 28 29 29 25 24 27 26 27 30 30 33 34 33 39 45 45 41 25 13 15 22 16 7 23 16 20 24 23 24 25 19
70 68 69 69 65 61 57 55 54 51 46 45 36 29 27 25 21 21 17 20 22 24 28 31 33 33 31 39 43 43 39 24 14 5 20 14 3 15 10 11 21 14 15 15 22
71 68 69 68 65 62 64 59 55 52 46 48 36 25 24 23 20 17 18 22 23 26 27 33 33 32 30 33 40 40 37 28 16 4 8 18 17 13 8 19 17 20 12 17 16
78 74 73 71 70 64 61 60 58 53 47 48 40 36 27 27 20 20 19 20 26 24 30 31 29 29 28 31 39 40 41 33 16 9 11 9 11 13 5 24 23 25 19 16 20
78 71 74 77 75 72 67 62 57 55 51 52 45 45 36 33 28 24 18 24 23 28 27 27 27 27 26 34 38 40 39 32 20 9 7 15 18 12 12 17 16 22 27 20 24
86 80 76 76 77 76 72 71 65 64 51 58 55 51 50 38 37 28 21 22 24 26 26 26 23 25 24 33 36 40 37 35 26 16 9 12 20 21 18 11 19 23 26 28 30
92 85 81 80 81 75 74 73 71 72 65 56 59 54 52 48 40 37 32 25 26 26 24 26 26 23 27 28 34 37 36 36 31 20 12 7 16 19 18 15 22 28 29 31 34
93 88 85 86 81 84 84 78 79 75 66 58 60 55 58 46 46 39 38 33 32 32 28 29 26 27 31 27 32 35 37 36 34 29 21 13 10 15 18 18 18 29 29 33 35
96 87 90 87 89 89 85 86 86 80 68 65 54 57 58 55 54 52 41 38 38 35 30 35 29 34 28 29 30 37 38 37 32 33 29 21 14 13 15 16 17 19 30 38 34
92 90 95 88 93 93 89 90 90 77 66 63 56 60 59 60 59 54 51 42 39 39 34 35 39 35 31 30 29 36 38 39 36 34 33 26 20 15 16 16 16 21 21 40 41
104 99 94 92 95 94 96 96 93 66 68 67 63 65 66 64 62 63 50 49 41 36 36 37 33 39 33 35 26 31 35 37 38 37 35 35 25 16 17 20 15 20 22 27 37
113 107 102 95 101 102 100 96 78 82 76 79 77 69 73 75 67 61 61 54 46 42 37 38 35 43 38 39 29 33 33 33 35 38 37 37 33 24 16 19 19 20 24 28 30
107 106 112 111 114 114 111 103 75 79 83 90 85 79 74 80 81 74 60 54 49 47 42 38 38 40 41 41 32 36 31 32 34 34 37 40 37 25 20 20 20 20 22 28 33
105 104 109 113 119 118 116 101 89 91 92 95 94 93 89 87 86 83 69 61 56 50 46 41 39 45 41 41 36 30 35 33 35 37 34 38 37 36 30 22 20 18 20 21 25
98 98 105 109 111 109 110 107 105 102 102 103 100 94 93 91 92 80 74 68 63 58 53 46 46 46 44 45 42 43 39 37 37 37 36 34 41 37 32 29 23 24 18 19 22
91 95 100 103 98 98 101 103 102 107 108 108 106 100 98 95 93 85 75 74 72 63 56 52 49 50 48 46 42 43 42 39 37 36 38 37 40 41 35 34 29 27 24 24 23
90 91 91 90 91 90 95 94 97 98 103 113 114 111 106 101 97 89 84 79 77 68 64 59 53 51 53 52 56 49 43 38 38 36 39 37 36 40 37 37 34 32 28 27 28
84 80 82 81 80 83 89 89 93 94 94 105 113 112 110 107 104 98 94 87 83 74 70 69 57 57 51 45 56 56 48 43 39 37 40 41 38 39 38 36 38 34 29 25 26
74 64 71 70 76 77 78 81 82 86 88 93 100 103 110 111 110 103 102 95 90 77 73 75 60 63 65 53 53 58 53 45 39 43 41 38 38 40 36 36 39 36 33 31 28
67 58 55 57 62 67 64 70 74 80 82 87 92 101 109 108 113 114 110 106 96 88 81 74 65 67 65 54 51 52 54 51 45 47 42 40 38 39 37 37 38 37 35 34 33

GFSSW_250_spd_051.txt.gz
Wind_Speed
64 63 63 64 64 58 57 54 53 48 49 50 51 50 50 49 48 48 43 39 41 38 36 35 34 38 46 41 46 52 49 52 48 46 36 7 19 27 27 31 32 31 30 28 30
63 63 64 65 64 58 55 54 51 51 50 50 51 50 45 44 41 37 35 35 33 31 35 34 32 39 39 42 47 46 48 48 46 44 16 14 24 28 33 28 33 33 38 36 38
67 65 63 66 62 59 56 56 52 51 53 52 46 39 37 37 30 31 28 28 31 35 34 31 32 38 36 42 42 43 46 46 42 35 6 13 26 23 16 17 35 39 39 37 40
69 64 63 64 61 60 57 55 52 48 51 45 44 43 36 37 31 33 26 33 34 30 28 29 35 33 36 34 37 42 46 43 35 10 10 23 22 23 7 15 29 35 39 37 37
67 63 62 62 60 59 57 57 54 49 45 44 41 42 39 40 35 33 33 35 32 24 29 33 31 32 27 29 35 40 45 42 24 4 26 30 27 18 9 13 29 34 34 31 28
66 64 61 64 62 62 61 59 57 52 50 44 42 40 39 43 33 34 31 31 29 25 27 24 20 24 28 31 31 40 47 37 4 1 9 27 21 15 7 7 19 31 38 31 29
62 63 59 59 62 66 64 63 61 55 49 44 39 38 43 39 31 34 30 26 24 22 21 18 19 23 30 30 32 35 44 34 5 14 16 24 12 4 9 15 18 19 30 33 36
68 64 61 62 60 64 67 66 65 60 51 46 41 38 43 39 31 28 31 26 21 13 14 17 21 24 30 27 29 34 40 34 21 12 14 12 10 4 5 8 12 11 19 29 34
65 67 63 66 62 61 67 71 67 66 57 49 44 39 45 42 34 26 19 23 18 12 18 18 19 25 26 22 28 36 39 41 26 9 17 16 9 5 5 4 6 12 17 21 19
65 66 66 66 65 62 61 63 69 68 61 54 46 44 44 46 38 24 19 19 18 13 14 21 23 24 22 19 27 33 39 42 30 22 10 15 5 6 14 7 3 8 13 16 16
73 68 67 69 71 68 66 65 61 63 56 52 44 42 41 44 39 21 21 21 20 14 11 18 21 16 17 15 24 30 32 35 42 31 14 16 16 15 15 18 17 11 15 15 15
78 74 70 73 72 70 71 70 64 61 57 56 46 44 45 43 41 32 26 27 25 21 15 20 18 16 15 15 24 24 30 36 38 38 25 8 11 20 11 16 17 14 21 18 12
79 77 77 74 78 78 76 77 70 64 59 58 54 48 50 41 44 42 34 31 30 25 15 14 21 18 14 14 24 25 29 35 38 37 37 25 7 12 19 23 15 18 21 26 21
81 82 80 78 85 83 78 75 72 70 62 60 61 50 51 44 41 50 49 44 32 34 22 18 20 24 15 17 21 24 27 32 37 34 39 30 20 13 16 17 18 21 20 30 31
89 85 85 81 84 83 79 77 71 68 61 68 63 56 58 50 54 52 53 46 42 46 33 29 25 21 19 21 21 20 25 29 32 33 34 39 29 17 10 13 17 26 25 28 30
91 93 92 88 93 91 85 82 80 72 61 62 58 61 60 58 57 56 57 51 47 40 37 34 31 29 30 27 20 24 27 25 31 30 34 33 40 28 17 12 9 22 21 32 30
95 93 98 95 99 96 96 93 91 77 66 70 63 61 64 62 61 58 54 56 51 50 44 43 34 32 34 28 21 25 28 22 32 30 31 36 34 37 26 16 5 15 19 23 32
98 98 97 102 100 101 101 93 95 83 72 78 78 68 70 66 66 66 60 57 54 53 50 45 37 35 31 29 23 26 31 32 32 31 31 34 33 35 36 26 16 10 15 23 25
97 96 99 96 97 93 93 90 78 77 77 83 84 77 72 71 71 67 63 57 58 58 54 52 42 39 31 35 26 26 32 33 33 30 35 36 33 31 33 36 24 19 11 14 27
104 101 98 102 102 99 96 82 78 75 76 84 85 79 76 73 75 76 66 62 62 63 59 49 46 45 37 28 30 32 31 32 33 27 34 40 33 31 37 33 33 25 25 19 12
100 103 110 111 107 106 95 86 80 86 84 86 87 84 80 77 74 76 71 68 66 66 63 56 49 45 42 31 28 27 33 33 35 30 34 35 32 31 34 36 32 30 22 21 23
91 94 106 111 109 110 100 96 97 89 94 94 88 85 85 83 80 77 76 74 73 72 70 65 64 51 45 32 33 29 27 33 36 38 34 34 34 33 33 35 35 32 28 21 21
86 90 93 95 92 99 110 108 108 102 103 95 95 90 87 82 87 89 84 80 80 77 71 71 67 57 50 45 38 35 29 36 40 32 35 31 36 32 33 35 35 34 33 28 22
85 86 86 86 87 86 92 98 101 103 105 105 106 103 97 92 88 86 92 89 87 84 80 78 71 57 52 51 46 37 35 37 45 38 43 36 36 35 36 33 35 36 36 30 27
78 72 77 76 79 84 87 91 93 91 96 105 106 112 106 103 99 92 91 94 94 89 84 83 74 64 54 56 48 39 42 39 42 39 42 46 36 36 39 36 37 36 36 35 30
73 69 72 74 76 77 77 77 86 89 85 88 97 111 119 114 109 104 99 97 98 97 93 87 75 72 63 57 58 47 44 42 41 41 39 48 45 41 38 37 38 37 37 36 38
66 64 65 66 71 73 69 71 76 83 80 84 90 100 104 99 106 112 108 106 102 101 97 93 82 77 68 63 62 54 43 46 44 45 45 47 49 39 43 40 39 35 33 34 40

GFSSW_250_spd_054.txt.gz
Wind_Speed
73 69 68 67 68 63 58 57 58 57 57 55 52 47 46 44 45 47 44 41 38 37 29 31 29 32 36 37 40 45 46 48 43 49 43 41 22 25 24 28 38 54 58 55 49
74 69 71 68 69 64 59 59 61 59 57 53 49 45 44 43 46 40 40 35 32 25 24 27 31 34 34 35 39 43 44 39 45 46 36 33 25 24 30 31 35 53 59 56 54
79 77 69 68 65 66 61 60 58 57 55 53 49 45 42 44 41 40 39 32 29 20 25 27 28 29 30 34 39 39 33 38 44 42 31 25 21 30 31 34 36 44 57 59 55
87 79 73 71 68 71 63 60 59 57 56 52 49 41 38 38 40 40 37 33 30 28 30 30 24 29 30 32 28 26 31 39 42 33 28 18 24 22 28 34 41 41 53 61 56
80 79 72 71 69 67 67 61 58 54 53 49 47 40 39 40 38 40 39 35 29 26 27 28 27 26 22 23 25 22 29 36 37 25 20 18 28 26 38 36 40 41 41 56 57
82 77 73 70 68 65 64 60 58 55 50 48 46 44 43 45 35 39 37 35 29 29 26 27 26 18 18 25 24 19 27 32 33 20 10 20 36 30 30 30 38 34 41 50 47
77 73 73 69 65 63 61 58 58 57 51 49 51 45 50 44 33 39 33 36 29 27 21 21 13 16 18 22 21 18 27 30 36 27 21 22 31 25 24 20 22 33 30 51 45
71 70 63 64 61 61 58 59 52 52 54 50 51 51 52 45 35 37 37 33 30 27 20 14 11 14 16 20 20 19 24 26 36 33 23 14 23 16 14 14 17 21 26 36 48
62 65 64 60 61 60 59 59 57 49 48 51 53 53 53 45 39 35 36 35 28 25 21 18 19 18 18 19 16 19 22 25 33 35 17 21 29 34 24 13 6 5 12 23 23
71 69 71 60 63 58 61 61 58 51 48 49 53 54 55 52 42 38 32 34 31 22 22 23 21 16 16 13 13 20 21 26 29 37 29 20 27 29 31 10 7 13 9 11 10
64 69 73 63 61 62 59 59 57 51 54 40 40 44 56 53 47 39 30 33 31 26 23 22 24 15 16 16 13 21 22 26 31 27 35 20 23 27 21 22 27 21 10 13 15
72 69 62 65 63 66 62 61 57 48 47 47 44 45 51 49 44 37 30 34 33 29 25 27 26 16 16 15 14 17 21 22 28 26 29 32 20 27 30 24 24 19 17 16 16
73 72 66 67 67 69 67 66 60 48 50 53 52 46 53 44 44 43 36 34 36 33 32 28 26 19 19 19 16 17 18 20 25 28 31 30 36 19 23 28 28 26 22 16 23
77 74 73 74 74 70 70 67 61 55 53 58 55 51 50 49 43 50 41 40 36 44 32 33 29 24 18 22 18 13 16 19 25 25 27 28 33 28 22 19 25 24 24 19 24
81 79 79 79 76 78 75 70 68 65 56 62 60 57 56 53 54 54 49 41 39 43 42 44 36 37 29 24 19 17 16 19 23 24 30 28 29 36 28 21 19 17 22 22 20
84 85 80 84 83 78 80 73 70 68 55 62 63 61 60 59 61 58 52 50 49 42 43 47 40 41 44 31 25 23 20 18 21 26 30 26 29 28 31 27 22 21 19 10 20
88 79 77 83 84 79 81 78 75 67 61 64 64 62 57 59 59 60 58 55 55 50 45 53 48 38 44 37 30 26 31 20 17 23 28 31 31 29 29 30 27 22 21 16 16
82 90 89 92 87 87 82 82 75 65 67 71 68 66 62 59 61 60 59 59 59 57 51 51 49 45 50 45 42 27 25 24 16 22 25 29 29 34 25 26 27 23 19 20 15
85 80 88 97 94 93 87 81 76 77 77 83 76 71 69 65 62 64 62 59 60 59 52 51 48 49 48 48 44 44 30 32 23 24 25 27 27 34 24 25 25 26 23 20 22
91 89 92 88 87 89 89 86 80 80 84 88 84 79 78 71 73 73 67 65 62 62 60 52 55 56 53 50 45 44 36 34 26 25 22 26 26 33 27 24 25 22 25 20 18
90 94 101 98 94 91 78 71 78 87 90 89 88 87 85 82 78 73 71 70 65 68 67 60 57 60 57 49 46 45 42 34 31 27 24 30 25 27 29 26 28 25 22 19 11
85 87 101 100 94 92 84 86 85 84 85 88 88 87 88 77 76 76 72 77 76 74 68 63 60 60 58 55 53 50 41 42 33 25 27 22 25 26 29 31 26 29 31 26 22
84 84 88 90 85 90 93 92 92 90 92 87 83 76 81 80 77 72 72 80 81 75 73 72 64 62 62 59 52 46 46 41 33 31 26 24 36 29 28 33 29 33 34 32 29
77 77 79 77 80 91 94 96 95 97 95 93 90 90 90 85 84 78 72 79 76 75 75 74 68 63 64 66 63 59 54 51 49 48 40 31 38 36 28 31 33 34 31 34 33
70 66 69 72 76 84 88 91 99 106 106 107 102 98 101 97 93 80 77 79 80 76 80 80 71 68 68 67 69 66 56 53 48 44 40 31 35 38 30 29 33 35 31 32 34
57 59 66 69 75 76 79 80 88 86 88 96 99 111 108 100 96 98 94 82 84 83 80 83 78 76 72 73 71 68 65 56 54 53 37 36 32 39 35 28 32 32 26 30 33
56 61 62 63 66 66 67 81 82 79 81 87 91 94 97 109 111 107 102 100 91 88 84 85 79 80 74 75 78 76 62 59 56 50 42 38 39 41 40 33 35 39 42 34 32

GFSSW_250_spd_057.txt.gz
Wind_Speed
83 80 79 74 68 66 70 64 64 64 62 59 53 49 50 49 49 48 41 38 40 40 39 35 31 28 28 31 36 40 41 41 47 46 50 53 44 35 31 30 25 22 41 42 43
91 86 86 80 74 73 68 70 72 65 58 60 57 52 50 48 48 44 40 36 35 36 34 30 28 27 29 34 33 36 38 42 38 41 46 43 30 27 27 25 23 31 50 41 43
102 96 96 93 85 79 76 76 74 71 62 56 56 52 48 48 48 43 36 32 34 33 32 30 33 31 31 30 32 33 32 32 32 39 37 31 28 22 28 27 24 39 58 47 43
100 98 100 97 96 90 86 78 76 77 70 61 58 54 47 47 46 38 36 34 35 36 33 31 32 34 33 32 30 28 28 25 32 31 32 25 25 23 27 27 28 42 58 49 45
109 97 94 100 94 90 96 84 79 73 69 63 58 53 47 46 46 39 39 34 32 33 30 28 29 30 30 30 26 26 20 25 29 34 32 31 22 29 28 30 34 36 55 52 49
111 105 98 95 96 95 89 87 81 74 70 62 56 51 45 50 38 41 42 33 34 30 29 27 29 27 28 22 18 23 21 22 27 32 30 27 23 25 29 35 37 37 57 57 56
98 107 109 108 95 94 91 79 77 72 68 59 54 48 44 51 39 44 44 36 35 31 29 25 26 26 20 19 18 17 18 17 25 30 31 21 19 21 27 34 35 39 46 59 60
100 95 99 98 93 89 81 73 74 68 63 58 54 48 48 48 43 48 42 41 36 31 30 27 26 26 22 20 20 12 14 19 24 27 32 26 18 18 23 15 24 32 41 57 64
68 72 74 74 70 68 66 68 69 63 61 55 46 46 53 48 46 48 48 44 34 31 28 29 27 28 23 21 17 13 18 15 22 26 30 31 22 15 24 28 18 25 29 35 58
59 61 60 61 60 60 62 63 59 53 54 53 47 45 49 49 50 49 48 41 33 30 28 28 30 32 29 24 15 14 17 19 21 20 28 30 30 19 17 28 27 31 14 17 28
52 53 58 62 58 56 62 58 56 50 49 50 47 50 46 47 51 52 48 45 42 31 29 29 33 33 30 26 18 17 21 18 21 19 24 30 35 29 19 22 28 23 28 24 19
52 55 62 69 63 58 57 57 51 47 47 52 51 46 49 40 42 49 50 47 43 36 25 31 35 28 29 30 21 19 21 19 18 16 22 27 30 34 23 16 20 30 32 25 16
51 57 66 66 64 57 63 59 63 55 49 51 56 53 48 41 40 39 40 45 42 34 29 31 38 29 35 28 23 21 20 17 16 23 19 27 27 32 26 20 16 17 29 28 23
53 57 68 70 69 67 69 66 63 61 51 51 54 54 47 40 36 51 44 46 41 41 32 30 36 34 34 31 29 24 22 20 12 22 22 23 28 31 34 25 19 15 16 20 19
59 61 67 71 72 71 69 64 63 49 55 57 54 53 47 46 49 55 48 43 43 43 32 39 35 38 36 33 30 28 25 23 22 21 23 19 27 32 35 27 22 19 12 15 20
64 64 69 75 77 67 71 66 68 63 55 57 57 58 52 48 51 54 48 45 48 43 39 42 39 36 45 41 32 35 37 30 25 22 26 19 23 27 32 30 27 21 19 12 13
69 68 74 76 79 75 71 73 71 65 63 63 63 59 58 54 54 56 54 52 52 49 44 52 43 44 41 41 37 35 40 32 27 22 24 20 19 23 27 31 29 25 23 20 10
72 72 74 79 82 79 75 75 72 66 73 68 66 67 62 60 59 57 56 56 56 54 53 53 50 49 48 43 41 38 31 35 35 22 26 27 19 21 23 27 26 26 25 23 18
70 75 78 80 80 87 80 73 74 71 73 73 76 69 69 68 57 60 58 56 57 60 58 57 56 57 51 49 43 38 37 38 34 34 29 27 21 24 19 23 26 31 28 28 26
68 71 82 82 81 82 82 78 74 76 71 79 74 71 69 68 66 60 64 59 62 57 58 59 59 62 58 52 45 39 41 40 39 36 35 28 21 24 20 21 21 28 34 34 30
72 69 78 79 79 80 74 68 79 78 80 76 75 72 73 72 70 69 67 66 66 64 56 58 57 62 59 50 50 47 41 43 45 36 39 29 24 27 21 20 19 20 30 35 33
72 68 76 75 77 78 73 73 80 87 87 84 80 78 76 74 73 72 71 68 66 65 58 59 58 61 60 58 55 51 44 46 45 42 40 34 30 31 27 22 25 23 26 30 35
68 67 78 73 66 73 81 83 78 81 87 89 86 85 81 78 81 81 75 75 76 72 69 66 66 64 64 62 59 57 49 49 49 45 37 40 35 34 31 30 29 29 27 28 30
64 67 71 68 66 75 80 87 83 85 85 80 79 76 78 85 81 79 83 87 81 78 73 72 70 68 66 68 66 62 56 54 51 46 45 38 38 45 41 36 32 29 28 27 30
58 57 64 65 70 76 79 87 93 91 92 87 83 75 75 74 73 75 86 92 87 87 83 79 70 70 67 73 71 67 62 58 53 50 48 44 43 46 41 37 32 29 28 29 30
53 55 62 67 72 73 74 77 84 93 95 96 92 91 89 85 84 79 76 73 71 67 68 68 67 64 67 68 69 73 65 61 57 56 54 52 47 50 47 42 36 27 32 29 31
52 55 60 65 70 67 70 76 81 84 94 105 104 100 97 98 96 93 88 80 71 70 72 72 71 71 66 73 70 62 60 68 62 57 55 50 51 57 53 48 35 31 34 31 33

GFSSW_250_spd_060.txt.gz
Wind_Speed
86 86 87 88 90 89 89 85 81 78 70 64 64 58 57 62 58 56 56 50 45 45 38 36 38 37 34 29 30 28 31 32 34 39 46 51 54 55 47 46 36 27 15 21 15
85 87 87 85 90 100 98 92 87 85 79 73 68 68 64 64 59 55 54 53 45 41 34 35 37 35 32 33 34 32 31 32 32 38 40 48 49 40 40 27 25 24 11 27 27
94 93 93 94 97 93 94 96 94 94 88 85 82 80 71 64 64 61 55 52 42 38 34 35 36 33 31 30 36 35 33 28 29 30 36 44 38 32 30 21 23 19 21 31 28
97 100 102 106 100 97 94 96 95 94 91 81 79 79 76 71 69 63 53 50 42 37 32 33 34 33 27 29 30 31 28 24 24 28 33 38 35 28 24 24 22 19 28 33 34
107 112 111 105 109 97 96 90 83 81 88 75 78 71 68 69 70 59 55 48 44 38 34 31 30 31 26 27 30 27 17 20 23 26 28 33 33 28 21 26 23 20 21 38 36
116 110 112 105 91 84 82 84 79 78 78 83 84 78 71 70 67 59 53 48 44 38 35 31 30 31 25 25 26 24 15 18 19 22 26 33 31 24 22 26 24 24 20 41 40
111 102 95 94 81 84 87 79 86 83 76 79 78 72 70 70 63 59 51 48 41 38 37 33 30 28 25 24 24 19 16 14 15 21 24 30 30 22 23 26 23 21 23 32 50
106 104 89 87 75 74 70 71 81 82 76 79 73 72 63 67 60 58 47 46 41 42 34 35 32 25 26 27 25 21 19 14 15 19 21 26 31 26 21 16 17 9 12 13 57
96 87 81 70 60 60 57 62 68 72 73 73 71 69 60 63 61 54 46 47 43 43 38 36 35 27 28 29 28 19 17 14 15 15 17 22 29 32 22 15 19 18 17 17 17
86 78 64 59 54 52 48 51 58 62 68 62 62 59 60 62 57 51 48 50 46 43 39 38 35 31 30 27 31 26 19 17 15 15 15 20 24 31 27 19 14 18 26 26 16
77 68 56 54 47 46 43 45 52 59 60 58 58 58 58 60 56 50 48 49 45 42 41 37 32 32 28 27 31 29 22 19 13 11 16 19 21 26 33 30 20 15 18 21 28
72 61 54 50 46 42 42 40 57 59 59 59 57 54 59 59 56 52 48 49 49 48 43 36 38 32 27 27 34 34 25 21 15 11 16 20 21 25 33 31 29 20 17 19 24
66 58 52 47 47 41 40 48 61 60 59 56 55 52 59 53 55 53 46 45 48 48 44 41 43 31 29 30 33 34 27 20 17 12 13 17 23 24 27 30 30 25 21 17 16
63 57 53 48 49 44 44 56 58 55 54 56 52 52 58 56 50 53 44 42 42 47 46 43 44 32 30 36 34 36 29 24 21 14 12 16 19 23 24 28 30 30 26 19 15
64 58 56 51 50 47 51 59 62 60 54 58 55 53 58 57 54 51 49 50 40 46 44 47 46 36 24 37 33 34 31 30 24 17 19 19 18 23 24 24 25 29 28 24 17
66 60 58 56 56 49 57 60 68 57 50 55 57 56 56 58 60 58 51 49 48 44 39 45 46 36 34 35 35 40 25 30 25 24 26 19 21 18 24 22 22 26 29 27 23
68 65 58 61 61 55 59 65 63 56 57 58 62 64 59 58 61 59 56 49 48 44 41 52 50 46 41 37 36 35 39 31 26 30 29 20 23 20 24 20 20 20 24 31 29
68 63 59 61 62 61 61 68 65 67 66 65 63 66 60 61 60 61 57 57 52 47 48 50 48 48 45 44 43 34 32 30 31 30 28 19 22 20 24 20 21 20 21 26 32
69 65 60 63 62 65 64 64 71 76 74 67 64 59 56 54 66 61 59 57 50 49 50 55 53 52 50 50 45 40 36 36 28 30 28 25 25 30 24 25 21 20 21 20 26
69 68 64 65 63 64 63 65 69 74 71 67 73 72 68 63 60 62 62 56 59 53 58 58 55 55 55 52 48 46 44 38 33 29 32 30 31 31 24 25 21 21 25 25 22
62 61 67 69 65 62 59 69 72 76 82 77 72 73 77 74 71 65 68 65 61 60 55 56 58 57 58 52 53 51 48 45 44 36 32 35 35 35 28 27 22 23 23 28 29
57 54 64 67 64 60 61 70 81 82 80 86 80 79 78 81 76 74 72 71 64 64 62 61 57 55 58 55 54 52 51 49 40 40 34 34 41 42 31 32 26 25 26 29 28
49 50 59 60 57 62 63 75 80 84 83 87 82 83 86 81 79 83 77 72 72 69 61 64 59 61 64 58 51 47 49 50 48 46 41 40 39 45 38 38 30 27 29 29 29
44 46 53 49 55 64 67 76 78 83 80 87 86 85 83 82 83 80 80 78 75 71 71 70 63 66 67 67 64 57 53 52 52 47 45 39 42 49 42 39 39 35 31 30 33
38 42 48 44 56 66 71 73 79 83 81 79 80 91 89 81 76 77 77 75 73 71 68 68 66 69 67 67 63 54 57 59 51 53 50 49 48 50 49 44 42 40 35 31 33
36 41 46 52 61 65 69 70 75 82 83 81 79 82 82 81 84 82 79 74 71 72 72 73 72 65 69 64 60 56 61 60 57 56 51 53 51 48 49 48 47 44 41 36 36
39 40 45 54 57 57 65 72 75 80 82 86 87 81 81 78 84 83 80 80 77 75 77 77 78 78 75 72 70 71 71 70 63 62 59 57 57 56 53 55 53 50 47 45 38

GFSSW_250_spd_063.txt.gz
Wind_Speed
73 77 77 76 76 78 77 72 76 77 78 76 76 79 85 84 75 70 68 63 58 58 51 51 49 37 30 36 40 37 33 33 35 37 36 39 43 46 49 46 41 28 12 11 11
82 86 86 85 84 84 80 83 81 82 86 80 84 82 81 82 75 76 73 69 70 66 58 53 48 35 31 35 37 34 30 32 36 31 36 36 40 47 45 42 34 11 11 12 13
89 91 90 95 92 87 87 91 89 89 86 92 90 87 82 83 81 78 73 72 67 62 60 53 43 31 28 34 32 31 25 29 26 30 32 33 39 44 38 36 18 8 12 9 19
95 98 98 98 97 98 96 94 96 94 96 93 86 88 82 87 84 82 79 69 66 58 53 52 41 29 30 31 28 28 24 27 21 26 29 32 34 38 35 29 14 11 13 11 18
98 97 97 98 100 103 104 105 109 103 95 81 81 78 81 75 82 68 66 66 61 55 51 50 41 32 32 28 29 26 20 21 21 22 26 25 29 33 31 26 17 11 12 12 23
102 105 107 111 109 110 111 110 108 94 81 76 72 68 68 72 74 71 66 66 62 59 51 48 38 34 31 25 25 23 19 17 20 18 21 23 26 31 28 24 15 11 13 14 22
107 107 113 114 115 109 94 92 86 77 75 70 69 64 57 69 72 64 64 66 66 59 51 45 38 35 33 23 24 21 19 19 20 19 22 22 24 29 26 25 16 8 7 11 14
111 111 117 116 110 105 93 83 73 70 64 64 62 61 54 65 62 63 59 63 62 54 46 42 39 35 34 25 22 21 21 21 21 15 18 18 21 25 29 24 18 8 7 4 11
104 106 110 109 93 82 77 73 63 53 53 58 61 59 57 65 66 63 59 62 58 51 42 41 40 36 32 28 25 20 23 22 23 16 13 14 16 22 26 28 24 13 13 14 13
103 103 104 98 86 79 70 60 53 48 49 52 55 62 61 65 64 61 60 60 57 50 40 42 41 38 34 29 26 21 26 27 21 22 9 11 13 18 24 26 26 17 12 15 16
108 107 104 92 78 70 55 50 46 41 44 47 53 56 59 61 62 59 60 59 57 48 42 45 40 42 39 28 29 22 27 27 22 24 14 9 13 16 19 23 24 23 15 8 13
108 100 90 79 74 61 46 43 40 35 40 42 53 52 57 61 58 56 58 60 54 48 47 43 44 47 34 28 28 24 25 26 21 24 18 8 12 17 18 23 22 24 25 18 10
101 94 86 75 68 51 41 38 37 33 37 40 45 50 58 59 58 59 60 59 54 48 45 47 54 45 35 30 29 25 25 26 26 23 20 13 13 14 17 20 21 23 28 25 17
98 89 79 70 60 47 38 38 36 32 36 49 49 55 58 60 59 64 62 57 55 51 51 47 52 47 38 34 33 31 21 26 24 23 24 16 16 17 16 20 21 24 24 29 25
86 81 72 64 57 45 39 39 37 36 41 56 50 61 65 60 60 64 61 60 53 53 51 47 55 52 44 44 36 37 24 30 27 27 26 19 19 18 14 22 19 20 20 24 29
80 74 66 61 57 46 42 38 40 37 49 60 56 58 62 59 60 64 64 60 52 55 50 51 51 45 46 41 37 37 31 32 26 27 30 20 22 18 19 21 17 20 21 21 24
76 70 64 62 59 48 45 40 42 40 56 60 63 57 62 60 60 62 63 57 55 55 48 50 48 49 48 42 41 39 33 31 31 22 26 20 25 24 21 19 18 19 20 24 19
72 66 62 59 56 49 48 45 39 46 60 63 65 64 65 63 59 61 67 59 56 55 53 51 50 48 49 52 49 44 33 21 30 30 30 27 31 28 22 20 20 15 16 22 24
67 62 60 60 58 51 48 44 44 55 68 69 70 67 65 61 59 62 66 64 60 57 56 57 52 50 49 53 50 45 32 35 26 23 23 24 36 34 27 23 21 18 12 18 20
62 58 59 59 58 52 44 42 49 58 74 77 76 72 73 69 64 63 66 63 62 59 60 58 54 53 54 52 46 45 42 34 31 30 27 22 28 41 31 28 28 23 18 16 18
60 57 61 62 58 51 40 46 55 62 77 82 84 73 79 76 69 71 67 63 63 62 59 60 59 57 55 48 47 47 44 41 40 37 33 31 31 37 36 34 34 30 26 21 21
52 48 59 56 48 44 41 52 61 70 76 87 88 79 79 76 74 71 75 65 59 68 64 62 64 56 51 50 50 46 41 41 42 42 42 39 34 41 36 38 38 37 34 31 22
48 48 54 48 43 46 47 58 65 70 76 87 87 83 83 79 80 77 76 66 66 69 67 65 58 59 55 54 51 52 51 50 51 49 47 45 39 44 40 36 40 40 40 37 29
43 45 49 43 44 44 50 60 68 72 75 82 92 91 90 85 77 74 75 74 68 69 70 68 67 62 59 55 52 56 58 53 46 44 45 43 45 47 47 42 42 42 41 40 36
40 44 45 41 44 47 55 64 71 72 74 81 92 93 91 91 85 79 81 77 74 66 68 66 68 67 67 62 53 51 52 54 48 50 47 46 44 48 49 49 46 42 41 43 43
41 44 40 42 42 49 56 65 71 75 72 79 87 89 89 89 83 77 84 81 78 73 71 71 68 66 62 65 61 53 53 56 57 57 57 54 50 51 54 51 52 47 45 46 48
41 38 38 42 44 47 57 67 72 73 72 76 86 87 89 90 84 82 80 80 80 80 79 75 73 69 71 69 66 63 63 61 60 63 63 59 52 59 55 53 56 59 57 51 46

GFSSW_250_spd_066.txt.gz
Wind_Speed
66 66 68 69 73 76 77 76 74 74 76 73 71 71 68 73 71 68 76 76 69 71 73 61 58 58 59 56 53 42 40 38 42 41 34 34 35 39 40 43 41 41 37 35 26
74 77 76 79 81 77 77 76 78 80 78 76 72 75 76 77 78 75 73 78 76 73 75 68 62 61 57 50 49 41 37 38 39 34 28 28 36 38 40 42 40 33 24 24 12
78 82 84 85 82 83 86 87 88 85 85 85 81 82 81 81 83 83 83 82 81 78 76 71 62 65 52 47 42 40 35 33 34 30 27 28 33 37 37 40 35 21 20 18 13
83 85 88 88 91 89 90 90 89 90 89 91 97 93 95 92 91 91 87 84 82 76 74 63 61 60 46 48 38 39 35 34 32 29 23 27 30 32 35 36 29 18 19 12 12
91 89 89 90 90 85 88 92 94 97 100 100 102 104 100 97 88 88 83 81 77 78 67 59 56 48 42 44 37 39 32 33 27 24 20 24 27 30 32 36 26 15 11 8 6
84 87 93 93 94 95 99 100 99 101 108 110 109 101 96 84 85 73 70 75 70 67 62 56 50 46 46 43 37 37 30 29 25 19 20 21 26 26 28 32 25 16 14 7 13
91 91 95 98 100 102 105 105 107 109 111 106 90 80 68 66 71 66 66 68 64 61 58 53 50 49 48 43 37 35 30 28 22 17 22 22 22 23 23 25 23 16 13 6 14
94 94 97 99 100 104 108 105 105 107 100 99 89 72 63 67 61 64 66 61 59 60 57 47 49 48 50 41 37 35 32 27 22 18 20 20 19 18 20 24 24 17 10 9 6
97 95 96 100 103 105 105 105 101 92 92 81 69 62 59 63 64 63 63 61 57 55 53 47 46 48 46 38 40 38 33 30 24 20 21 21 15 14 17 21 23 21 12 12 17
98 98 100 100 97 100 99 100 96 92 80 74 61 52 55 60 63 63 62 59 55 53 45 44 44 45 43 40 45 37 33 33 24 22 21 21 14 12 17 20 20 20 17 8 19
100 98 99 98 99 95 95 96 91 80 72 68 54 47 49 53 57 58 60 57 57 50 40 45 44 42 50 41 39 32 34 34 24 27 23 21 14 12 14 17 18 20 20 14 9
99 97 97 94 95 96 93 86 79 72 57 58 51 44 45 50 52 60 57 57 57 49 48 46 39 51 45 42 42 37 35 34 24 27 26 24 22 12 11 16 17 21 22 18 10
98 98 95 94 94 94 90 84 71 59 45 59 44 41 41 43 53 62 64 59 55 52 47 48 52 54 48 44 43 39 37 30 27 26 29 26 23 13 12 15 16 18 19 21 18
98 98 96 92 93 91 84 77 64 48 41 49 41 36 37 41 49 60 53 54 54 49 51 50 54 52 49 45 44 41 38 28 27 27 29 29 24 20 13 13 15 16 18 21 22
100 95 95 92 93 89 78 69 52 40 40 46 43 36 38 44 54 55 62 52 53 53 53 48 54 53 52 54 49 48 34 30 26 28 32 29 26 20 16 16 16 15 18 18 18
101 98 94 93 91 84 74 60 44 38 41 43 44 41 47 50 57 61 55 52 54 57 55 50 54 53 55 55 50 46 35 32 31 28 31 30 27 22 23 18 17 14 17 16 19
100 95 92 89 84 76 67 55 41 39 43 43 49 48 56 60 64 65 62 58 59 54 54 58 55 55 57 55 51 46 41 40 36 33 37 26 29 29 28 24 19 17 14 16 15
96 91 86 83 75 69 59 50 39 43 47 49 52 54 62 68 68 69 67 60 60 60 58 56 54 57 56 55 54 54 52 44 42 37 37 23 27 27 31 28 24 23 16 16 20
89 83 77 75 70 63 53 42 40 46 51 55 58 59 66 71 69 69 62 60 61 62 61 58 54 59 57 58 57 56 48 49 43 38 35 37 38 35 31 32 33 27 23 17 18
79 74 75 69 64 54 43 39 44 51 57 62 64 64 69 73 78 71 70 66 63 67 65 61 57 58 59 60 58 53 52 46 40 34 34 34 38 38 31 31 36 33 27 23 19
71 69 68 63 57 47 43 45 46 55 61 65 67 68 75 73 82 75 77 75 72 68 68 63 57 60 57 56 53 51 50 48 47 44 42 39 41 40 31 30 29 33 33 31 27
64 63 64 61 53 48 48 51 50 59 63 69 71 71 79 79 78 81 76 70 67 69 67 63 62 61 59 56 53 52 51 50 50 46 42 39 40 42 40 39 37 32 34 33 32
62 58 58 56 51 51 52 55 58 62 65 71 74 74 81 83 79 82 79 69 66 68 72 67 63 63 61 58 55 56 52 51 51 53 48 44 44 47 44 44 42 38 36 37 36
53 53 54 52 54 52 53 54 55 64 67 70 76 79 81 87 81 78 75 72 69 69 72 68 64 63 62 61 58 56 58 57 56 53 51 49 48 48 46 46 45 44 41 39 36
50 51 53 55 54 52 48 52 57 61 65 69 74 80 82 90 85 81 81 76 72 65 66 69 69 67 61 59 62 63 62 62 60 59 57 56 54 54 54 53 51 49 46 43 42
45 50 53 52 49 44 45 54 60 63 64 69 73 78 82 90 90 87 83 82 76 71 70 72 72 65 62 63 62 65 66 69 65 59 56 58 57 55 52 52 53 52 50 46 45
44 49 44 46 42 41 47 54 60 61 64 68 75 75 82 87 91 89 84 85 82 76 72 77 70 68 67 67 64 64 67 67 69 65 60 61 58 58 56 56 56 50 50 49 48

GFSSW_250_spd_069.txt.gz
Wind_Speed
64 63 62 59 60 61 65 67 66 68 71 72 76 71 68 71 74 73 74 68 65 66 63 67 67 65 59 61 63 56 54 56 52 53 50 46 43 38 35 37 40 40 42 42 38
66 67 68 63 66 67 70 72 76 77 77 78 80 77 79 71 72 74 71 72 67 74 75 71 68 68 66 63 64 59 54 52 50 49 46 43 39 36 34 34 37 39 40 39 34
70 70 70 73 73 72 74 77 76 79 83 83 83 80 80 80 82 82 88 83 82 83 80 80 76 71 69 68 64 59 54 47 48 47 45 42 39 38 30 32 37 39 38 35 29
77 78 78 75 78 78 78 79 86 87 89 90 93 90 87 85 90 88 89 88 89 90 91 88 81 72 71 65 61 55 52 44 44 45 44 42 35 31 27 32 34 38 35 31 23
83 82 83 80 82 82 82 85 87 88 89 92 89 90 94 99 98 96 95 97 102 98 82 77 79 72 64 62 59 53 50 38 40 44 41 38 33 26 26 29 33 35 33 25 21
85 85 81 78 81 79 82 84 86 86 89 91 97 102 104 104 106 107 104 98 86 73 69 66 62 64 58 55 57 55 47 42 38 42 38 33 29 21 26 27 29 31 31 23 22
82 82 84 83 86 88 90 91 94 96 97 102 101 99 101 111 107 94 81 81 69 63 58 59 59 61 53 55 56 49 46 40 40 40 37 30 25 23 23 22 25 29 29 20 22
84 86 87 88 88 90 95 92 93 97 96 102 103 103 101 106 100 92 87 67 56 56 53 60 61 51 48 53 51 49 44 39 41 38 34 28 17 21 22 18 21 26 25 19 20
85 88 88 88 89 90 91 94 95 100 100 104 103 107 100 89 87 84 73 60 55 58 57 58 58 48 49 48 48 46 46 42 41 39 31 27 18 22 20 15 17 20 23 20 15
94 91 88 85 88 91 94 96 97 97 101 101 99 98 94 86 84 73 69 54 55 57 56 49 51 46 48 46 42 46 47 39 41 40 33 30 20 25 19 13 15 18 22 21 16
94 92 84 86 90 92 93 91 93 94 101 97 94 89 91 81 70 63 60 53 55 56 56 46 46 43 44 45 48 48 37 40 44 40 35 30 26 23 16 14 15 16 20 20 18
84 92 92 88 89 89 94 93 94 95 89 90 92 87 86 70 62 57 53 49 52 51 53 50 40 48 46 45 49 38 39 43 45 39 34 31 32 23 22 16 13 15 15 21 19
86 86 87 93 94 90 89 92 94 90 87 91 87 83 74 64 56 51 48 45 48 49 53 47 47 50 44 45 43 40 43 47 44 36 35 33 36 24 25 19 14 14 14 17 21
79 79 84 87 91 89 85 89 89 88 87 83 81 82 65 53 52 45 43 44 49 56 54 50 51 49 48 49 44 41 46 46 44 36 35 34 37 27 25 21 17 14 15 14 17
89 92 88 93 94 92 87 87 87 87 84 74 76 72 59 49 45 42 44 46 54 54 50 51 53 52 51 51 48 48 49 45 46 36 35 39 35 30 28 26 19 16 14 14 13
88 89 91 90 91 88 86 83 82 82 78 75 71 62 54 48 43 42 43 48 59 58 55 53 54 50 52 55 51 53 46 47 44 37 34 40 35 34 31 28 25 18 16 16 11
92 92 93 93 95 91 87 83 81 77 74 71 62 55 53 49 42 41 48 60 57 50 51 57 54 50 53 56 52 51 46 47 44 38 40 38 32 34 29 30 30 26 20 19 16
93 93 93 93 92 91 87 83 76 74 73 61 57 53 54 49 43 43 63 66 57 52 52 55 53 50 53 56 55 52 51 51 50 44 48 37 35 33 30 34 34 29 25 23 21
96 97 94 94 92 89 86 75 75 75 66 56 57 53 57 51 46 57 70 69 63 52 48 57 56 55 56 58 57 55 49 53 52 47 46 37 42 35 29 34 35 31 29 27 24
91 93 94 91 90 86 76 78 78 68 60 57 56 56 59 55 52 63 72 76 65 63 51 53 60 51 56 58 55 56 55 52 50 51 48 44 46 43 39 35 34 34 30 32 29
83 82 84 84 83 76 70 70 66 60 59 56 55 59 64 59 56 69 73 75 70 65 59 57 59 64 62 56 57 57 56 51 55 55 52 50 49 47 46 43 42 38 36 35 29
75 73 78 76 70 66 63 65 60 58 56 52 56 63 68 65 62 78 83 83 75 63 59 67 66 62 57 55 58 59 58 57 55 59 56 54 52 49 46 41 40 39 36 31 32
67 67 68 65 63 63 63 60 55 56 55 53 55 63 69 66 67 76 87 82 80 72 65 62 63 63 61 56 55 59 58 57 55 56 57 52 51 50 49 48 46 44 41 37 32
59 61 64 60 62 58 57 58 54 58 57 56 58 64 69 68 69 71 87 86 80 76 71 63 64 66 59 56 55 56 59 56 57 56 57 55 56 54 53 49 47 48 46 41 38
47 55 58 57 61 57 56 55 57 61 59 58 59 63 70 68 68 70 90 93 87 76 77 66 64 63 64 60 55 55 57 56 57 57 58 58 58 58 55 52 48 46 45 46 46
46 51 52 54 54 54 53 54 56 56 56 57 59 63 70 66 68 72 92 89 88 83 79 80 72 67 64 61 63 63 59 56 59 59 59 62 59 59 54 52 51 48 47 47 46
45 49 49 51 53 52 51 52 55 53 54 55 58 62 67 66 69 75 84 90 92 86 87 80 81 74 69 63 67 63 66 64 61 59 63 66 67 63 63 59 55 55 55 56 54

GFSSW_250_spd_072.txt.gz
Wind_Speed
61 61 61 61 62 63 61 63 65 63 61 60 62 62 64 67 72 71 69 70 73 69 66 68 65 68 62 59 61 62 61 59 61 59 55 56 47 47 43 46 47 43 43 38 41
65 66 68 65 64 65 63 65 68 68 65 64 68 70 70 71 75 76 74 73 74 72 70 71 69 71 71 67 65 68 67 65 65 59 57 56 52 43 44 45 46 41 36 40 40
66 66 65 66 66 68 71 70 70 70 71 73 77 76 78 78 80 79 81 82 79 80 79 73 77 81 72 75 76 75 73 76 65 60 56 53 52 42 44 46 40 35 35 33 38
71 71 71 71 68 68 69 71 73 74 76 79 76 78 79 80 85 79 80 82 85 85 83 82 83 86 83 83 86 84 82 71 63 57 53 52 49 43 42 44 36 29 29 34 37
78 79 79 79 80 80 80 77 78 79 82 82 82 84 86 85 88 90 88 89 90 86 90 91 92 96 91 91 90 80 61 60 60 54 53 49 46 40 41 37 30 23 25 33 34
81 84 87 85 86 87 87 87 87 87 85 84 78 79 81 85 91 92 94 94 91 95 98 97 97 87 73 69 68 60 59 56 57 52 49 47 43 37 40 32 24 21 24 32 31
79 82 83 87 86 88 85 85 83 86 87 89 86 84 87 94 94 98 99 103 105 105 103 101 79 65 67 61 59 57 55 53 50 47 45 43 41 35 36 30 19 20 23 26 28
74 82 82 84 85 90 87 85 83 82 85 88 88 88 88 94 96 94 100 98 102 102 96 75 56 59 60 58 59 53 49 48 45 46 44 38 42 32 32 25 17 17 18 23 25
87 83 85 87 88 88 90 88 87 87 88 90 91 90 93 98 99 98 103 108 106 102 78 67 58 58 59 55 54 50 42 40 44 41 40 38 39 32 31 23 16 16 20 21 22
91 93 90 87 85 90 93 91 92 89 89 85 89 94 98 97 97 101 106 109 107 87 59 57 55 53 54 50 38 43 42 42 41 40 37 39 37 31 29 25 16 14 18 14 19
91 95 95 97 95 92 90 94 90 88 88 90 89 88 94 97 101 110 111 103 91 66 57 57 52 45 46 44 45 46 46 43 39 38 36 39 37 33 31 27 20 14 16 12 17
92 93 93 95 95 97 96 98 98 95 84 92 89 89 91 96 102 101 93 84 77 59 56 53 38 40 47 43 46 47 45 41 37 34 37 42 37 36 30 28 21 16 17 11 15
97 96 94 96 90 101 99 95 96 89 83 89 91 89 96 93 91 92 83 75 69 59 52 47 40 48 50 46 47 46 41 38 35 36 39 40 38 38 29 32 26 19 18 16 11
96 95 94 95 91 94 89 93 93 93 83 86 89 92 94 92 86 80 73 66 64 50 48 40 43 45 50 47 47 48 36 41 37 39 37 42 38 37 35 33 31 22 19 18 12
82 86 83 88 81 81 82 86 80 74 77 78 79 86 86 84 78 74 68 62 55 46 43 39 43 47 56 49 49 37 44 45 41 39 40 41 37 37 34 34 30 25 21 20 16
91 88 87 86 85 85 82 82 81 82 81 88 84 86 85 78 74 59 61 56 53 42 40 45 47 50 51 53 47 44 49 44 40 38 39 45 40 36 37 32 29 29 25 21 18
90 89 93 92 97 91 94 94 93 90 93 89 85 81 79 77 69 53 56 51 48 41 38 47 50 51 53 54 44 42 49 46 38 37 38 51 41 38 34 30 34 31 31 24 20
88 84 88 90 91 92 96 96 89 84 94 89 79 79 80 72 61 51 50 48 43 40 49 55 53 55 50 54 48 46 50 45 39 40 44 52 38 39 32 31 29 36 34 30 26
82 84 87 90 91 91 91 86 81 85 88 85 80 79 73 68 51 51 47 47 45 46 61 59 57 56 59 58 52 49 48 45 47 46 48 49 44 38 34 32 35 36 33 32 29
79 80 80 88 90 91 86 83 86 89 85 82 78 75 69 66 44 50 48 46 50 50 67 65 59 55 61 62 49 49 50 54 52 47 44 50 46 42 38 37 36 34 30 32 31
73 70 78 81 84 80 78 84 87 86 82 79 77 73 64 61 46 50 48 47 51 56 74 70 66 62 58 63 60 52 52 53 51 49 45 50 52 48 44 39 36 35 29 36 31
64 64 73 77 76 73 73 78 78 76 73 71 69 66 59 55 46 48 52 51 56 67 68 62 59 55 60 59 60 55 52 52 53 49 48 48 53 54 52 45 41 39 41 40 36
54 60 66 71 65 65 70 71 70 69 65 63 59 56 53 51 47 52 55 56 70 77 70 64 54 55 58 57 58 58 56 56 51 55 53 47 46 57 55 51 49 46 41 43 43
48 52 59 59 62 63 62 62 63 63 60 57 53 53 51 48 47 55 58 59 78 83 76 68 57 59 57 64 57 56 60 52 56 55 55 50 53 53 59 55 53 49 45 43 42
42 49 53 53 56 58 58 57 55 56 58 56 53 52 50 47 50 56 60 62 79 84 83 75 67 56 63 62 63 57 58 60 59 53 54 55 55 51 57 60 55 52 47 49 48
42 46 47 47 48 49 51 53 54 55 53 50 48 50 49 47 51 55 61 63 73 80 86 77 68 63 63 60 68 70 66 63 57 57 53 56 58 62 56 53 54 53 52 49 49
41 40 40 43 43 42 48 53 53 53 50 49 47 48 50 52 51 52 59 66 75 81 84 81 75 69 69 71 67 62 60 57 55 53 52 57 56 59 60 59 54 56 55 53 50

GFSSW_250_spd_078.txt.gz
Wind_Speed
53 60 61 56 56 55 59 60 62 59 56 54 53 55 55 55 54 55 59 61 61 62 63 64 67 65 65 66 66 64 60 61 64 66 68 83 73 69 59 58 57 59 60 57 56
49 58 62 60 61 60 60 56 55 56 59 62 59 59 59 61 61 60 62 64 66 64 66 66 72 71 66 67 65 66 67 67 71 71 72 79 69 62 63 62 62 71 66 58 53
47 52 63 64 64 63 66 64 66 65 64 66 62 58 60 64 67 65 64 65 66 67 68 68 70 68 70 68 69 70 67 71 71 74 74 76 70 71 71 74 73 75 68 59 52
59 50 57 61 67 68 65 68 72 73 71 72 71 72 70 61 63 62 62 61 60 60 63 69 73 73 73 72 76 73 75 78 80 80 79 76 78 75 77 80 79 72 58 52 50
65 64 60 59 67 67 71 72 72 73 74 72 72 70 72 72 75 70 73 75 76 76 78 76 77 78 77 79 82 79 81 80 81 82 77 81 83 83 85 83 76 58 44 44 37
74 76 73 70 70 70 72 78 76 76 74 73 74 74 76 77 75 73 76 79 79 78 80 82 82 82 82 87 89 88 85 82 83 78 79 86 85 90 70 63 63 49 38 35 35
78 72 77 77 77 78 73 80 79 77 77 78 76 76 78 81 82 81 81 82 83 83 86 88 88 88 90 91 88 86 84 83 82 83 84 90 84 68 63 58 54 40 32 30 33
82 82 75 83 82 84 83 84 84 81 77 75 78 76 81 83 81 81 83 87 89 91 88 90 90 88 91 90 88 89 90 89 89 88 86 92 63 59 59 55 49 33 31 29 27
79 76 73 82 91 91 92 88 89 88 84 82 80 78 81 82 85 85 87 88 88 86 85 86 90 89 89 91 93 95 93 89 87 93 95 76 58 58 56 51 43 36 30 27 25
82 78 80 86 81 81 86 91 95 93 88 90 89 84 79 82 81 83 86 87 82 85 88 89 91 93 95 97 94 95 92 92 88 91 77 62 49 55 51 41 37 37 31 26 23
84 83 82 84 87 79 81 85 95 97 94 93 91 90 88 87 85 87 87 82 83 81 82 84 85 89 95 95 93 91 92 85 83 77 71 55 37 44 44 37 37 35 31 27 24
75 81 81 90 89 86 84 88 86 88 89 94 94 89 96 92 85 90 87 84 89 87 85 85 82 87 90 96 98 92 83 79 70 63 62 45 35 38 37 35 39 34 29 27 24
73 74 76 80 83 84 87 87 89 92 89 91 92 87 94 93 90 94 93 91 89 89 89 84 84 88 90 96 91 88 83 70 55 57 53 29 40 37 30 38 38 33 27 28 26
79 77 76 77 81 83 82 87 91 95 94 85 95 91 94 94 91 91 88 90 90 89 88 86 85 85 89 89 88 64 60 51 50 53 37 32 44 35 39 41 31 34 28 29 29
80 81 80 81 83 81 78 82 89 92 89 91 92 94 95 95 94 95 91 93 93 90 87 87 85 86 88 85 71 56 52 48 44 44 27 38 42 45 44 38 33 32 29 30 33
81 79 77 80 82 83 80 81 85 86 81 88 89 93 96 99 98 100 94 92 91 88 86 86 84 85 82 67 53 55 47 45 40 33 37 43 48 46 47 41 36 33 31 32 35
79 77 77 81 83 79 80 83 84 79 79 85 86 94 96 97 95 91 93 94 92 86 82 80 78 73 64 54 47 49 45 40 33 31 46 48 51 50 49 43 39 37 35 35 37
74 74 75 80 80 76 77 78 75 72 84 89 89 86 82 84 84 87 87 84 82 75 73 70 70 61 51 46 41 39 42 37 36 40 53 51 49 49 47 44 39 40 35 32 35
70 71 74 75 72 70 69 66 67 71 77 86 89 87 86 83 84 79 77 74 71 70 67 65 65 57 46 44 41 36 40 43 42 48 54 52 48 38 50 37 37 42 38 36 35
67 67 74 68 65 63 59 58 63 69 74 81 87 83 86 84 83 83 78 71 68 69 69 65 62 52 43 44 40 38 47 45 47 53 54 55 47 45 45 40 42 42 35 35 35
58 61 68 60 58 53 54 55 63 69 72 74 78 84 74 78 82 81 79 72 70 71 70 64 52 50 43 42 40 44 51 50 53 59 49 55 45 49 45 42 40 43 37 34 37
52 57 60 53 50 47 51 55 59 65 66 67 74 76 71 72 74 75 71 66 69 72 69 63 54 47 45 41 43 49 56 56 54 60 50 52 48 45 45 39 37 42 40 36 37
49 54 50 46 45 46 50 50 54 61 57 62 64 66 67 71 73 70 65 61 63 62 57 51 46 48 46 45 49 54 61 57 59 62 53 49 43 37 37 39 38 36 39 37 38
45 47 43 40 42 42 44 46 49 54 50 56 60 59 63 68 65 63 59 60 59 55 49 47 46 50 45 50 55 62 66 62 63 64 56 49 41 33 34 37 40 37 37 39 37
40 39 36 37 35 37 41 42 46 45 48 52 54 55 57 59 59 57 53 50 51 50 48 49 51 53 50 55 62 65 69 63 62 65 57 55 49 48 41 35 40 36 40 41 39
33 30 30 27 27 33 37 40 44 44 46 46 51 54 53 53 48 48 45 43 45 46 49 51 54 53 54 58 65 67 70 63 59 59 56 56 49 41 45 38 44 43 39 43 37
29 25 26 24 25 31 37 36 41 40 41 44 46 47 44 43 43 45 46 42 43 44 47 51 53 55 57 62 68 69 71 65 56 58 55 56 54 52 52 47 45 52 46 41 40

GFSSW_250_spd_081.txt.gz
Wind_Speed
55 59 58 52 49 49 53 65 67 66 60 60 62 59 54 51 52 53 56 56 56 57 59 60 61 60 60 61 63 65 61 58 62 64 64 78 71 70 66 63 66 68 67 59 61
61 59 61 55 56 50 51 58 65 69 68 64 64 63 60 62 61 59 57 58 58 60 61 62 62 61 63 66 65 66 62 60 64 65 64 76 73 75 68 65 68 72 64 60 65
67 69 73 67 65 62 56 55 65 67 69 67 66 70 63 66 63 64 64 63 65 66 65 67 67 67 68 70 69 66 60 65 67 68 65 70 72 75 71 70 72 76 62 65 70
69 73 79 72 72 65 65 58 59 63 72 69 67 69 68 74 71 71 69 68 62 63 65 67 67 63 61 65 70 70 67 71 69 71 71 71 78 78 72 73 76 69 65 69 72
71 80 82 76 76 67 67 67 64 66 64 69 69 70 72 70 75 67 67 69 70 75 75 77 73 72 71 72 75 70 76 75 75 76 77 79 79 84 81 82 78 72 71 72 77
82 84 90 89 86 78 69 69 70 67 68 67 68 77 73 74 75 75 79 76 68 71 72 77 79 76 75 75 79 80 77 77 78 78 82 85 82 87 83 89 78 73 74 73 67
89 96 96 95 84 78 70 71 76 74 71 70 71 72 77 84 77 76 76 78 77 80 80 79 78 79 79 81 81 79 77 78 82 86 87 92 81 87 84 87 81 81 76 67 53
98 105 107 94 86 75 67 72 73 75 77 77 75 74 73 83 78 79 77 78 77 74 79 81 82 81 81 84 83 85 85 84 85 86 88 94 78 81 85 86 81 76 70 54 43
105 111 104 90 79 69 67 76 73 76 74 76 80 80 78 80 83 80 82 83 80 79 80 82 84 85 84 84 88 89 88 84 82 86 92 96 77 80 87 79 68 57 39 37 42
117 110 102 87 74 64 64 71 71 79 73 78 84 88 86 85 85 86 83 83 81 81 80 83 84 84 84 89 89 93 91 88 87 86 89 91 86 71 69 59 43 30 27 35 34
114 105 97 82 71 66 67 72 73 70 80 85 88 90 94 96 91 88 88 89 86 83 84 84 80 80 82 84 85 88 93 91 90 93 88 81 70 71 54 39 33 27 30 36 38
110 100 92 81 70 64 64 74 75 74 74 87 88 87 88 97 94 93 92 88 90 88 88 83 80 84 85 85 85 87 88 84 90 92 85 77 67 49 44 30 31 27 39 38 37
106 97 84 78 72 68 63 68 74 81 75 81 86 85 82 85 80 89 94 91 91 93 93 90 86 88 86 86 85 83 76 84 84 80 76 69 46 31 41 26 29 35 40 38 37
101 87 78 76 75 68 65 68 69 74 71 77 93 83 86 89 82 89 88 88 87 88 90 88 88 89 89 86 88 86 86 85 86 80 67 64 25 32 30 28 37 37 40 39 33
92 80 76 73 75 69 69 68 66 67 64 76 81 87 84 91 89 90 86 86 86 87 88 87 88 90 89 90 88 85 86 86 85 72 58 46 25 39 26 36 48 46 44 38 33
85 79 76 77 74 74 72 70 69 67 50 71 75 83 87 90 91 90 88 87 86 85 86 86 83 85 86 88 86 81 82 83 75 55 43 40 30 35 36 50 54 53 48 43 37
83 79 76 75 72 71 71 69 65 59 62 72 73 76 83 89 90 92 94 93 90 87 87 84 81 81 82 83 84 79 79 72 57 45 38 34 37 40 51 58 56 56 53 45 40
81 76 74 72 70 69 67 65 62 62 66 70 72 76 79 82 84 88 90 88 89 89 87 84 82 81 81 81 80 79 70 58 48 37 37 29 43 43 60 62 61 55 51 45 40
77 74 75 68 66 65 62 57 60 62 60 65 71 74 75 77 79 79 81 85 84 81 78 78 78 78 76 75 69 63 57 45 42 36 34 35 55 60 61 62 62 55 45 44 41
74 73 72 68 62 60 55 55 59 56 56 61 67 65 70 72 78 79 81 76 72 70 73 70 69 68 67 64 60 54 48 42 35 37 37 50 60 60 60 60 56 49 44 46 40
72 70 67 62 58 53 49 50 51 51 53 55 60 59 67 73 76 72 75 74 73 72 71 67 62 60 57 56 53 48 41 40 33 36 45 58 59 59 58 61 56 49 45 45 46
67 66 61 55 50 48 45 45 44 45 45 51 57 61 62 64 71 62 67 75 78 75 72 68 65 63 60 55 52 47 37 37 34 39 47 60 57 59 60 63 54 45 42 46 46
63 62 54 49 43 43 42 39 39 43 36 44 51 57 57 58 64 54 66 70 75 76 76 73 68 65 66 58 49 39 36 38 38 46 48 66 57 62 63 59 54 43 47 47 45
57 55 49 43 38 39 36 36 39 40 31 39 46 53 55 53 55 51 60 66 66 70 73 72 69 66 67 54 46 39 41 39 41 47 56 68 58 62 61 59 52 47 44 48 45
49 46 43 37 33 33 33 34 36 34 30 38 43 49 52 49 47 52 53 59 58 61 62 64 62 59 61 46 43 41 45 42 44 50 62 70 57 60 62 58 56 47 44 47 49
44 38 37 33 30 29 31 32 32 29 26 36 42 44 45 43 46 46 42 46 56 57 59 55 53 51 52 47 45 45 47 46 47 53 66 63 58 56 59 60 58 54 43 40 43
36 34 33 28 26 26 27 31 28 25 23 34 37 38 38 43 44 43 43 46 49 53 54 54 54 51 51 48 48 50 47 48 52 64 65 61 59 52 51 61 61 56 47 40 38

GFSSW_250_spd_084.txt.gz
Wind_Speed
67 62 58 59 58 57 56 48 51 49 51 50 54 67 64 66 69 63 53 56 58 57 61 63 64 61 60 60 60 61 60 59 62 68 66 70 68 69 66 65 66 64 62 65 64
64 60 67 69 68 64 61 56 56 51 54 59 51 61 68 69 70 69 65 57 54 57 61 59 63 62 61 61 59 60 58 59 65 64 63 69 68 71 69 66 66 68 66 66 60
67 68 70 71 72 76 71 61 61 61 59 57 61 57 68 70 72 71 69 65 63 62 62 66 62 61 62 64 62 61 56 63 64 69 65 65 70 72 67 64 70 69 70 67 66
71 75 74 77 76 79 77 72 71 68 62 61 64 63 63 71 72 76 74 71 70 69 66 69 67 66 65 65 66 62 63 67 67 67 64 66 70 67 67 66 72 72 74 71 69
78 79 79 82 82 79 75 77 75 81 74 64 59 68 69 65 78 70 74 79 79 78 75 72 73 70 70 70 73 69 72 73 72 72 73 75 69 69 70 74 78 77 75 74 74
81 83 86 86 89 86 84 87 82 84 76 69 64 65 68 68 74 75 73 77 77 78 79 76 75 73 69 73 74 75 72 75 77 75 77 74 71 70 75 83 81 80 77 77 75
84 86 88 89 86 91 88 90 90 85 80 71 63 65 74 75 76 76 75 78 77 77 82 80 79 74 73 72 72 73 72 71 75 77 73 77 70 72 81 84 81 82 80 77 77
89 90 91 97 95 94 92 93 88 84 75 68 64 68 70 79 78 79 77 80 81 79 81 85 86 81 79 77 73 72 72 73 78 81 82 80 63 78 83 83 83 84 84 80 78
93 97 106 101 100 97 97 92 86 76 66 62 64 72 75 82 87 82 77 81 81 80 82 81 81 80 81 81 86 84 81 81 80 81 81 79 74 81 86 89 84 85 81 78 71
99 105 102 109 105 102 102 90 81 62 55 57 62 72 82 84 87 85 83 76 80 81 79 84 78 81 79 78 75 78 79 77 78 81 86 84 81 84 87 88 79 73 72 64 54
103 114 109 110 106 106 92 84 66 51 48 53 60 68 84 85 89 86 87 81 80 78 81 83 80 76 82 84 80 76 80 78 78 82 86 86 83 83 88 75 71 73 57 46 41
105 115 111 114 109 97 87 69 59 50 40 50 57 63 82 90 88 88 87 86 86 85 89 86 82 81 83 84 86 88 82 75 76 79 84 83 84 82 81 79 75 64 43 40 41
111 112 115 114 106 92 77 67 60 55 41 42 56 60 74 85 88 92 89 90 86 87 89 91 88 86 85 86 85 86 84 80 80 81 87 87 80 79 77 74 66 56 40 36 43
117 113 110 108 97 86 74 66 62 57 44 45 61 61 71 78 80 96 94 93 89 88 93 91 90 92 88 86 86 85 86 86 85 80 83 89 82 74 75 71 54 39 38 40 41
112 108 106 98 88 79 72 66 64 60 47 57 62 63 65 73 80 88 97 95 92 90 95 94 89 82 87 90 87 83 84 83 80 82 84 81 82 65 62 49 43 38 41 44 38
111 105 101 92 79 77 74 68 64 60 54 58 60 63 66 68 72 84 88 89 93 93 89 85 78 83 83 80 79 78 77 77 77 77 74 73 73 58 56 44 38 41 46 44 45
107 100 95 83 79 77 73 64 59 60 58 56 55 59 66 70 68 75 87 87 87 91 92 89 82 81 77 79 79 77 74 76 75 74 68 69 63 51 45 39 38 47 52 52 50
100 97 87 80 78 76 68 61 58 56 54 52 54 55 62 67 68 71 77 82 84 90 90 86 83 80 79 76 75 74 72 72 72 68 66 63 47 42 46 30 35 46 46 48 51
96 89 82 80 76 70 65 60 57 52 49 51 49 52 54 59 67 69 71 77 80 84 89 86 81 81 80 77 75 72 72 73 71 68 62 51 45 35 45 30 44 50 52 52 53
88 82 80 78 71 67 62 57 53 47 43 44 44 46 48 56 60 64 69 71 74 77 79 80 84 83 82 83 82 79 74 72 70 63 53 37 43 34 40 38 53 54 55 56 54
79 80 79 72 69 65 60 53 48 42 36 39 40 40 48 54 57 58 65 71 73 73 71 75 76 80 82 80 75 70 70 66 60 53 37 32 37 37 38 47 56 56 57 57 54
78 79 72 69 67 60 52 47 43 40 33 36 37 39 45 51 54 56 61 68 71 72 70 69 64 66 66 62 58 56 55 51 47 41 30 31 32 46 43 55 59 59 58 61 59
76 73 68 65 60 50 45 43 40 38 29 35 36 38 42 48 53 54 58 61 67 70 70 68 67 65 62 58 53 48 47 43 39 32 30 30 35 49 47 58 62 61 59 58 57
69 70 66 59 49 42 39 40 34 32 28 32 33 38 44 45 50 53 57 56 63 63 67 69 71 68 65 59 54 51 49 45 39 32 31 29 44 52 55 61 61 58 54 56 56
67 63 57 46 39 37 34 34 29 28 27 30 32 40 41 42 46 52 52 51 54 60 65 64 65 69 67 62 58 54 52 45 36 34 30 38 50 57 59 61 59 56 49 49 54
61 55 47 41 37 32 29 30 26 25 24 29 29 33 34 38 41 45 47 46 52 54 53 57 55 59 64 60 56 55 48 39 33 37 31 48 62 63 62 62 61 54 47 49 52
54 48 42 34 32 28 27 25 23 23 23 29 25 30 31 33 35 40 43 38 44 42 43 48 53 54 54 49 47 47 42 37 36 40 40 57 73 64 62 61 64 54 45 42 51

GFSSW_250_spd_087.txt.gz
Wind_Speed
60 62 63 63 63 63 61 64 65 65 64 63 67 68 68 53 51 52 67 65 67 67 66 66 65 66 66 62 62 63 61 60 62 64 72 75 68 65 64 64 64 62 61 62 61
66 65 67 63 64 65 68 67 68 71 69 67 66 70 73 69 59 56 58 71 70 68 66 69 63 67 65 62 61 61 61 61 64 69 70 70 64 66 66 64 62 61 62 62 60
70 70 67 69 70 73 72 71 73 76 73 74 74 71 74 76 71 63 61 64 74 74 72 69 71 62 62 60 58 62 60 62 64 68 65 65 63 64 60 61 63 63 64 63 62
77 76 73 70 73 73 77 75 77 78 77 73 74 76 77 78 78 71 67 63 70 76 77 74 70 70 65 62 64 60 58 62 65 66 63 62 62 63 62 60 68 67 68 66 65
82 82 79 77 79 80 77 78 79 78 78 80 82 79 71 71 79 77 73 70 68 76 77 77 76 72 67 68 70 68 67 65 66 68 64 65 64 69 63 67 72 72 70 68 68
83 82 80 81 80 80 81 82 78 73 74 83 79 77 77 75 80 78 79 75 74 73 80 77 79 77 72 71 74 72 70 71 70 70 72 71 72 67 70 75 72 72 70 68 70
82 85 82 80 77 81 83 84 81 82 85 84 77 77 77 77 76 76 77 75 78 77 76 84 79 76 76 75 73 73 73 72 74 77 74 75 64 65 71 71 69 71 71 70 73
85 88 87 86 84 84 85 88 90 91 92 86 79 76 72 75 77 78 77 79 81 80 83 80 82 78 76 79 77 77 76 73 74 74 76 75 65 71 73 72 71 72 73 75 75
91 90 91 91 90 88 92 96 91 91 85 81 78 75 72 74 75 76 77 84 84 86 86 85 79 78 79 73 73 77 77 76 77 78 75 73 66 66 76 73 74 75 74 73 75
95 91 95 96 95 98 96 96 93 85 79 74 71 72 68 67 70 75 80 87 87 88 88 86 82 81 79 78 73 74 74 78 78 80 79 76 68 73 79 76 72 73 75 77 78
102 95 97 101 102 99 100 98 97 87 75 72 67 61 63 64 65 76 84 90 92 90 83 87 81 78 81 83 84 76 71 70 74 78 81 77 63 71 73 72 75 77 78 77 77
101 98 101 102 104 103 103 100 95 83 66 78 65 58 59 61 58 78 83 91 95 94 91 86 82 85 87 80 79 77 73 73 76 78 73 69 61 68 72 72 72 74 72 81 79
99 103 103 106 105 108 106 101 88 76 65 66 63 62 59 61 62 75 78 91 95 98 95 92 88 91 86 82 79 76 76 77 77 77 78 76 69 71 73 76 78 76 80 74 74
103 103 105 107 108 109 103 96 86 71 61 61 56 61 64 59 64 69 79 87 95 98 97 94 89 86 87 89 84 76 77 78 76 76 78 81 74 73 78 82 81 79 79 78 71
109 105 106 109 110 106 102 93 79 69 61 59 59 56 63 62 60 65 73 79 93 97 100 93 96 92 87 85 85 78 80 80 79 79 77 77 82 72 78 82 79 74 68 66 58
104 107 111 110 106 106 103 87 76 70 63 61 57 55 54 58 58 62 69 73 84 95 101 98 92 89 87 88 85 79 81 82 82 81 81 79 76 70 76 72 69 55 56 60 43
111 114 112 112 109 107 95 83 75 69 66 54 55 51 49 55 56 59 64 68 75 86 93 99 95 94 91 86 83 81 82 81 81 80 81 77 75 72 71 67 61 46 52 43 35
113 110 111 112 109 99 87 80 75 66 58 56 52 47 47 51 51 56 59 64 67 78 88 90 92 94 93 90 87 83 80 78 77 71 66 60 59 62 63 61 47 47 36 34 33
114 113 109 103 96 88 80 76 74 61 54 51 50 43 43 49 49 54 58 61 65 70 80 84 84 86 87 87 84 80 77 75 74 69 61 59 60 57 58 53 45 34 35 33 35
111 108 103 96 88 80 77 74 66 58 49 48 48 41 42 47 48 49 54 55 61 63 69 76 79 81 84 85 81 76 79 76 74 66 59 57 57 56 55 45 42 32 34 39 46
104 101 93 88 80 76 72 65 62 55 45 43 40 37 40 42 46 48 53 56 58 62 64 69 72 76 81 80 76 76 77 75 73 66 60 58 58 60 56 42 34 35 40 46 52
99 91 84 79 75 70 65 60 56 48 39 37 36 34 35 37 43 49 49 53 56 59 60 64 70 72 73 76 76 73 75 74 67 63 59 57 56 53 44 39 34 38 47 56 57
87 83 76 72 67 63 59 52 47 41 34 32 33 32 33 40 43 46 48 51 62 61 62 65 65 66 66 66 67 67 64 62 64 62 57 47 44 44 36 41 36 45 56 61 59
79 74 72 63 61 57 51 44 39 36 32 29 29 32 35 39 40 44 48 57 62 57 59 63 66 66 64 61 60 59 58 54 49 41 38 36 37 40 37 39 40 52 60 63 59
69 67 64 61 57 48 42 38 34 31 28 28 28 28 33 37 39 42 50 56 61 57 57 60 64 63 61 60 57 53 50 45 40 38 31 35 28 39 36 38 43 55 62 63 59
65 61 59 56 49 42 36 30 30 28 27 25 24 26 30 37 40 43 49 58 55 47 54 56 59 60 57 56 56 53 51 45 39 35 35 33 35 35 36 39 45 58 63 61 57
58 58 55 48 42 36 31 28 25 24 24 20 22 22 28 32 36 38 40 44 40 44 45 49 48 50 51 50 55 55 52 48 45 38 37 33 33 38 38 42 50 60 64 58 56

GFSSW_250_spd_090.txt.gz
Wind_Speed
64 61 61 66 67 65 64 64 59 59 61 61 62 67 67 68 69 68 69 68 63 62 67 69 72 74 73 68 64 65 58 53 54 57 61 72 71 66 63 65 66 68 67 65 63
65 64 64 65 68 71 73 71 68 65 66 69 72 71 72 73 74 75 73 68 66 65 65 70 73 72 70 69 67 65 62 61 62 64 68 71 69 63 62 66 67 68 68 66 62
66 71 71 72 73 75 75 74 75 73 73 70 73 73 76 77 77 77 76 75 75 73 66 68 72 74 72 70 69 66 63 67 63 66 67 70 66 66 63 66 68 70 68 62 59
73 74 76 76 74 79 78 75 75 73 72 72 77 74 74 75 77 72 72 74 78 75 70 66 70 73 80 76 71 68 64 66 66 67 64 67 68 65 65 67 67 65 62 55 54
79 74 78 80 79 84 79 76 78 80 77 76 73 67 71 78 80 77 78 79 78 77 74 67 71 73 76 82 77 70 71 68 65 63 62 63 65 65 62 62 66 63 56 58 61
82 78 81 79 81 78 79 77 77 77 77 74 74 73 73 79 81 86 87 88 83 77 78 75 74 76 75 76 80 77 73 71 68 68 66 63 62 62 61 65 65 62 63 66 63
82 81 75 77 80 86 85 89 90 82 78 78 75 78 81 86 81 87 89 89 81 80 82 80 77 78 73 79 74 76 77 76 73 72 73 74 68 67 70 73 68 69 68 66 66
82 88 82 82 90 92 93 91 95 91 86 81 82 81 82 82 84 82 80 80 81 80 82 83 79 78 77 79 77 75 74 75 72 76 78 78 72 77 74 75 71 72 72 69 67
90 92 87 93 93 97 99 96 102 93 89 90 88 88 80 80 80 80 77 75 78 79 78 82 81 81 79 81 80 77 73 73 74 75 75 74 72 73 73 76 75 75 73 71 70
95 96 96 97 102 103 106 104 97 94 93 92 90 88 84 81 79 75 76 75 71 74 74 77 81 83 83 83 79 79 78 76 76 74 73 72 70 69 70 73 73 74 71 69 67
97 95 100 102 106 106 104 104 102 95 97 92 94 86 82 83 78 71 72 73 67 69 73 77 80 84 87 86 87 82 79 74 73 72 72 69 75 72 71 75 74 71 70 71 71
98 103 106 109 108 106 109 108 105 100 93 104 96 85 85 79 75 70 66 67 68 65 71 74 79 90 92 87 84 85 81 77 74 74 71 68 65 66 70 72 73 73 73 71 70
105 106 107 108 112 113 109 104 104 105 98 101 92 83 81 74 67 65 65 61 64 66 67 73 82 90 94 92 88 85 82 83 81 79 76 70 63 65 65 71 68 67 66 65 64
104 107 111 111 112 113 111 108 104 102 92 87 92 82 75 67 64 58 60 62 59 65 65 65 78 86 91 93 91 83 85 86 82 80 79 75 68 64 65 71 70 71 69 66 67
109 110 106 111 115 116 109 108 107 103 91 82 80 78 69 60 57 64 60 61 62 61 62 64 78 83 91 94 90 88 79 81 82 80 76 72 71 72 73 76 76 75 73 73 75
111 113 112 116 118 122 118 109 103 99 89 80 75 71 62 56 58 58 64 57 63 61 62 64 74 79 89 94 92 87 84 80 79 81 76 74 71 74 71 74 75 72 71 71 73
111 114 113 116 118 116 113 110 104 96 81 70 71 65 62 56 57 53 59 54 60 60 61 63 69 79 86 91 93 90 87 86 83 78 74 75 76 81 80 76 74 74 75 74 72
106 109 114 109 113 111 107 108 101 86 76 70 65 66 60 51 54 53 54 52 55 58 62 61 64 78 85 85 90 91 91 91 85 77 80 77 74 80 81 78 77 75 74 70 58
108 111 108 110 109 107 106 98 90 80 74 68 67 59 57 52 51 49 49 51 52 57 58 62 64 72 83 85 82 89 90 88 83 79 75 75 78 76 77 73 73 70 55 50 45
116 111 106 106 106 103 96 87 83 75 72 68 61 57 54 48 49 46 47 49 52 57 56 61 60 67 79 86 86 80 84 80 84 87 84 79 77 80 76 72 66 55 48 39 43
105 106 103 101 97 91 86 79 77 71 68 66 57 53 47 44 45 41 46 51 47 52 54 55 59 65 75 82 83 82 81 87 84 78 75 73 73 72 72 65 56 51 46 42 45
102 101 97 91 89 85 79 73 72 66 62 58 51 46 39 40 37 36 42 43 44 49 53 56 60 62 72 77 75 72 71 77 81 75 73 68 65 65 63 63 57 50 44 43 41
95 90 87 86 83 76 70 69 65 61 53 48 46 41 36 36 34 35 38 42 44 47 52 55 60 61 65 71 71 72 71 72 70 68 66 64 64 64 59 55 53 49 42 42 36
84 85 84 80 74 69 68 63 57 49 46 41 38 34 33 32 32 33 37 41 45 49 53 55 59 60 62 64 69 71 71 70 68 66 63 61 60 60 54 52 50 46 40 41 36
80 80 78 73 68 67 61 56 49 42 37 33 30 28 30 31 33 32 37 43 48 52 56 59 60 58 58 59 62 63 64 63 62 62 59 60 57 49 47 46 42 39 40 38 41
78 76 69 65 64 60 55 49 41 35 31 28 25 25 29 29 31 30 37 41 44 49 51 54 56 56 58 60 61 59 58 58 56 53 49 47 42 40 37 37 38 40 40 38 50
70 67 64 62 56 53 47 41 36 32 27 22 21 21 24 28 29 30 32 37 41 44 47 51 53 51 53 55 55 55 55 54 49 44 39 40 39 38 37 37 37 39 38 44 60

GFSSW_250_spd_093.txt.gz
Wind_Speed
58 56 58 61 61 62 61 61 65 63 63 64 67 67 67 66 67 67 69 69 69 68 72 71 69 69 67 62 60 63 59 56 67 66 63 63 62 69 67 63 61 61 66 68 65
62 62 63 60 64 67 67 69 71 72 71 69 68 69 67 71 73 71 71 72 71 73 73 73 72 71 69 66 63 61 61 64 70 71 65 58 68 67 65 61 60 60 63 67 70
66 67 69 64 69 69 72 74 75 75 75 76 75 72 73 69 72 68 70 71 73 76 72 72 72 74 71 68 68 64 58 71 68 69 69 61 65 66 64 60 59 60 61 65 62
68 77 75 71 68 72 72 75 77 78 77 76 76 75 78 74 76 68 72 72 74 73 76 75 73 74 74 73 69 65 60 64 73 70 67 67 66 65 68 64 65 69 63 64 60
72 79 77 77 77 77 74 81 80 80 78 77 75 70 76 76 71 65 69 71 74 78 78 77 80 83 81 80 76 65 66 68 69 72 67 70 65 71 68 68 63 61 65 61 58
72 77 82 82 86 86 87 87 82 84 75 73 79 85 86 82 74 65 63 67 73 76 78 84 88 89 87 83 85 75 70 66 67 75 70 70 70 69 67 66 59 63 65 64 64
74 75 78 86 88 85 87 91 82 85 89 81 86 90 93 89 76 70 70 70 71 74 78 87 93 95 94 94 89 83 74 70 70 73 76 74 71 68 68 62 55 55 56 57 57
68 75 81 88 89 90 90 86 87 92 92 87 91 94 90 89 84 78 76 78 75 79 84 83 85 91 92 91 89 88 81 73 74 76 71 83 68 71 75 72 71 66 61 59 62
76 78 85 94 95 90 86 88 89 89 91 95 96 95 97 95 90 84 83 83 86 84 83 84 80 83 87 88 85 87 82 79 77 77 73 75 77 78 74 70 74 72 69 68 70
82 84 86 90 87 87 91 98 91 95 97 96 99 103 97 92 84 83 85 85 82 84 85 82 77 74 76 82 79 89 89 83 78 79 76 74 73 78 75 74 74 74 74 74 75
82 87 88 94 96 96 92 94 96 97 102 102 104 99 104 93 91 86 83 82 83 82 83 82 74 64 76 79 79 85 87 84 79 85 77 71 71 72 75 74 78 76 75 75 74
93 97 95 92 98 96 97 99 101 100 99 108 108 102 101 98 94 86 82 82 81 80 81 80 65 68 72 74 76 79 85 81 82 84 80 72 68 69 69 71 75 74 71 69 67
93 94 95 97 98 99 103 104 107 103 104 105 104 100 100 98 92 86 83 80 80 77 76 74 64 66 67 67 71 74 79 82 82 86 78 75 63 72 73 70 71 70 67 66 67
99 100 96 102 104 102 108 104 106 107 106 102 98 99 99 98 90 86 82 78 73 72 71 64 64 60 62 59 66 69 78 82 82 84 79 75 66 70 71 71 70 66 63 64 65
98 104 105 106 103 108 105 106 105 109 105 99 97 103 101 93 87 81 72 73 68 67 65 55 62 58 55 57 61 66 78 79 81 84 81 71 72 71 72 70 71 67 63 65 61
105 101 101 100 105 107 106 105 110 112 107 105 105 102 97 91 78 68 69 64 66 61 62 58 62 56 51 57 55 64 70 79 82 82 77 76 78 75 82 74 72 71 69 64 62
97 99 100 105 108 113 112 113 114 110 107 106 109 100 91 81 71 65 61 62 61 60 61 59 59 55 53 52 54 61 66 77 83 81 73 77 76 61 79 76 77 74 69 69 68
97 104 103 108 109 111 114 116 110 108 107 108 102 94 88 74 67 60 60 56 51 55 57 53 52 51 51 52 54 58 63 71 78 80 71 70 68 79 80 80 78 75 69 70 70
104 101 109 109 110 108 110 116 109 105 103 100 95 89 81 69 60 56 55 50 47 49 51 46 46 47 51 55 56 56 58 64 76 79 81 78 77 77 77 77 78 77 77 76 76
107 109 109 111 108 109 113 108 107 104 100 93 87 78 75 64 60 54 48 47 44 45 44 43 46 44 50 54 53 54 59 61 66 78 79 79 78 78 74 74 75 74 69 71 73
114 114 112 109 105 108 108 107 105 98 89 83 77 73 69 63 57 47 41 39 39 38 41 41 44 44 50 48 53 57 61 63 63 66 79 80 78 78 80 79 75 74 74 74 73
116 112 112 110 107 105 103 101 97 89 80 71 69 67 64 58 48 37 35 31 32 33 36 39 42 46 49 53 57 61 65 66 67 62 67 72 74 79 82 80 74 72 70 69 70
102 108 106 103 105 101 96 93 86 78 70 66 62 60 55 49 40 30 31 29 27 28 35 40 43 47 49 56 60 64 69 65 60 56 55 64 71 79 82 77 80 77 73 69 65
100 100 97 97 96 92 89 84 75 67 65 60 56 50 45 40 32 25 32 28 25 29 38 45 49 54 54 58 61 64 67 70 67 65 62 58 62 67 66 65 66 65 64 59 58
89 92 91 89 86 82 79 72 66 63 59 54 44 40 35 34 26 26 32 28 23 32 41 43 45 50 53 57 60 62 65 70 72 71 63 62 61 60 57 57 58 56 52 52 49
81 81 82 78 76 75 69 66 63 59 51 43 35 31 28 28 26 26 28 24 24 33 42 50 54 53 52 50 54 58 62 66 66 63 62 62 62 54 57 55 53 49 48 47 41
75 74 71 69 71 66 61 62 58 50 38 35 29 26 26 24 24 20 22 23 25 31 38 44 48 48 49 51 57 59 62 63 61 59 62 61 59 56 56 54 50 46 44 42 44

GFSSW_250_spd_096.txt.gz
Wind_Speed
59 59 59 60 60 58 57 58 61 60 63 65 68 67 67 69 69 68 71 67 63 63 65 69 70 70 70 69 69 70 64 55 56 64 57 58 60 62 57 59 65 64 60 65 64
59 58 61 66 65 62 62 63 68 68 67 66 69 71 71 70 69 66 68 68 70 72 70 68 68 70 70 69 70 72 66 57 62 63 64 62 60 60 58 64 63 63 60 59 53
60 63 63 64 62 63 70 75 74 74 76 73 71 72 76 76 75 73 76 73 69 68 66 77 73 70 68 71 75 74 67 70 66 67 68 65 61 56 59 63 63 59 57 52 51
64 61 61 58 67 74 72 71 72 76 74 75 78 81 83 86 84 82 74 70 72 73 67 65 75 75 71 70 72 72 71 74 72 71 70 67 63 54 57 63 64 58 56 54 54
65 66 67 70 70 70 80 81 78 80 78 79 83 85 85 86 82 78 81 77 77 82 77 65 63 69 71 72 74 73 73 75 75 78 75 72 65 58 54 66 64 63 55 55 59
72 71 72 71 73 76 73 78 83 74 78 82 85 82 81 81 78 75 79 78 83 81 81 75 67 66 67 70 74 79 80 81 81 80 81 79 67 60 57 66 64 59 58 58 62
76 72 76 74 76 75 80 82 82 82 78 85 86 91 95 86 82 86 83 86 85 83 79 77 71 71 72 73 79 81 85 89 88 86 88 85 71 57 66 64 64 63 58 59 59
79 76 75 76 74 77 82 80 87 84 84 89 91 89 82 88 88 87 89 92 89 89 86 82 79 79 80 80 81 86 94 94 91 96 90 93 67 70 73 70 62 64 61 59 51
78 78 78 76 76 81 82 85 87 85 90 87 89 88 89 93 87 92 96 96 93 92 86 84 83 81 79 84 86 88 98 100 95 94 89 95 76 76 78 71 68 63 60 65 67
83 81 82 84 84 83 87 86 87 93 90 90 92 91 93 91 93 99 100 96 94 94 86 84 85 80 76 86 89 91 99 92 84 86 91 87 77 78 80 71 69 70 60 63 68
84 87 82 83 80 83 87 93 94 91 98 96 95 89 95 97 100 104 98 94 95 89 89 88 85 76 85 89 86 87 87 83 78 82 88 78 77 77 78 66 64 64 71 69 68
88 84 85 86 90 92 95 95 97 97 88 92 95 101 104 107 104 102 93 97 90 87 90 92 84 79 87 88 83 76 78 73 75 75 82 74 73 75 79 60 70 75 73 68 70
91 88 86 90 84 90 93 93 96 100 100 102 98 105 106 102 105 103 100 95 91 90 91 92 80 83 84 78 77 70 65 66 67 72 71 69 68 75 79 77 61 74 74 71 69
96 95 98 101 97 100 104 101 104 105 103 102 100 99 103 105 107 99 101 96 89 90 87 86 79 80 79 68 70 61 59 61 62 66 62 67 67 78 80 75 71 68 67 61 65
97 102 100 96 94 92 95 97 104 106 105 98 95 99 105 100 99 99 96 92 87 83 82 72 74 74 70 62 60 51 57 55 59 61 60 62 64 73 79 76 74 64 65 61 58
97 92 91 92 98 93 97 103 104 105 106 104 103 105 100 102 100 97 95 92 85 76 69 66 67 66 62 56 51 49 50 52 53 56 51 59 62 71 75 73 76 60 63 62 55
104 106 98 96 97 102 106 103 105 105 110 112 111 104 103 101 100 97 91 83 79 74 61 59 62 63 57 50 48 46 47 45 48 46 45 56 64 66 65 72 67 67 57 55 53
89 100 111 111 107 105 108 106 109 111 114 119 111 108 105 106 101 92 82 74 71 65 57 55 53 54 50 47 47 49 45 43 41 41 44 53 59 63 69 66 70 67 64 55 57
103 88 92 104 105 109 108 107 110 114 120 119 117 115 109 106 97 87 78 69 62 59 52 49 48 43 43 41 41 43 39 41 43 39 44 49 56 63 65 67 66 70 57 53 56
98 98 95 93 100 107 108 113 115 114 118 121 117 107 104 98 91 84 73 64 58 50 43 40 35 37 40 34 38 40 47 43 39 43 47 50 56 64 63 65 68 70 73 66 66
94 93 100 104 108 110 112 113 115 116 115 115 110 103 97 86 78 75 68 57 49 41 36 33 34 35 35 30 34 38 44 38 41 44 48 56 55 59 56 73 68 68 62 68 65
89 95 100 105 109 113 110 109 109 112 110 108 98 93 84 73 71 67 58 47 40 33 30 30 30 29 33 35 37 41 44 43 44 45 49 59 58 65 71 68 73 68 68 76 75
87 88 96 100 104 106 105 108 107 105 103 95 87 80 71 65 61 54 47 37 30 23 23 23 25 27 29 30 33 36 41 44 45 44 48 64 61 69 72 80 72 70 70 71 71
76 83 93 97 97 99 99 99 99 95 89 81 76 69 62 54 48 45 38 26 22 17 18 24 30 30 30 36 39 45 48 49 51 49 55 62 72 81 77 77 75 75 72 73 69
73 78 82 86 88 90 91 89 87 80 74 70 66 59 52 45 38 39 30 18 17 16 23 29 34 35 34 40 44 55 57 57 59 57 60 64 71 65 64 63 68 71 71 69 69
69 72 75 78 80 80 81 78 73 72 65 61 57 51 42 36 32 30 20 13 19 19 26 31 37 40 45 47 54 62 70 69 66 57 55 65 60 53 61 68 65 65 67 68 63
70 72 70 73 74 74 71 69 68 61 58 55 49 43 35 29 24 22 16 14 18 21 28 31 35 39 45 50 55 62 67 64 59 59 59 56 50 52 48 53 50 54 50 41 45

GFSSW_250_spd_099.txt.gz
Wind_Speed
57 55 53 56 49 50 54 58 58 54 53 54 55 57 59 61 60 63 64 63 63 65 66 70 70 72 68 68 70 74 68 60 65 63 61 64 59 64 63 52 49 48 45 57 52
59 61 56 55 55 54 53 59 61 61 65 66 66 62 59 62 64 61 67 69 69 72 73 72 80 72 70 75 72 73 72 65 70 70 64 64 62 60 67 58 52 51 51 60 52
62 61 58 59 58 59 62 60 58 63 63 61 63 71 74 73 66 72 70 73 75 73 76 75 71 69 69 66 72 69 67 69 70 72 71 68 68 66 66 65 59 58 58 58 55
62 61 62 65 64 61 62 65 68 66 62 65 67 68 69 72 72 74 75 72 74 71 75 80 73 72 70 70 73 68 67 69 70 74 75 69 68 67 70 66 67 62 61 60 56
64 61 65 72 71 71 65 70 66 72 68 68 66 70 73 71 78 77 78 77 80 81 84 75 75 77 75 78 76 73 66 66 69 72 75 75 70 69 70 68 68 65 64 59 57
61 65 74 79 78 73 72 75 71 67 71 69 71 69 78 79 77 75 80 85 86 80 82 79 79 77 81 85 84 75 69 66 67 74 78 81 77 81 74 74 69 68 68 62 56
62 63 64 70 78 78 78 73 72 69 68 71 75 77 77 79 78 83 86 81 82 83 86 85 86 85 90 91 85 82 73 70 67 73 84 88 89 81 79 83 77 73 68 63 57
67 67 68 72 76 80 75 75 73 71 71 75 74 71 80 81 82 83 84 90 86 85 84 89 90 90 96 93 90 84 83 77 69 80 79 93 87 86 91 91 85 78 71 67 59
72 73 74 76 77 80 78 77 75 74 77 78 78 81 83 82 85 86 88 87 84 80 84 90 96 99 94 95 91 85 87 83 75 79 85 92 91 91 95 93 83 81 77 68 60
80 78 78 82 84 83 81 81 79 81 83 80 80 81 79 82 87 92 91 81 83 89 95 98 97 89 95 97 92 89 90 86 83 71 89 90 85 89 91 95 86 87 81 67 63
84 83 87 87 87 87 84 88 80 88 87 86 81 82 88 88 87 90 84 91 99 97 97 98 88 86 92 96 95 91 90 90 82 82 92 89 80 76 84 82 83 82 77 74 68
89 89 91 91 92 92 90 90 84 84 85 87 87 86 89 91 90 91 95 102 97 93 90 93 85 91 89 91 94 91 89 85 83 82 89 83 72 70 72 71 70 73 77 82 77
94 96 95 96 97 90 94 83 87 92 94 96 91 97 93 94 91 96 96 96 94 91 94 92 88 90 94 92 92 90 88 82 81 78 80 69 64 60 64 63 72 67 69 74 75
104 99 100 98 92 87 91 91 98 101 93 91 98 93 92 93 94 94 103 101 98 96 98 88 94 94 90 87 89 87 79 78 67 64 58 66 46 52 56 58 60 64 68 69 69
111 104 105 98 97 93 97 102 106 108 102 96 86 89 89 94 101 106 108 113 103 101 93 81 89 89 86 80 79 73 71 67 61 50 47 53 40 47 53 49 54 59 63 65 68
112 109 107 101 105 92 101 106 108 107 108 104 102 104 102 103 109 112 117 119 112 103 92 88 83 81 78 69 68 66 61 55 52 42 36 45 37 41 47 48 50 53 56 61 59
109 107 106 106 105 104 109 108 102 93 102 103 105 105 111 115 109 107 105 106 106 105 89 85 76 70 67 58 63 59 55 49 40 34 33 42 28 39 45 42 43 51 57 60 54
105 101 100 102 104 107 109 110 111 117 92 96 97 97 104 113 108 104 102 101 104 100 85 70 64 62 59 53 54 49 47 42 39 32 35 26 27 39 41 40 33 42 59 61 64
99 97 94 103 103 101 107 107 111 110 107 109 111 115 116 113 108 102 99 99 98 91 75 64 59 51 51 49 45 40 36 43 37 31 28 28 31 34 36 39 45 53 50 63 61
86 84 81 86 87 92 91 97 101 103 103 109 113 116 116 117 111 104 100 95 84 72 62 57 54 45 43 38 33 36 37 33 31 28 31 31 32 33 36 42 56 60 45 51 59
63 64 70 68 69 75 79 86 93 97 100 105 113 114 111 109 103 95 91 80 71 63 57 52 42 34 31 30 31 30 28 26 29 33 39 35 33 31 45 43 53 45 46 47 59
59 61 63 65 69 77 81 85 87 91 97 101 105 106 105 97 94 83 75 66 61 55 46 41 31 26 25 25 28 29 33 35 41 42 44 45 45 41 37 62 55 53 62 56 53
60 64 67 70 70 74 76 75 83 90 94 94 94 95 91 86 72 66 63 57 48 41 35 31 26 22 21 25 27 26 29 38 42 47 49 52 51 58 50 49 57 68 63 53 52
58 63 65 69 70 60 66 72 76 79 81 85 86 82 72 65 60 58 53 42 38 34 29 24 25 24 27 28 32 33 38 40 44 48 56 58 64 62 62 57 55 59 63 56 57
59 63 66 67 65 67 68 69 71 74 76 76 72 64 58 55 52 45 37 34 32 29 26 23 23 26 30 30 32 34 38 44 48 53 61 66 61 59 65 69 60 55 55 59 56
60 56 60 61 60 64 66 69 70 70 68 66 62 57 53 49 40 32 28 28 27 26 22 20 23 32 35 36 38 39 43 49 56 58 59 65 63 59 63 65 62 58 53 51 53
59 51 56 61 63 66 69 69 69 64 61 61 57 52 47 40 28 24 21 22 22 24 20 21 26 30 37 41 43 46 53 56 58 56 56 57 62 64 62 59 58 60 60 58 58

GFSSW_250_spd_102.txt.gz
Wind_Speed
63 59 56 58 57 60 65 61 53 49 49 47 43 47 49 50 51 53 56 56 60 63 63 61 63 62 65 69 65 70 68 69 72 72 70 69 67 72 71 65 68 70 63 57 50
68 66 61 62 61 61 65 65 57 54 52 51 58 57 54 54 53 53 55 54 55 61 65 68 67 65 65 65 65 68 71 65 68 67 64 68 70 71 72 69 70 74 66 61 59
65 65 63 65 66 66 63 65 60 60 60 60 56 54 58 58 69 58 53 55 59 60 67 67 71 70 68 69 75 76 69 62 65 64 63 58 63 67 70 69 72 73 71 64 63
64 64 65 66 68 69 66 68 66 64 64 66 63 59 59 62 62 66 62 60 62 68 70 73 67 66 67 74 78 70 71 64 65 70 69 70 66 63 68 70 74 74 72 68 67
67 66 66 67 68 71 73 70 65 63 67 70 69 65 63 66 64 63 66 67 65 69 71 75 71 68 76 77 80 72 73 70 73 76 80 77 65 64 66 72 73 75 74 72 71
68 66 66 68 69 69 67 70 72 68 70 69 70 70 69 68 66 65 65 67 64 68 72 73 78 75 78 80 81 77 76 79 77 83 87 83 69 65 59 74 75 77 78 74 71
68 69 68 70 71 67 64 63 64 65 64 70 69 73 71 73 67 66 65 67 74 74 72 75 81 81 79 78 77 77 77 77 83 89 85 85 68 63 67 74 78 82 81 80 75
73 72 69 70 70 67 67 59 63 65 66 70 73 75 76 74 69 68 70 73 75 68 79 81 80 78 79 75 75 80 84 86 84 86 81 88 81 68 76 75 78 83 86 85 83
72 70 67 70 72 70 66 64 67 71 68 73 75 79 77 74 75 74 77 78 71 76 72 79 83 83 83 82 84 91 92 87 71 86 88 93 87 70 77 79 73 78 84 88 87
79 76 72 71 73 73 69 73 70 73 78 77 74 79 80 82 81 79 79 78 75 77 79 80 81 82 84 91 89 90 88 85 81 83 97 93 87 82 80 80 77 77 80 87 87
82 82 80 82 78 77 77 77 77 79 83 84 85 84 86 87 87 82 81 77 83 88 85 88 83 80 86 89 93 93 95 88 89 92 102 94 89 86 85 81 79 80 81 83 82
87 86 88 92 88 86 83 85 83 83 86 90 88 90 92 91 85 83 81 89 96 85 86 88 77 85 89 91 98 104 100 99 97 92 98 93 86 79 80 78 82 78 78 81 73
94 91 91 94 97 92 91 90 88 93 92 97 95 96 94 89 86 86 93 94 99 98 88 86 81 87 96 102 99 97 106 100 97 92 94 94 80 73 67 72 73 72 73 67 66
102 97 98 96 97 101 99 96 99 97 97 101 99 93 98 94 95 100 103 102 99 99 96 92 96 102 100 98 104 108 105 100 97 93 88 84 69 56 59 60 63 66 60 57 63
112 111 108 105 102 102 102 101 102 104 104 104 101 103 106 105 102 104 105 106 107 94 101 90 97 96 100 101 104 101 96 92 92 83 75 60 57 47 53 51 56 55 48 50 51
118 116 112 111 109 107 106 108 106 108 110 103 100 106 107 110 104 105 108 111 109 99 109 108 102 103 103 101 94 91 87 83 74 66 51 56 44 48 46 47 44 36 39 40 44
118 116 110 106 109 109 110 112 114 104 105 102 104 107 107 111 109 108 110 107 109 114 115 110 105 103 108 94 79 84 75 65 57 54 50 43 41 39 36 32 31 32 36 37 42
114 112 111 108 107 108 109 106 100 96 103 106 107 108 105 108 106 109 106 107 111 114 109 98 94 99 98 80 67 71 61 55 50 46 38 36 40 32 26 25 28 30 36 36 38
97 100 102 99 101 98 98 98 94 95 100 103 100 100 102 102 104 102 103 108 105 101 96 90 73 77 68 67 59 60 51 46 40 37 31 29 27 28 23 22 28 34 38 38 43
83 84 87 88 86 88 86 86 88 91 90 91 92 91 89 92 96 98 95 92 87 86 84 74 63 59 59 56 52 46 39 34 31 28 32 28 28 29 26 33 37 34 38 35 50
69 70 72 73 73 77 77 76 74 75 73 70 71 76 81 84 87 88 85 82 78 78 72 62 57 54 54 44 40 32 29 27 26 31 33 36 33 33 37 48 42 47 50 37 53
55 55 56 57 55 56 56 57 60 61 63 67 71 74 76 80 79 77 72 68 68 64 61 56 52 48 43 35 28 23 22 27 32 35 37 40 39 38 47 59 51 44 48 47 49
43 46 45 47 46 48 51 54 57 60 63 69 72 75 74 73 67 66 63 61 59 55 52 46 42 38 32 26 25 26 32 40 44 44 46 48 46 44 52 56 63 59 53 54 44
40 39 39 37 43 49 50 53 55 60 64 67 68 70 71 65 57 57 56 54 50 47 43 36 31 27 23 22 23 26 38 43 42 47 51 54 58 53 48 50 63 62 58 57 45
38 37 41 44 45 46 47 51 54 58 60 64 66 68 61 53 50 48 47 46 43 37 31 26 23 20 19 21 26 33 37 44 44 48 54 62 59 60 59 56 53 50 56 56 53
43 42 38 40 42 45 49 52 51 53 58 62 64 55 48 45 44 46 44 38 32 28 25 22 19 20 24 29 35 36 40 46 49 55 62 64 67 63 60 58 61 61 58 48 53
44 43 42 42 45 48 52 48 51 60 62 58 54 48 44 40 40 42 37 28 25 25 22 20 21 25 29 33 37 41 46 55 58 58 63 62 60 62 59 56 53 54 58 54 46

GFSSW_250_spd_105.txt.gz
Wind_Speed
72 69 69 65 65 64 62 61 60 59 59 62 64 56 50 53 53 53 55 57 53 53 53 51 51 48 51 55 54 60 53 56 52 59 62 66 68 68 67 61 67 69 68 67 62
73 76 73 70 69 66 63 63 62 62 64 62 65 69 59 55 56 56 60 62 59 56 59 58 54 52 54 55 53 54 55 58 61 62 64 61 66 62 61 57 60 67 66 66 61
78 82 81 74 70 68 65 64 63 65 66 68 68 66 66 63 62 62 67 61 63 59 57 58 61 56 54 57 60 63 58 56 61 65 67 65 68 62 61 61 62 68 67 66 64
77 80 81 77 70 69 66 64 69 68 68 72 72 70 70 69 70 64 68 69 66 60 59 65 63 62 58 57 62 55 56 63 65 66 69 71 69 64 69 70 69 73 73 69 65
79 84 83 75 70 68 69 68 67 70 72 73 72 74 69 68 66 67 68 67 66 65 65 68 65 60 58 64 66 57 63 69 67 73 71 71 67 66 68 71 78 80 78 67 68
80 80 82 74 72 72 72 71 68 71 70 72 70 71 75 75 68 68 73 72 69 68 70 69 69 66 61 64 67 71 67 70 73 70 73 73 70 65 70 80 82 82 80 70 68
75 81 78 74 72 73 71 72 71 69 70 69 70 68 67 70 67 72 73 74 74 73 77 76 73 66 65 67 71 68 69 72 74 78 75 79 68 71 83 85 80 78 74 71 71
74 76 78 78 72 71 71 69 71 72 70 69 69 69 68 69 70 72 75 76 76 78 78 75 72 68 67 68 70 69 65 69 77 75 75 80 73 80 85 77 75 76 77 75 74
76 78 78 78 80 74 70 69 70 73 72 70 67 67 71 71 74 74 77 77 77 80 81 82 77 79 75 73 72 75 73 73 78 78 86 91 80 69 83 86 76 77 78 81 80
81 82 84 80 82 82 79 76 75 73 72 72 74 74 75 76 79 80 80 81 81 81 83 85 85 81 78 77 77 86 86 75 76 78 81 83 84 73 79 82 79 83 86 84 83
92 88 89 87 83 83 84 84 79 73 71 78 77 79 81 83 80 85 88 84 84 85 86 84 83 78 77 81 86 90 89 81 80 80 83 87 86 86 84 87 89 93 89 88 86
104 99 98 95 91 89 87 85 82 81 79 81 82 81 84 83 87 91 90 90 93 91 89 89 86 84 85 89 95 97 97 89 81 84 92 91 84 84 88 94 97 92 88 87 89
110 108 108 105 102 99 96 92 90 90 88 93 90 86 88 88 88 92 94 95 97 96 94 88 93 95 91 93 97 98 99 93 90 88 93 96 85 83 84 96 96 89 88 87 78
116 112 115 112 108 111 109 100 97 96 96 95 100 98 97 102 101 97 97 100 101 103 102 99 100 99 99 97 99 96 104 99 99 103 97 100 89 78 95 88 86 84 83 63 66
125 126 121 121 120 121 119 113 107 104 105 103 97 100 103 106 101 94 99 99 101 104 104 106 106 109 113 107 103 101 104 104 105 103 93 79 89 64 82 67 66 63 54 50 54
137 134 129 128 128 126 125 118 115 113 110 109 107 105 107 103 104 107 106 106 107 107 107 105 107 108 107 106 107 107 104 101 94 90 83 80 84 70 64 56 52 45 43 43 42
138 136 134 136 133 132 127 121 120 116 111 110 108 109 107 102 102 106 109 110 108 105 103 104 106 103 105 107 104 99 92 87 82 81 76 76 66 63 53 47 41 41 41 35 34
109 110 108 110 114 115 121 121 122 113 111 103 102 104 103 101 101 104 107 109 107 106 101 101 103 102 100 101 94 88 85 81 77 69 66 62 56 48 42 37 36 35 36 33 31
89 90 92 96 100 99 100 99 100 100 97 95 97 100 96 96 99 99 97 98 99 99 101 99 90 85 87 81 78 73 71 69 61 59 56 51 47 41 33 31 32 31 32 30 31
78 80 80 81 83 86 86 85 87 88 90 89 88 87 87 86 85 85 86 90 91 88 83 78 73 80 75 66 68 57 55 57 53 50 45 44 41 34 30 29 30 30 28 31 35
68 67 67 68 70 72 73 74 76 79 76 75 75 73 75 75 73 72 71 71 73 72 73 75 72 66 58 57 53 51 49 46 41 36 36 36 34 34 33 35 36 36 34 30 36
54 53 53 56 57 58 57 58 62 63 62 60 58 56 53 55 58 63 68 68 70 69 74 71 60 52 52 50 47 44 38 35 35 34 33 34 34 37 41 44 41 41 35 33 38
45 44 46 46 46 46 47 48 50 48 46 45 45 47 51 57 61 66 66 65 65 69 65 54 48 47 45 41 36 31 31 33 36 37 38 39 37 45 47 50 47 43 42 35 41
39 39 44 42 41 43 40 38 37 37 40 43 45 49 52 56 59 60 60 61 59 56 52 48 44 41 33 29 27 28 32 35 37 40 41 44 48 60 56 55 51 45 46 43 38
40 41 41 41 41 34 34 33 35 39 40 42 47 49 52 52 53 56 53 52 50 47 44 40 35 30 25 24 26 28 34 38 43 42 47 48 52 63 62 62 58 53 53 49 43
40 39 39 37 35 31 30 34 39 41 40 43 48 48 48 52 47 50 47 46 42 39 36 31 27 23 18 20 23 27 28 33 39 46 48 51 52 60 67 65 62 58 55 53 51
42 36 34 32 30 31 34 37 41 41 43 46 47 48 49 49 46 45 41 39 37 35 30 25 21 17 16 24 30 31 39 39 47 49 49 54 56 60 61 66 64 60 57 56 49

GFSSW_250_spd_111.txt.gz
Wind_Speed
63 61 62 60 59 64 67 68 68 63 60 66 70 65 63 65 57 59 63 62 60 63 63 63 68 68 64 59 57 57 51 56 60 60 56 59 57 60 59 56 56 58 53 50 52
70 65 70 67 64 67 70 74 76 70 66 65 69 76 69 63 60 58 64 65 62 62 64 63 63 64 61 61 60 59 59 61 61 63 62 56 58 61 57 57 57 58 56 55 53
72 74 75 77 70 70 69 71 71 69 71 69 73 73 74 71 65 62 66 68 67 62 65 65 64 67 68 66 71 68 68 69 63 64 63 60 58 57 60 60 62 60 61 55 56
77 77 77 75 74 76 77 74 70 67 72 72 69 78 79 72 70 62 67 66 66 66 68 66 69 65 67 66 67 68 69 68 65 65 63 61 57 58 60 63 66 67 63 58 61
79 77 85 85 83 78 79 76 72 75 67 68 74 81 81 74 73 67 64 64 63 65 69 71 69 69 70 70 68 67 68 69 68 70 69 68 64 63 61 65 65 65 64 63 67
79 82 84 89 85 85 76 71 72 77 76 73 77 85 81 81 72 70 66 64 65 68 69 71 70 68 68 69 71 71 73 73 73 72 67 72 72 67 65 66 68 68 66 70 69
84 83 88 90 94 97 90 78 80 82 83 81 79 83 77 80 76 69 64 65 63 65 68 70 69 69 66 65 66 70 71 70 70 74 71 69 69 73 71 73 74 74 74 68 68
87 87 90 93 95 99 98 96 90 82 83 84 85 82 81 82 76 71 64 61 64 66 68 67 69 72 69 70 72 76 77 76 75 75 72 71 68 73 76 77 78 77 76 76 73
91 93 93 95 99 100 104 101 97 98 88 88 85 87 87 81 79 74 75 68 64 64 66 69 73 72 75 78 75 75 77 79 79 79 80 79 75 80 79 81 79 78 76 76 76
90 93 95 98 101 101 105 110 110 103 99 98 98 102 88 86 77 75 77 73 70 68 66 71 73 75 78 80 80 82 82 83 84 87 88 86 78 84 86 86 74 71 69 72 80
94 99 102 107 110 105 108 112 110 110 102 103 102 102 89 86 85 83 80 78 80 79 78 71 71 75 80 81 82 83 85 88 88 91 91 89 84 88 95 84 71 76 83 83 81
101 104 104 111 112 110 110 111 117 116 108 102 100 95 89 87 83 85 86 86 85 84 85 85 81 81 80 84 86 86 87 88 89 92 94 91 77 69 85 77 86 89 91 84 77
111 114 111 112 109 111 110 109 113 116 113 108 107 100 97 93 91 91 92 95 94 94 95 95 91 90 91 86 85 88 88 90 92 91 88 88 72 78 87 88 92 91 90 86 82
118 112 113 110 115 110 113 113 117 118 113 110 108 108 108 102 98 98 104 103 101 100 104 103 102 101 102 102 104 100 98 92 95 96 93 98 82 85 91 90 88 89 86 83 83
115 119 115 113 112 116 114 117 120 119 122 115 111 114 114 111 109 109 109 111 113 111 112 113 111 111 110 108 109 107 105 102 99 100 98 100 92 74 81 91 92 88 86 86 85
119 118 118 117 120 119 118 120 121 125 120 121 118 113 115 116 113 112 114 113 116 116 113 115 116 115 110 110 111 106 104 103 100 100 97 94 93 81 84 86 85 83 83 82 79
122 122 123 124 124 124 122 124 126 123 120 121 115 116 115 110 110 111 102 95 87 89 92 96 98 95 97 95 93 97 96 94 94 92 90 92 91 83 78 79 78 70 71 72 70
130 130 131 127 127 126 125 126 124 117 119 116 119 114 112 105 100 98 91 84 77 76 75 76 77 77 79 83 84 83 83 85 85 86 84 82 81 77 75 70 69 65 64 58 55
132 130 131 129 131 128 124 116 111 110 114 117 113 106 98 94 87 86 81 74 68 64 66 65 67 70 75 77 77 77 79 79 76 76 76 75 75 66 67 62 58 54 48 44 43
130 128 130 126 124 117 112 112 113 108 104 94 83 77 73 71 71 69 64 59 59 57 58 61 63 66 69 67 68 69 69 69 69 72 69 66 62 60 55 49 45 43 42 40 35
121 119 116 111 108 106 106 102 96 86 81 77 71 64 59 58 58 56 51 52 51 51 53 55 56 59 59 59 58 60 64 65 63 62 56 56 54 49 45 45 42 39 34 29 24
110 111 106 105 100 92 87 79 74 69 66 60 56 54 53 50 49 43 43 42 43 46 46 49 51 50 49 50 54 57 56 54 51 51 49 50 48 41 42 38 34 30 25 20 21
100 99 92 85 78 72 70 65 60 57 53 51 49 46 43 38 32 33 36 36 38 41 41 41 43 46 50 53 54 52 49 45 43 46 47 46 41 38 32 28 22 24 23 18 24
73 70 63 62 60 61 57 50 46 43 43 37 33 32 27 23 27 30 33 37 40 39 38 39 46 50 51 52 50 45 41 40 40 42 41 38 32 29 26 25 26 27 17 23 26
53 51 53 50 52 50 47 44 41 42 38 33 26 21 22 26 31 35 38 39 38 38 41 44 47 52 50 47 43 40 38 37 35 31 30 26 25 24 24 25 31 29 27 31 29
43 45 46 46 47 44 43 43 39 36 30 20 19 24 27 31 34 36 36 38 40 44 46 44 42 42 38 37 37 34 32 30 25 24 23 21 22 24 23 26 36 33 35 33 33
39 41 40 42 40 35 35 34 32 29 20 20 26 28 31 33 34 36 38 41 44 46 41 34 31 32 33 31 28 28 25 23 19 19 20 19 21 22 24 36 39 36 38 38 38

GFSSW_250_spd_114.txt.gz
Wind_Speed
65 66 65 60 58 62 61 58 61 65 67 63 66 72 72 64 63 64 56 54 56 63 59 58 56 56 53 57 57 55 59 63 60 59 57 59 60 61 59 59 59 54 53 54 56
71 67 69 63 63 66 61 65 63 68 72 69 69 69 69 69 69 69 64 59 62 64 68 58 59 62 60 58 53 57 56 56 59 60 61 61 64 65 62 62 60 61 58 54 56
72 70 73 71 67 65 61 64 63 67 66 71 69 65 66 64 63 63 68 65 63 68 66 65 60 61 63 61 60 53 55 60 65 64 67 70 71 70 67 66 66 63 60 55 54
75 76 76 72 74 66 65 65 71 74 80 79 71 67 63 66 65 65 65 67 67 63 67 72 62 61 62 63 64 60 58 56 60 63 67 70 67 67 66 70 66 62 60 59 59
82 79 80 81 81 72 74 75 72 74 80 83 76 74 72 79 74 68 68 66 67 68 70 69 70 62 62 63 65 64 62 59 58 65 68 70 71 72 72 71 71 70 68 63 62
86 85 83 82 81 78 78 82 79 78 81 89 87 82 80 82 78 76 74 72 70 71 69 71 72 66 63 64 63 65 66 65 63 65 67 69 71 69 73 74 74 73 72 71 70
91 90 86 85 91 84 83 83 81 80 84 85 90 87 90 92 88 88 81 77 73 73 73 73 73 69 66 64 64 63 66 65 64 66 69 71 71 71 72 72 71 72 73 73 72
90 90 89 88 91 88 87 85 84 84 86 87 89 89 91 93 93 88 88 81 74 74 72 72 73 72 66 67 66 68 67 69 70 71 71 73 76 76 76 74 73 75 76 77 75
100 96 96 93 93 92 90 91 87 88 91 92 90 91 91 92 94 90 83 85 81 81 77 77 74 76 74 72 71 70 71 70 71 74 76 74 75 77 76 77 78 79 82 83 84
93 93 95 95 92 89 88 91 92 91 87 91 93 92 94 98 96 93 92 91 85 80 77 80 78 80 78 78 71 73 73 77 77 76 78 79 80 84 84 85 86 86 87 88 88
96 94 94 93 92 96 89 88 90 84 86 91 94 94 100 100 101 98 100 98 96 94 88 83 83 81 84 84 81 80 76 79 81 81 83 83 83 90 90 92 92 92 92 92 93
95 94 92 97 97 98 95 90 86 87 93 95 97 100 98 100 98 99 100 100 99 99 100 98 92 91 91 88 87 87 88 84 82 85 86 86 81 96 95 96 94 94 93 94 94
97 94 96 96 100 101 103 94 95 97 97 95 106 104 106 104 105 106 102 102 103 103 104 102 100 96 93 92 93 91 90 90 92 93 89 91 79 95 96 97 98 96 100 99 93
100 104 100 102 100 99 100 96 97 104 112 107 108 108 106 106 107 107 109 112 113 111 105 101 100 102 101 98 98 100 99 98 97 97 94 94 91 87 97 99 90 96 94 91 92
112 104 99 105 103 102 103 108 106 110 116 108 100 102 104 106 110 113 116 117 119 115 107 106 97 97 100 103 103 103 104 106 108 105 100 96 99 83 96 96 95 97 94 93 93
110 103 106 109 117 109 109 108 111 113 108 111 109 108 108 110 114 117 118 120 120 112 107 102 96 89 87 89 90 96 100 104 107 104 99 100 100 90 96 92 90 92 93 91 88
119 118 118 119 118 116 114 114 117 110 111 111 114 114 117 119 118 122 122 122 112 108 106 99 91 82 79 78 76 79 81 85 87 93 92 87 89 89 79 84 82 84 85 87 85
129 129 128 127 124 125 122 121 119 114 118 122 123 123 124 124 125 124 119 111 110 102 91 80 75 68 68 67 67 68 70 73 73 76 75 73 72 76 75 76 77 80 79 75 70
130 133 132 129 130 130 129 122 122 122 121 124 127 123 121 120 115 107 105 103 95 85 79 69 64 60 58 56 57 55 59 62 65 66 67 70 70 70 71 71 69 67 64 63 61
128 129 128 128 131 133 132 128 127 124 123 118 114 111 106 106 105 102 96 83 78 76 68 61 55 51 51 51 52 53 53 55 58 60 62 64 65 65 61 57 54 56 57 54 50
127 127 124 119 127 122 125 115 112 113 112 107 106 101 103 101 96 82 76 72 67 62 58 50 48 47 48 47 48 48 50 51 54 56 59 57 54 49 46 48 50 49 45 42 37
121 121 121 118 116 109 106 109 109 107 107 104 97 94 91 84 76 69 63 55 50 49 44 42 43 44 43 42 43 44 47 50 52 52 48 46 47 47 41 41 41 35 34 31 26
117 114 116 115 110 103 106 109 109 106 99 93 86 79 72 69 59 52 47 44 42 39 37 38 39 39 40 40 43 47 49 47 43 42 43 43 38 35 34 34 30 30 24 16 14
109 109 105 103 103 102 105 101 93 90 82 72 65 64 60 50 46 42 39 38 36 35 34 36 39 39 40 44 48 46 41 39 38 39 36 32 31 32 32 28 25 20 15 14 14
86 81 80 81 82 83 77 73 70 63 58 58 57 52 45 41 37 34 34 34 32 35 35 36 37 41 44 46 45 40 35 31 32 31 30 26 26 25 22 18 17 18 18 20 23
61 57 58 61 61 60 54 51 51 51 51 46 42 38 34 35 35 34 30 32 34 34 36 37 43 44 43 43 36 35 34 32 29 29 25 18 18 18 16 17 21 18 23 28 36
44 46 50 45 44 44 46 48 46 43 35 32 31 32 32 31 29 29 31 30 32 37 39 42 42 42 40 36 34 33 31 29 25 22 17 16 18 18 17 20 24 24 31 38 37

GFSSW_250_spd_117.txt.gz
Wind_Speed
70 67 68 69 66 63 67 62 63 63 61 60 67 64 62 59 60 63 70 71 69 67 63 58 57 55 54 52 52 52 54 55 50 51 50 55 57 63 60 61 56 53 61 59 61
72 68 67 70 70 68 63 66 65 68 66 65 68 61 61 61 64 67 65 63 58 57 63 65 63 62 61 54 49 52 52 58 55 50 49 50 60 67 62 62 63 64 64 62 60
75 72 71 73 73 73 69 66 67 69 68 63 58 56 58 62 65 72 75 73 71 69 64 65 64 60 61 59 52 52 57 57 58 57 53 51 53 57 65 63 71 71 68 69 61
80 81 78 78 78 80 74 71 74 66 74 68 66 62 67 69 65 69 79 76 73 74 65 61 66 71 67 63 59 56 60 64 59 58 59 57 54 51 61 68 70 70 67 68 65
85 84 83 80 83 83 81 76 74 71 73 77 69 70 69 67 67 71 74 79 74 71 69 66 69 73 62 62 64 64 63 68 58 57 64 59 56 56 59 68 70 70 72 72 71
88 86 82 85 88 85 82 78 78 77 75 76 76 71 72 73 73 73 74 82 84 82 78 75 72 68 64 63 67 63 65 63 58 61 59 63 57 57 64 68 73 72 73 75 76
92 91 88 91 89 90 85 84 83 79 79 78 77 75 72 73 74 77 80 80 84 86 85 82 76 69 69 68 66 69 65 62 65 66 63 62 68 65 63 67 72 77 80 79 79
94 94 95 96 92 94 92 89 87 83 80 78 79 78 75 75 77 77 79 80 84 88 86 82 78 75 79 76 71 69 69 69 72 69 70 71 70 73 68 70 77 80 83 82 80
97 97 99 97 96 95 92 90 88 88 88 83 82 83 81 83 80 80 84 84 86 88 87 87 88 86 86 79 75 76 76 74 74 74 75 77 75 75 74 73 77 83 83 86 86
91 92 93 94 97 96 95 93 92 89 86 85 82 84 79 76 80 84 82 87 88 87 89 92 93 94 94 90 83 80 81 80 76 79 79 78 79 80 82 79 77 87 90 89 90
93 92 94 94 96 97 93 89 87 84 80 81 81 85 85 83 86 79 83 89 89 93 94 93 93 99 101 100 97 96 94 92 95 95 89 84 84 84 88 88 86 87 90 93 92
98 97 95 96 97 92 89 84 87 89 85 83 81 86 89 86 85 81 84 92 96 99 100 99 100 107 103 103 103 104 104 103 103 102 100 93 89 93 93 91 94 94 96 97 98
102 97 97 98 98 96 93 88 87 89 84 81 81 86 85 88 88 87 88 97 98 99 105 101 104 105 104 106 108 109 108 110 113 103 99 97 92 94 96 98 97 96 99 103 105
102 100 98 101 100 102 99 97 99 101 97 89 84 84 92 90 89 90 92 95 102 105 106 106 108 107 111 108 112 108 118 116 110 99 99 100 98 88 100 104 107 100 93 103 107
102 103 103 102 103 105 103 104 103 105 108 93 88 87 87 94 94 93 101 104 103 107 108 106 109 112 116 121 120 120 116 105 103 101 100 89 110 79 105 103 113 98 99 105 107
113 108 115 107 112 106 104 108 113 114 115 105 102 94 97 99 102 103 105 108 110 111 114 112 117 120 121 118 115 110 102 102 99 92 87 84 95 84 94 100 101 100 103 103 103
120 120 120 119 115 112 114 113 118 115 110 107 102 106 108 107 109 113 115 113 114 115 116 120 124 123 104 101 98 95 96 90 85 83 72 75 75 86 83 87 96 98 97 98 102
129 133 132 124 124 120 119 119 119 112 114 111 109 115 119 118 118 118 120 123 120 121 123 126 124 110 97 102 91 87 75 75 71 68 64 63 62 74 70 74 78 82 84 88 89
140 138 136 132 132 125 125 128 119 118 118 120 120 121 124 122 121 120 122 120 124 119 120 115 106 94 95 93 83 75 68 61 56 54 52 54 58 59 59 65 67 70 71 74 77
132 134 132 129 132 132 134 129 125 125 123 122 122 125 124 122 120 117 118 111 108 105 105 102 97 90 81 72 70 63 58 53 51 49 51 52 56 59 56 60 62 65 67 67 65
124 121 121 125 125 132 129 129 131 130 127 127 127 127 123 121 115 115 107 99 101 97 96 90 80 74 66 61 54 53 54 49 49 49 52 52 55 55 54 53 53 54 55 53 51
124 122 118 117 128 125 126 124 126 125 121 123 121 119 115 110 108 107 101 97 96 89 79 69 65 60 52 49 48 48 45 46 48 49 48 46 44 45 39 38 42 44 40 39 35
122 125 121 123 120 115 118 116 114 113 114 110 109 108 105 101 101 98 97 87 78 67 64 58 52 48 47 47 43 43 44 45 45 46 44 39 40 41 39 40 40 33 29 28 27
111 117 115 114 112 110 111 111 108 110 105 104 106 102 100 97 93 86 77 64 60 56 50 46 44 44 45 43 44 41 44 44 42 42 40 41 39 38 33 32 27 23 22 20 19
99 98 103 105 104 106 109 108 108 104 102 96 92 90 86 80 72 62 55 52 47 42 40 40 40 42 42 41 40 43 42 40 40 38 33 28 29 29 28 27 19 17 17 22 24
76 73 74 79 80 83 84 86 87 84 82 77 73 70 66 57 49 47 42 40 36 37 36 39 40 38 37 41 43 44 41 39 33 28 23 23 24 24 22 18 17 17 24 27 29
59 60 62 60 61 60 60 64 65 61 62 58 56 50 43 39 38 34 33 34 34 36 37 35 35 36 41 43 42 39 32 29 26 24 20 21 21 19 18 18 18 26 27 31 36

GFSSW_250_spd_120.txt.gz
Wind_Speed
66 66 68 67 70 69 69 68 62 66 65 62 61 59 62 63 62 63 64 64 61 55 56 58 61 58 57 52 52 50 46 55 59 62 54 48 45 47 52 54 51 50 54 58 59
69 67 71 72 74 73 70 70 67 65 68 66 66 66 59 61 64 66 61 55 56 59 61 62 64 68 66 61 54 52 57 55 59 57 51 52 54 47 48 54 56 55 60 60 60
75 75 73 77 74 73 75 73 68 70 69 70 69 71 67 59 62 66 65 59 60 62 66 62 63 66 65 67 70 64 57 59 59 59 61 53 56 46 46 50 54 58 61 59 59
80 78 78 77 78 77 77 74 74 74 75 71 73 73 71 67 62 65 66 68 68 71 67 64 61 63 68 74 75 68 67 66 60 69 64 57 56 53 48 49 56 57 56 57 61
85 81 80 84 82 79 79 76 75 76 77 73 73 74 72 67 67 70 69 71 68 68 68 66 66 67 70 71 75 80 76 70 69 65 71 69 58 56 54 58 58 58 61 58 59
93 89 88 85 82 84 82 80 80 79 79 75 77 78 75 74 69 73 68 67 67 72 72 72 71 72 68 71 74 78 77 73 74 76 74 72 70 68 64 66 58 60 59 60 59
96 94 92 86 89 87 87 82 81 84 82 82 81 83 84 80 75 74 68 65 66 73 70 68 74 75 70 73 77 80 79 78 75 79 77 76 76 70 67 65 61 65 64 66 69
93 84 95 84 88 89 88 86 86 88 87 88 90 88 86 81 75 72 75 71 67 68 69 74 75 76 75 74 80 84 82 80 83 81 80 78 74 74 73 70 65 67 72 70 73
86 89 92 92 88 89 91 91 88 86 87 88 88 84 81 80 80 76 75 73 71 72 73 73 75 76 78 82 84 86 83 85 85 88 84 82 80 78 75 75 74 73 74 79 79
88 88 87 80 81 82 85 88 88 81 81 81 84 82 85 85 78 75 71 73 71 71 72 76 76 78 82 89 88 85 87 89 90 96 94 91 92 91 90 88 90 90 85 83 87
91 85 84 90 90 87 82 85 86 82 81 83 83 81 85 81 77 79 76 75 78 78 78 77 77 80 85 95 92 91 93 89 91 96 105 97 94 92 96 97 97 97 97 100 95
93 91 89 90 93 91 91 90 89 89 85 84 84 80 81 86 78 82 84 81 84 83 85 85 84 87 91 93 95 97 100 98 96 103 108 107 107 97 102 104 105 103 106 108 105
102 102 100 102 91 92 95 97 91 91 91 86 87 87 86 83 80 79 84 82 84 87 85 85 89 93 89 90 96 99 104 105 108 107 109 111 109 109 115 114 114 115 110 103 99
108 106 104 109 109 99 96 99 100 100 99 89 87 81 86 88 86 91 93 93 91 93 96 86 88 91 93 92 102 100 108 111 113 114 113 109 117 120 110 104 110 119 96 88 94
109 107 111 107 106 104 103 102 104 103 107 96 87 81 87 90 94 92 97 100 100 100 100 98 98 100 100 103 108 114 118 118 118 115 121 109 121 107 97 99 99 96 94 92 95
113 109 109 114 109 110 107 108 106 111 97 97 93 92 91 95 95 95 99 104 104 104 107 101 101 104 107 112 116 120 123 121 117 112 107 100 103 97 98 92 88 82 83 87 89
118 118 117 115 114 114 114 111 114 108 101 105 100 93 98 101 104 99 103 103 108 108 110 108 108 110 113 114 121 123 119 113 102 101 97 95 95 95 84 73 74 73 71 76 76
124 128 126 119 121 124 121 121 123 111 112 117 112 107 107 112 110 110 114 116 113 114 108 111 115 122 119 120 120 113 113 101 99 96 90 85 77 83 69 58 63 68 66 67 70
134 134 133 130 131 131 129 132 124 119 120 124 120 118 117 119 118 117 119 119 120 120 115 118 121 124 121 122 112 111 106 102 97 87 79 71 67 70 57 54 55 56 58 62 64
140 140 142 133 134 137 137 135 128 128 129 132 128 123 124 128 125 124 126 127 122 124 122 125 122 123 118 109 103 101 96 89 82 71 67 62 60 60 54 53 53 52 54 56 57
139 144 140 137 132 136 136 127 126 129 129 125 127 127 135 135 134 128 123 124 121 117 123 126 118 108 104 97 92 85 78 72 67 62 57 53 53 56 54 49 47 48 48 50 50
138 140 136 134 133 132 128 127 129 123 122 121 126 118 116 115 112 116 113 120 113 117 114 103 96 99 94 82 72 64 64 60 54 53 51 50 50 52 49 43 41 42 43 42 39
135 134 132 129 130 124 119 124 120 119 116 115 113 113 111 109 108 108 111 107 100 101 97 95 89 82 70 62 57 53 51 49 49 48 51 50 46 44 39 40 42 40 34 31 32
122 122 119 116 114 114 115 119 120 114 117 114 108 107 109 110 107 103 102 95 96 95 90 79 69 61 56 51 48 45 45 45 47 47 46 43 37 42 41 41 37 31 27 26 24
114 108 100 97 91 93 97 98 104 107 106 105 105 106 107 108 106 102 99 96 94 85 66 57 53 49 45 42 41 41 44 45 46 44 40 40 38 39 37 33 28 23 23 21 19
100 91 89 83 82 80 81 79 85 90 94 99 98 98 98 97 96 95 90 79 64 53 50 44 41 38 37 39 40 42 44 43 42 42 38 34 33 30 29 26 21 22 19 20 25
76 79 74 73 72 69 62 68 71 79 78 80 82 81 86 85 73 64 56 46 43 41 37 34 34 35 38 39 38 40 42 41 38 33 28 28 26 24 23 18 20 20 24 30 36

GFSSW_250_spd_123.txt.gz
Wind_Speed
71 72 73 69 65 66 66 63 61 61 60 61 62 65 63 60 63 60 57 60 59 56 57 55 53 49 53 50 53 55 56 50 55 62 56 60 58 61 53 56 57 54 47 42 47
76 74 75 73 72 67 66 67 66 63 63 62 62 62 63 62 62 58 62 66 63 63 58 55 53 55 57 60 60 57 53 53 59 58 62 64 67 65 63 61 55 53 49 37 40
82 78 76 79 76 78 74 72 68 68 67 66 67 64 63 61 63 57 57 57 58 62 59 57 55 56 60 63 67 62 57 57 68 63 65 63 65 67 65 62 63 57 53 51 49
82 82 81 82 80 78 76 77 71 69 68 69 71 68 67 64 66 61 62 63 62 61 62 62 61 62 63 62 65 63 66 68 69 65 62 61 61 66 65 67 70 65 60 59 54
84 84 79 81 82 80 76 73 76 72 73 73 73 72 68 70 70 65 65 67 67 66 69 67 60 62 66 66 70 68 66 58 59 64 65 61 64 65 66 68 67 66 67 67 60
82 81 81 79 83 82 81 78 76 79 78 76 76 73 74 71 70 70 68 70 70 70 73 69 65 62 62 63 65 70 61 65 70 69 68 65 66 68 72 71 66 64 64 68 71
80 81 80 82 87 88 80 79 80 82 82 79 77 75 76 74 73 75 76 76 75 75 75 70 68 65 63 65 69 70 67 69 73 70 69 72 72 70 75 74 73 72 70 69 71
81 82 83 83 86 88 83 80 81 79 80 81 79 77 76 74 75 76 77 79 79 79 71 70 66 66 70 70 70 67 74 74 74 78 77 77 74 76 76 77 78 77 75 77 81
83 82 84 82 83 87 87 80 80 80 78 77 78 79 76 76 77 76 78 78 79 75 71 73 73 69 70 70 74 78 77 72 76 86 81 80 77 81 84 84 83 83 83 86 95
84 84 82 79 79 81 85 84 80 79 80 80 80 76 76 72 72 71 73 73 73 70 72 74 71 71 74 72 72 75 77 76 82 88 86 86 84 83 86 86 89 93 98 97 102
84 82 83 83 82 80 81 83 82 78 79 79 79 78 79 81 77 73 78 75 78 77 77 76 73 75 76 78 81 84 88 87 84 87 89 87 84 87 91 93 98 103 106 108 108
89 86 87 89 92 90 90 92 88 87 79 76 72 72 75 75 74 78 81 81 82 84 83 82 80 82 80 83 83 84 86 87 88 93 95 87 85 92 93 100 109 109 114 114 110
89 90 89 90 94 92 93 97 97 90 83 79 82 78 76 81 82 85 83 83 85 89 90 88 82 84 84 85 88 90 92 93 93 95 94 97 95 99 97 108 119 118 114 113 110
99 98 96 99 97 98 98 101 100 98 97 87 86 83 86 87 83 85 90 93 89 90 90 85 87 87 89 91 95 91 98 99 100 100 101 102 110 103 105 112 118 111 110 111 105
109 108 109 103 100 102 106 108 106 104 104 93 91 88 91 94 90 86 93 96 98 97 95 94 94 94 91 93 98 98 103 101 100 101 107 92 119 114 112 117 107 99 98 97 96
112 112 115 112 110 109 109 111 112 111 102 102 99 95 95 96 98 94 96 96 97 96 99 96 98 99 98 98 101 101 107 114 114 116 114 113 119 116 114 102 95 94 95 93 89
121 119 118 117 115 110 114 115 116 105 100 104 105 103 100 100 103 100 102 99 100 99 98 100 98 104 106 105 109 114 117 117 120 123 118 118 123 117 102 93 93 89 90 86 81
124 124 123 118 119 118 119 116 118 103 104 108 114 108 103 104 103 108 104 105 107 106 107 104 104 112 110 113 116 117 123 127 126 112 112 118 106 106 92 93 87 79 73 71 67
132 129 127 122 121 123 122 125 112 108 107 114 121 113 110 109 115 111 110 111 114 116 114 113 111 115 116 121 121 123 118 116 113 106 104 93 97 93 87 78 74 68 61 58 54
132 131 131 131 128 128 129 124 117 115 117 121 124 121 120 119 120 118 117 116 116 120 121 121 118 118 118 114 107 101 101 102 108 98 90 86 85 81 70 63 57 54 51 49 49
136 137 132 133 134 134 132 126 123 120 123 127 125 127 124 124 126 123 123 120 118 118 115 115 114 102 102 100 97 94 93 90 94 94 84 73 64 63 59 51 46 45 43 45 44
138 137 130 134 137 138 134 128 127 127 125 128 128 125 126 125 125 128 125 121 112 111 108 105 102 100 97 97 99 93 89 89 80 71 68 63 52 50 48 45 42 40 40 38 41
136 135 136 136 137 130 125 127 128 127 125 127 126 122 121 121 122 120 122 119 112 108 106 103 102 95 95 98 95 90 85 72 66 61 56 49 42 44 45 43 40 41 39 38 36
133 133 132 132 128 125 124 122 124 123 123 121 119 119 115 115 119 116 114 111 108 106 103 99 93 94 90 87 80 72 61 57 54 51 46 43 38 43 43 42 42 39 36 35 33
117 118 114 116 116 120 120 119 118 116 114 115 115 114 115 114 111 108 106 101 99 95 91 83 84 81 81 69 58 52 50 45 42 43 42 43 38 43 41 42 39 34 31 25 21
104 101 95 100 101 100 100 101 103 105 104 101 100 98 97 95 93 89 87 82 79 77 79 72 73 65 55 46 44 40 38 36 41 44 41 40 42 39 35 32 26 26 23 20 19
86 85 81 82 83 82 82 86 84 88 86 84 83 83 79 79 78 75 71 69 62 63 61 55 51 45 42 34 31 34 35 37 41 40 41 39 34 29 27 22 22 22 20 19 21